Wetterdaten: Mittwoch, 31.08.2016
Datum Zeit Temp. A. Feuchte A. Luftdruck Regen Wind Richtung Richtung Sonnenschein ET UV Solar Taupunkt Windchill Windben Empfang
31.08.2016 00:00 16,3 C 78 % 1021,9 hPa 0,0 l/m 6,4 km/h (2 Bft) O-NO 68 0 min 0,000 mm 0,0 UV-I 0 W/m 12,5 C 16,3 C 9,7 km/h (2 Bft) 100,00 %
31.08.2016 00:02 16,3 C 78 % 1021,9 hPa 0,0 l/m 5,7 km/h (1 Bft) O-NO 69 0 min 0,000 mm 0,0 UV-I 0 W/m 12,5 C 16,3 C 8,0 km/h (2 Bft) 100,00 %
31.08.2016 00:04 16,3 C 79 % 1021,9 hPa 0,0 l/m 6,3 km/h (2 Bft) NO 54 0 min 0,000 mm 0,0 UV-I 0 W/m 12,6 C 16,3 C 9,7 km/h (2 Bft) 96,00 %
31.08.2016 00:06 16,2 C 79 % 1021,8 hPa 0,0 l/m 6,4 km/h (2 Bft) NO 52 0 min 0,000 mm 0,0 UV-I 0 W/m 12,6 C 16,2 C 8,0 km/h (2 Bft) 100,00 %
31.08.2016 00:08 16,2 C 79 % 1021,8 hPa 0,0 l/m 6,7 km/h (2 Bft) O-NO 69 0 min 0,000 mm 0,0 UV-I 0 W/m 12,6 C 16,1 C 9,7 km/h (2 Bft) 100,00 %
31.08.2016 00:10 16,2 C 79 % 1021,8 hPa 0,0 l/m 5,2 km/h (1 Bft) O-NO 58 0 min 0,000 mm 0,0 UV-I 0 W/m 12,6 C 16,2 C 8,0 km/h (2 Bft) 98,51 %
31.08.2016 00:12 16,1 C 79 % 1021,8 hPa 0,0 l/m 6,1 km/h (2 Bft) O-NO 62 0 min 0,000 mm 0,0 UV-I 0 W/m 12,5 C 16,1 C 11,3 km/h (2 Bft) 100,00 %
31.08.2016 00:14 16,1 C 80 % 1021,8 hPa 0,0 l/m 5,3 km/h (1 Bft) O-NO 58 0 min 0,000 mm 0,0 UV-I 0 W/m 12,6 C 16,1 C 6,4 km/h (2 Bft) 100,00 %
31.08.2016 00:16 16,0 C 80 % 1021,9 hPa 0,0 l/m 5,9 km/h (2 Bft) O-NO 59 0 min 0,000 mm 0,0 UV-I 0 W/m 12,5 C 16,0 C 11,3 km/h (2 Bft) 100,00 %
31.08.2016 00:18 15,9 C 80 % 1021,9 hPa 0,0 l/m 4,7 km/h (1 Bft) NO 49 0 min 0,000 mm 0,0 UV-I 0 W/m 12,5 C 15,9 C 6,4 km/h (2 Bft) 100,00 %
31.08.2016 00:20 15,8 C 80 % 1021,9 hPa 0,0 l/m 5,1 km/h (1 Bft) O-NO 65 0 min 0,000 mm 0,0 UV-I 0 W/m 12,4 C 15,8 C 9,7 km/h (2 Bft) 100,00 %
31.08.2016 00:22 15,8 C 81 % 1022,0 hPa 0,0 l/m 4,0 km/h (1 Bft) NO 34 0 min 0,000 mm 0,0 UV-I 0 W/m 12,5 C 15,8 C 6,4 km/h (2 Bft) 97,56 %
31.08.2016 00:24 15,7 C 81 % 1022,0 hPa 0,0 l/m 6,0 km/h (2 Bft) NO 42 0 min 0,000 mm 0,0 UV-I 0 W/m 12,4 C 15,7 C 8,0 km/h (2 Bft) 100,00 %
31.08.2016 00:26 15,7 C 81 % 1021,9 hPa 0,0 l/m 5,8 km/h (2 Bft) NO 38 0 min 0,000 mm 0,0 UV-I 0 W/m 12,4 C 15,7 C 8,0 km/h (2 Bft) 97,87 %
31.08.2016 00:28 15,6 C 81 % 1021,9 hPa 0,0 l/m 5,4 km/h (1 Bft) N-NO 24 0 min 0,000 mm 0,0 UV-I 0 W/m 12,3 C 15,6 C 8,0 km/h (2 Bft) 100,00 %
31.08.2016 00:30 15,6 C 81 % 1021,9 hPa 0,0 l/m 4,6 km/h (1 Bft) NO 45 0 min 0,000 mm 0,0 UV-I 0 W/m 12,3 C 15,6 C 6,4 km/h (2 Bft) 98,00 %
31.08.2016 00:32 15,6 C 81 % 1021,9 hPa 0,0 l/m 6,3 km/h (2 Bft) O-NO 57 0 min 0,000 mm 0,0 UV-I 0 W/m 12,3 C 15,6 C 8,0 km/h (2 Bft) 100,00 %
31.08.2016 00:34 15,6 C 81 % 1021,9 hPa 0,0 l/m 6,1 km/h (2 Bft) NO 40 0 min 0,000 mm 0,0 UV-I 0 W/m 12,3 C 15,6 C 9,7 km/h (2 Bft) 100,00 %
31.08.2016 00:36 15,6 C 81 % 1021,9 hPa 0,0 l/m 6,3 km/h (2 Bft) NO 46 0 min 0,000 mm 0,0 UV-I 0 W/m 12,3 C 15,6 C 9,7 km/h (2 Bft) 98,00 %
31.08.2016 00:38 15,6 C 81 % 1021,9 hPa 0,0 l/m 6,7 km/h (2 Bft) NO 48 0 min 0,000 mm 0,0 UV-I 0 W/m 12,3 C 15,4 C 8,0 km/h (2 Bft) 100,00 %
31.08.2016 00:40 15,6 C 81 % 1021,8 hPa 0,0 l/m 6,5 km/h (2 Bft) NO 45 0 min 0,000 mm 0,0 UV-I 0 W/m 12,3 C 15,6 C 9,7 km/h (2 Bft) 100,00 %
31.08.2016 00:42 15,6 C 81 % 1021,8 hPa 0,0 l/m 6,7 km/h (2 Bft) NO 37 0 min 0,000 mm 0,0 UV-I 0 W/m 12,3 C 15,4 C 11,3 km/h (2 Bft) 100,00 %
31.08.2016 00:44 15,5 C 81 % 1021,9 hPa 0,0 l/m 6,0 km/h (2 Bft) O-NO 68 0 min 0,000 mm 0,0 UV-I 0 W/m 12,3 C 15,5 C 8,0 km/h (2 Bft) 100,00 %
31.08.2016 00:46 15,5 C 82 % 1021,9 hPa 0,0 l/m 7,1 km/h (2 Bft) NO 38 0 min 0,000 mm 0,0 UV-I 0 W/m 12,4 C 15,1 C 9,7 km/h (2 Bft) 100,00 %
31.08.2016 00:48 15,4 C 82 % 1021,8 hPa 0,0 l/m 7,2 km/h (2 Bft) NO 43 0 min 0,000 mm 0,0 UV-I 0 W/m 12,3 C 15,0 C 9,7 km/h (2 Bft) 97,62 %
31.08.2016 00:50 15,3 C 82 % 1021,7 hPa 0,0 l/m 8,3 km/h (2 Bft) NO 46 0 min 0,000 mm 0,0 UV-I 0 W/m 12,2 C 14,3 C 14,5 km/h (3 Bft) 100,00 %
31.08.2016 00:52 15,3 C 82 % 1021,7 hPa 0,0 l/m 8,4 km/h (2 Bft) NO 40 0 min 0,000 mm 0,0 UV-I 0 W/m 12,2 C 14,2 C 11,3 km/h (2 Bft) 100,00 %
31.08.2016 00:54 15,3 C 82 % 1021,7 hPa 0,0 l/m 9,0 km/h (2 Bft) NO 38 0 min 0,000 mm 0,0 UV-I 0 W/m 12,2 C 13,9 C 12,9 km/h (3 Bft) 100,00 %
31.08.2016 00:56 15,3 C 82 % 1021,7 hPa 0,0 l/m 7,3 km/h (2 Bft) NO 42 0 min 0,000 mm 0,0 UV-I 0 W/m 12,2 C 14,8 C 11,3 km/h (2 Bft) 100,00 %
31.08.2016 00:58 15,3 C 82 % 1021,7 hPa 0,0 l/m 6,7 km/h (2 Bft) N-NO 25 0 min 0,000 mm 0,0 UV-I 0 W/m 12,2 C 15,1 C 9,7 km/h (2 Bft) 100,00 %
31.08.2016 01:00 15,3 C 82 % 1021,7 hPa 0,0 l/m 6,9 km/h (2 Bft) NO 35 0 min 0,025 mm 0,0 UV-I 0 W/m 12,2 C 15,0 C 11,3 km/h (2 Bft) 100,00 %
31.08.2016 01:02 15,3 C 82 % 1021,7 hPa 0,0 l/m 5,8 km/h (2 Bft) NO 51 0 min 0,000 mm 0,0 UV-I 0 W/m 12,2 C 15,3 C 8,0 km/h (2 Bft) 100,00 %
31.08.2016 01:04 15,3 C 82 % 1021,6 hPa 0,0 l/m 7,0 km/h (2 Bft) NO 44 0 min 0,000 mm 0,0 UV-I 0 W/m 12,2 C 15,0 C 11,3 km/h (2 Bft) 100,00 %
31.08.2016 01:06 15,3 C 82 % 1021,6 hPa 0,0 l/m 9,3 km/h (2 Bft) N-NO 27 0 min 0,000 mm 0,0 UV-I 0 W/m 12,2 C 13,8 C 12,9 km/h (3 Bft) 100,00 %
31.08.2016 01:08 15,3 C 82 % 1021,6 hPa 0,0 l/m 9,1 km/h (2 Bft) NO 35 0 min 0,000 mm 0,0 UV-I 0 W/m 12,2 C 13,9 C 16,1 km/h (3 Bft) 98,21 %
31.08.2016 01:10 15,2 C 82 % 1021,5 hPa 0,0 l/m 8,2 km/h (2 Bft) N-NO 29 0 min 0,000 mm 0,0 UV-I 0 W/m 12,1 C 14,2 C 11,3 km/h (2 Bft) 100,00 %
31.08.2016 01:12 15,2 C 83 % 1021,5 hPa 0,0 l/m 7,5 km/h (2 Bft) NO 34 0 min 0,000 mm 0,0 UV-I 0 W/m 12,3 C 14,6 C 11,3 km/h (2 Bft) 98,04 %
31.08.2016 01:14 15,2 C 83 % 1021,5 hPa 0,0 l/m 5,8 km/h (2 Bft) NO 38 0 min 0,000 mm 0,0 UV-I 0 W/m 12,3 C 15,2 C 8,0 km/h (2 Bft) 97,87 %
31.08.2016 01:16 15,2 C 82 % 1021,5 hPa 0,0 l/m 4,1 km/h (1 Bft) NO 53 0 min 0,000 mm 0,0 UV-I 0 W/m 12,1 C 15,2 C 4,8 km/h (1 Bft) 96,00 %
31.08.2016 01:18 15,3 C 82 % 1021,5 hPa 0,0 l/m 3,0 km/h (1 Bft) O-NO 70 0 min 0,000 mm 0,0 UV-I 0 W/m 12,2 C 15,3 C 4,8 km/h (1 Bft) 97,87 %
31.08.2016 01:20 15,2 C 82 % 1021,5 hPa 0,0 l/m 4,9 km/h (1 Bft) O-NO 61 0 min 0,000 mm 0,0 UV-I 0 W/m 12,1 C 15,2 C 6,4 km/h (2 Bft) 97,73 %
31.08.2016 01:22 15,2 C 82 % 1021,5 hPa 0,0 l/m 4,6 km/h (1 Bft) NO 49 0 min 0,000 mm 0,0 UV-I 0 W/m 12,1 C 15,2 C 6,4 km/h (2 Bft) 97,62 %
31.08.2016 01:24 15,2 C 82 % 1021,6 hPa 0,0 l/m 7,3 km/h (2 Bft) O-NO 58 0 min 0,000 mm 0,0 UV-I 0 W/m 12,1 C 14,7 C 12,9 km/h (3 Bft) 98,00 %
31.08.2016 01:26 15,2 C 82 % 1021,6 hPa 0,0 l/m 6,3 km/h (2 Bft) O-NO 68 0 min 0,000 mm 0,0 UV-I 0 W/m 12,1 C 15,2 C 8,0 km/h (2 Bft) 98,08 %
31.08.2016 01:28 15,3 C 82 % 1021,6 hPa 0,0 l/m 6,1 km/h (2 Bft) NO 55 0 min 0,000 mm 0,0 UV-I 0 W/m 12,2 C 15,3 C 9,7 km/h (2 Bft) 97,92 %
31.08.2016 01:30 15,2 C 83 % 1021,6 hPa 0,0 l/m 6,1 km/h (2 Bft) NO 43 0 min 0,000 mm 0,0 UV-I 0 W/m 12,3 C 15,2 C 8,0 km/h (2 Bft) 95,74 %
31.08.2016 01:32 15,2 C 83 % 1021,6 hPa 0,0 l/m 8,0 km/h (2 Bft) NO 51 0 min 0,000 mm 0,0 UV-I 0 W/m 12,3 C 14,3 C 14,5 km/h (3 Bft) 100,00 %
31.08.2016 01:34 15,2 C 83 % 1021,5 hPa 0,0 l/m 6,6 km/h (2 Bft) NO 37 0 min 0,000 mm 0,0 UV-I 0 W/m 12,3 C 15,1 C 8,0 km/h (2 Bft) 97,73 %
31.08.2016 01:36 15,2 C 83 % 1021,5 hPa 0,0 l/m 10,4 km/h (2 Bft) NO 54 0 min 0,000 mm 0,0 UV-I 0 W/m 12,3 C 13,2 C 17,7 km/h (3 Bft) 96,61 %
31.08.2016 01:38 15,3 C 83 % 1021,5 hPa 0,0 l/m 8,7 km/h (2 Bft) N-NO 28 0 min 0,000 mm 0,0 UV-I 0 W/m 12,4 C 14,1 C 17,7 km/h (3 Bft) 97,37 %
31.08.2016 01:40 15,3 C 83 % 1021,5 hPa 0,0 l/m 9,3 km/h (2 Bft) N-NO 25 0 min 0,000 mm 0,0 UV-I 0 W/m 12,4 C 13,8 C 16,1 km/h (3 Bft) 98,11 %
31.08.2016 01:42 15,3 C 83 % 1021,5 hPa 0,0 l/m 8,1 km/h (2 Bft) N-NO 30 0 min 0,000 mm 0,0 UV-I 0 W/m 12,4 C 14,4 C 11,3 km/h (2 Bft) 97,87 %
31.08.2016 01:44 15,2 C 82 % 1021,4 hPa 0,0 l/m 8,5 km/h (2 Bft) N-NO 32 0 min 0,000 mm 0,0 UV-I 0 W/m 12,1 C 14,1 C 14,5 km/h (3 Bft) 97,87 %
31.08.2016 01:46 15,3 C 82 % 1021,4 hPa 0,0 l/m 8,8 km/h (2 Bft) NO 44 0 min 0,000 mm 0,0 UV-I 0 W/m 12,2 C 14,0 C 14,5 km/h (3 Bft) 97,73 %
31.08.2016 01:48 15,2 C 82 % 1021,4 hPa 0,0 l/m 7,3 km/h (2 Bft) N-NO 30 0 min 0,000 mm 0,0 UV-I 0 W/m 12,1 C 14,7 C 12,9 km/h (3 Bft) 97,87 %
31.08.2016 01:50 15,2 C 82 % 1021,4 hPa 0,0 l/m 8,3 km/h (2 Bft) NO 44 0 min 0,000 mm 0,0 UV-I 0 W/m 12,1 C 14,2 C 14,5 km/h (3 Bft) 100,00 %
31.08.2016 01:52 15,2 C 81 % 1021,4 hPa 0,0 l/m 8,4 km/h (2 Bft) N-NO 31 0 min 0,000 mm 0,0 UV-I 0 W/m 12,0 C 14,1 C 14,5 km/h (3 Bft) 97,73 %
31.08.2016 01:54 15,2 C 81 % 1021,4 hPa 0,0 l/m 7,1 km/h (2 Bft) N-NO 24 0 min 0,000 mm 0,0 UV-I 0 W/m 12,0 C 14,8 C 11,3 km/h (2 Bft) 98,00 %
31.08.2016 01:56 15,1 C 81 % 1021,4 hPa 0,0 l/m 8,2 km/h (2 Bft) NO 44 0 min 0,000 mm 0,0 UV-I 0 W/m 11,9 C 14,1 C 14,5 km/h (3 Bft) 97,87 %
31.08.2016 01:58 15,1 C 81 % 1021,4 hPa 0,0 l/m 8,0 km/h (2 Bft) NO 38 0 min 0,000 mm 0,0 UV-I 0 W/m 11,9 C 14,2 C 14,5 km/h (3 Bft) 97,87 %
31.08.2016 02:00 15,0 C 81 % 1021,3 hPa 0,0 l/m 7,0 km/h (2 Bft) NO 38 0 min 0,026 mm 0,0 UV-I 0 W/m 11,8 C 14,7 C 9,7 km/h (2 Bft) 97,73 %
31.08.2016 02:02 15,0 C 81 % 1021,3 hPa 0,0 l/m 7,9 km/h (2 Bft) N-NO 29 0 min 0,000 mm 0,0 UV-I 0 W/m 11,8 C 14,2 C 11,3 km/h (2 Bft) 95,24 %
31.08.2016 02:04 15,1 C 80 % 1021,3 hPa 0,0 l/m 7,2 km/h (2 Bft) NO 43 0 min 0,000 mm 0,0 UV-I 0 W/m 11,7 C 14,6 C 9,7 km/h (2 Bft) 100,00 %
31.08.2016 02:06 15,1 C 79 % 1021,3 hPa 0,0 l/m 8,5 km/h (2 Bft) NO 42 0 min 0,000 mm 0,0 UV-I 0 W/m 11,5 C 13,9 C 14,5 km/h (3 Bft) 100,00 %
31.08.2016 02:08 15,1 C 78 % 1021,3 hPa 0,0 l/m 8,5 km/h (2 Bft) NO 37 0 min 0,000 mm 0,0 UV-I 0 W/m 11,3 C 13,9 C 14,5 km/h (3 Bft) 100,00 %
31.08.2016 02:10 15,1 C 78 % 1021,3 hPa 0,0 l/m 9,9 km/h (2 Bft) NO 55 0 min 0,000 mm 0,0 UV-I 0 W/m 11,3 C 13,3 C 16,1 km/h (3 Bft) 100,00 %
31.08.2016 02:12 15,2 C 77 % 1021,3 hPa 0,0 l/m 8,5 km/h (2 Bft) O-NO 61 0 min 0,000 mm 0,0 UV-I 0 W/m 11,2 C 14,1 C 16,1 km/h (3 Bft) 100,00 %
31.08.2016 02:14 15,2 C 77 % 1021,3 hPa 0,0 l/m 9,3 km/h (2 Bft) NO 34 0 min 0,000 mm 0,0 UV-I 0 W/m 11,2 C 13,7 C 14,5 km/h (3 Bft) 100,00 %
31.08.2016 02:16 15,3 C 76 % 1021,2 hPa 0,0 l/m 10,7 km/h (2 Bft) NO 43 0 min 0,000 mm 0,0 UV-I 0 W/m 11,1 C 13,1 C 16,1 km/h (3 Bft) 100,00 %
31.08.2016 02:18 15,3 C 76 % 1021,3 hPa 0,0 l/m 8,2 km/h (2 Bft) NO 44 0 min 0,000 mm 0,0 UV-I 0 W/m 11,1 C 14,3 C 16,1 km/h (3 Bft) 98,00 %
31.08.2016 02:20 15,3 C 76 % 1021,3 hPa 0,0 l/m 5,6 km/h (1 Bft) O-NO 57 0 min 0,000 mm 0,0 UV-I 0 W/m 11,1 C 15,3 C 8,0 km/h (2 Bft) 100,00 %
31.08.2016 02:22 15,3 C 76 % 1021,3 hPa 0,0 l/m 7,4 km/h (2 Bft) NO 42 0 min 0,000 mm 0,0 UV-I 0 W/m 11,1 C 14,7 C 12,9 km/h (3 Bft) 100,00 %
31.08.2016 02:24 15,2 C 76 % 1021,3 hPa 0,0 l/m 6,5 km/h (2 Bft) N-NO 31 0 min 0,000 mm 0,0 UV-I 0 W/m 11,0 C 15,2 C 8,0 km/h (2 Bft) 100,00 %
31.08.2016 02:26 15,2 C 77 % 1021,3 hPa 0,0 l/m 5,5 km/h (1 Bft) O-NO 61 0 min 0,000 mm 0,0 UV-I 0 W/m 11,2 C 15,2 C 9,7 km/h (2 Bft) 96,23 %
31.08.2016 02:28 15,1 C 77 % 1021,2 hPa 0,0 l/m 7,1 km/h (2 Bft) NO 53 0 min 0,000 mm 0,0 UV-I 0 W/m 11,1 C 14,7 C 12,9 km/h (3 Bft) 97,37 %
31.08.2016 02:30 15,1 C 77 % 1021,2 hPa 0,0 l/m 6,5 km/h (2 Bft) NO 49 0 min 0,000 mm 0,0 UV-I 0 W/m 11,1 C 15,1 C 9,7 km/h (2 Bft) 100,00 %
31.08.2016 02:32 15,0 C 78 % 1021,2 hPa 0,0 l/m 6,7 km/h (2 Bft) NO 42 0 min 0,000 mm 0,0 UV-I 0 W/m 11,2 C 14,8 C 12,9 km/h (3 Bft) 98,11 %
31.08.2016 02:34 14,9 C 78 % 1021,2 hPa 0,0 l/m 7,2 km/h (2 Bft) NO 53 0 min 0,000 mm 0,0 UV-I 0 W/m 11,1 C 14,4 C 9,7 km/h (2 Bft) 100,00 %
31.08.2016 02:36 14,8 C 78 % 1021,2 hPa 0,0 l/m 7,3 km/h (2 Bft) O-NO 62 0 min 0,000 mm 0,0 UV-I 0 W/m 11,0 C 14,3 C 14,5 km/h (3 Bft) 100,00 %
31.08.2016 02:38 14,8 C 79 % 1021,2 hPa 0,0 l/m 7,9 km/h (2 Bft) N-NO 24 0 min 0,000 mm 0,0 UV-I 0 W/m 11,2 C 13,9 C 12,9 km/h (3 Bft) 100,00 %
31.08.2016 02:40 14,7 C 79 % 1021,1 hPa 0,0 l/m 8,8 km/h (2 Bft) N-NO 32 0 min 0,000 mm 0,0 UV-I 0 W/m 11,1 C 13,4 C 16,1 km/h (3 Bft) 100,00 %
31.08.2016 02:42 14,6 C 79 % 1021,1 hPa 0,0 l/m 9,3 km/h (2 Bft) O-NO 58 0 min 0,000 mm 0,0 UV-I 0 W/m 11,0 C 13,0 C 14,5 km/h (3 Bft) 100,00 %
31.08.2016 02:44 14,6 C 79 % 1021,1 hPa 0,0 l/m 10,2 km/h (2 Bft) NO 37 0 min 0,000 mm 0,0 UV-I 0 W/m 11,0 C 12,6 C 17,7 km/h (3 Bft) 100,00 %
31.08.2016 02:46 14,6 C 80 % 1021,1 hPa 0,0 l/m 9,4 km/h (2 Bft) NO 56 0 min 0,000 mm 0,0 UV-I 0 W/m 11,2 C 13,0 C 14,5 km/h (3 Bft) 98,21 %
31.08.2016 02:48 14,5 C 80 % 1021,1 hPa 0,0 l/m 6,0 km/h (2 Bft) NO 45 0 min 0,000 mm 0,0 UV-I 0 W/m 11,1 C 14,5 C 8,0 km/h (2 Bft) 100,00 %
31.08.2016 02:50 14,5 C 80 % 1021,1 hPa 0,0 l/m 6,5 km/h (2 Bft) NO 53 0 min 0,000 mm 0,0 UV-I 0 W/m 11,1 C 14,5 C 9,7 km/h (2 Bft) 100,00 %
31.08.2016 02:52 14,6 C 80 % 1021,1 hPa 0,0 l/m 6,3 km/h (2 Bft) O-NO 59 0 min 0,000 mm 0,0 UV-I 0 W/m 11,2 C 14,6 C 9,7 km/h (2 Bft) 97,37 %
31.08.2016 02:54 14,6 C 80 % 1021,1 hPa 0,0 l/m 7,5 km/h (2 Bft) O-NO 60 0 min 0,000 mm 0,0 UV-I 0 W/m 11,2 C 14,0 C 12,9 km/h (3 Bft) 100,00 %
31.08.2016 02:56 14,6 C 80 % 1021,1 hPa 0,0 l/m 8,8 km/h (2 Bft) NO 52 0 min 0,000 mm 0,0 UV-I 0 W/m 11,2 C 13,3 C 12,9 km/h (3 Bft) 100,00 %
31.08.2016 02:58 14,5 C 80 % 1021,1 hPa 0,0 l/m 8,6 km/h (2 Bft) O-NO 65 0 min 0,000 mm 0,0 UV-I 0 W/m 11,1 C 13,3 C 16,1 km/h (3 Bft) 100,00 %
31.08.2016 03:00 14,5 C 80 % 1021,1 hPa 0,0 l/m 8,7 km/h (2 Bft) NO 51 0 min 0,025 mm 0,0 UV-I 0 W/m 11,1 C 13,2 C 14,5 km/h (3 Bft) 100,00 %
31.08.2016 03:02 14,5 C 80 % 1021,1 hPa 0,0 l/m 7,4 km/h (2 Bft) NO 44 0 min 0,000 mm 0,0 UV-I 0 W/m 11,1 C 13,9 C 9,7 km/h (2 Bft) 100,00 %
31.08.2016 03:04 14,4 C 80 % 1021,1 hPa 0,0 l/m 8,1 km/h (2 Bft) NO 56 0 min 0,000 mm 0,0 UV-I 0 W/m 11,0 C 13,4 C 11,3 km/h (2 Bft) 100,00 %
31.08.2016 03:06 14,4 C 80 % 1021,1 hPa 0,0 l/m 8,3 km/h (2 Bft) O-NO 62 0 min 0,000 mm 0,0 UV-I 0 W/m 11,0 C 13,3 C 12,9 km/h (3 Bft) 100,00 %
31.08.2016 03:08 14,4 C 80 % 1021,1 hPa 0,0 l/m 7,3 km/h (2 Bft) O-NO 67 0 min 0,000 mm 0,0 UV-I 0 W/m 11,0 C 13,9 C 12,9 km/h (3 Bft) 100,00 %
31.08.2016 03:10 14,4 C 80 % 1021,1 hPa 0,0 l/m 6,5 km/h (2 Bft) O-NO 61 0 min 0,000 mm 0,0 UV-I 0 W/m 11,0 C 14,4 C 8,0 km/h (2 Bft) 100,00 %
31.08.2016 03:12 14,3 C 81 % 1021,2 hPa 0,0 l/m 7,4 km/h (2 Bft) O-NO 71 0 min 0,000 mm 0,0 UV-I 0 W/m 11,1 C 13,7 C 9,7 km/h (2 Bft) 100,00 %
31.08.2016 03:14 14,3 C 81 % 1021,2 hPa 0,0 l/m 8,2 km/h (2 Bft) NO 39 0 min 0,000 mm 0,0 UV-I 0 W/m 11,1 C 13,3 C 14,5 km/h (3 Bft) 100,00 %
31.08.2016 03:16 14,3 C 81 % 1021,2 hPa 0,0 l/m 9,5 km/h (2 Bft) NO 45 0 min 0,000 mm 0,0 UV-I 0 W/m 11,1 C 12,6 C 14,5 km/h (3 Bft) 96,00 %
31.08.2016 03:18 14,3 C 81 % 1021,1 hPa 0,0 l/m 9,2 km/h (2 Bft) NO 53 0 min 0,000 mm 0,0 UV-I 0 W/m 11,1 C 12,7 C 14,5 km/h (3 Bft) 94,44 %
31.08.2016 03:20 14,2 C 81 % 1021,1 hPa 0,0 l/m 9,5 km/h (2 Bft) NO 44 0 min 0,000 mm 0,0 UV-I 0 W/m 11,0 C 12,5 C 14,5 km/h (3 Bft) 96,36 %
31.08.2016 03:22 14,2 C 81 % 1021,1 hPa 0,0 l/m 8,6 km/h (2 Bft) NO 44 0 min 0,000 mm 0,0 UV-I 0 W/m 11,0 C 12,9 C 12,9 km/h (3 Bft) 97,87 %
31.08.2016 03:24 14,2 C 81 % 1021,1 hPa 0,0 l/m 7,3 km/h (2 Bft) NO 41 0 min 0,000 mm 0,0 UV-I 0 W/m 11,0 C 13,7 C 12,9 km/h (3 Bft) 97,92 %
31.08.2016 03:26 14,2 C 81 % 1021,1 hPa 0,0 l/m 8,3 km/h (2 Bft) O-NO 67 0 min 0,000 mm 0,0 UV-I 0 W/m 11,0 C 13,1 C 14,5 km/h (3 Bft) 96,00 %
31.08.2016 03:28 14,1 C 81 % 1021,1 hPa 0,0 l/m 6,7 km/h (2 Bft) NO 54 0 min 0,000 mm 0,0 UV-I 0 W/m 10,9 C 13,9 C 8,0 km/h (2 Bft) 97,14 %
31.08.2016 03:30 14,1 C 82 % 1021,1 hPa 0,0 l/m 6,7 km/h (2 Bft) NO 51 0 min 0,000 mm 0,0 UV-I 0 W/m 11,1 C 13,9 C 9,7 km/h (2 Bft) 98,00 %
31.08.2016 03:32 14,1 C 82 % 1021,1 hPa 0,0 l/m 6,1 km/h (2 Bft) NO 43 0 min 0,000 mm 0,0 UV-I 0 W/m 11,1 C 14,1 C 11,3 km/h (2 Bft) 95,74 %
31.08.2016 03:34 14,1 C 82 % 1021,1 hPa 0,0 l/m 6,8 km/h (2 Bft) NO 44 0 min 0,000 mm 0,0 UV-I 0 W/m 11,1 C 13,9 C 9,7 km/h (2 Bft) 96,00 %
31.08.2016 03:36 14,0 C 82 % 1021,1 hPa 0,0 l/m 6,4 km/h (2 Bft) NO 49 0 min 0,000 mm 0,0 UV-I 0 W/m 11,0 C 14,0 C 9,7 km/h (2 Bft) 97,87 %
31.08.2016 03:38 14,0 C 82 % 1021,1 hPa 0,0 l/m 6,0 km/h (2 Bft) O-NO 74 0 min 0,000 mm 0,0 UV-I 0 W/m 11,0 C 14,0 C 9,7 km/h (2 Bft) 97,87 %
31.08.2016 03:40 13,9 C 82 % 1021,1 hPa 0,0 l/m 5,2 km/h (1 Bft) O-NO 61 0 min 0,000 mm 0,0 UV-I 0 W/m 10,9 C 13,9 C 9,7 km/h (2 Bft) 96,00 %
31.08.2016 03:42 13,9 C 82 % 1021,1 hPa 0,0 l/m 8,0 km/h (2 Bft) O-NO 59 0 min 0,000 mm 0,0 UV-I 0 W/m 10,9 C 12,9 C 12,9 km/h (3 Bft) 95,74 %
31.08.2016 03:44 13,8 C 82 % 1021,1 hPa 0,0 l/m 6,8 km/h (2 Bft) O-NO 59 0 min 0,000 mm 0,0 UV-I 0 W/m 10,8 C 13,6 C 9,7 km/h (2 Bft) 95,74 %
31.08.2016 03:46 13,8 C 82 % 1021,2 hPa 0,0 l/m 7,5 km/h (2 Bft) NO 40 0 min 0,000 mm 0,0 UV-I 0 W/m 10,8 C 13,1 C 11,3 km/h (2 Bft) 95,74 %
31.08.2016 03:48 13,8 C 82 % 1021,1 hPa 0,0 l/m 7,4 km/h (2 Bft) O-NO 65 0 min 0,000 mm 0,0 UV-I 0 W/m 10,8 C 13,2 C 12,9 km/h (3 Bft) 97,30 %
31.08.2016 03:50 13,8 C 83 % 1021,1 hPa 0,0 l/m 7,8 km/h (2 Bft) NO 49 0 min 0,000 mm 0,0 UV-I 0 W/m 11,0 C 13,0 C 12,9 km/h (3 Bft) 100,00 %
31.08.2016 03:52 13,7 C 83 % 1021,1 hPa 0,0 l/m 6,7 km/h (2 Bft) O-NO 74 0 min 0,000 mm 0,0 UV-I 0 W/m 10,9 C 13,5 C 9,7 km/h (2 Bft) 97,87 %
31.08.2016 03:54 13,7 C 83 % 1021,1 hPa 0,0 l/m 6,8 km/h (2 Bft) O-NO 69 0 min 0,000 mm 0,0 UV-I 0 W/m 10,9 C 13,5 C 9,7 km/h (2 Bft) 98,00 %
31.08.2016 03:56 13,7 C 83 % 1021,1 hPa 0,0 l/m 6,0 km/h (2 Bft) NO 55 0 min 0,000 mm 0,0 UV-I 0 W/m 10,9 C 13,7 C 8,0 km/h (2 Bft) 100,00 %
31.08.2016 03:58 13,7 C 83 % 1021,1 hPa 0,0 l/m 6,5 km/h (2 Bft) O-NO 65 0 min 0,000 mm 0,0 UV-I 0 W/m 10,9 C 13,7 C 12,9 km/h (3 Bft) 97,96 %
31.08.2016 04:00 13,6 C 83 % 1021,2 hPa 0,0 l/m 4,6 km/h (1 Bft) NO 53 0 min 0,026 mm 0,0 UV-I 0 W/m 10,8 C 13,6 C 6,4 km/h (2 Bft) 100,00 %
31.08.2016 04:02 13,6 C 83 % 1021,1 hPa 0,0 l/m 5,7 km/h (1 Bft) O-NO 65 0 min 0,000 mm 0,0 UV-I 0 W/m 10,8 C 13,6 C 12,9 km/h (3 Bft) 100,00 %
31.08.2016 04:04 13,6 C 83 % 1021,1 hPa 0,0 l/m 8,1 km/h (2 Bft) NO 54 0 min 0,000 mm 0,0 UV-I 0 W/m 10,8 C 12,6 C 12,9 km/h (3 Bft) 100,00 %
31.08.2016 04:06 13,6 C 83 % 1021,1 hPa 0,0 l/m 6,8 km/h (2 Bft) O-NO 59 0 min 0,000 mm 0,0 UV-I 0 W/m 10,8 C 13,4 C 11,3 km/h (2 Bft) 100,00 %
31.08.2016 04:08 13,6 C 83 % 1021,1 hPa 0,0 l/m 6,4 km/h (2 Bft) O-NO 60 0 min 0,000 mm 0,0 UV-I 0 W/m 10,8 C 13,6 C 8,0 km/h (2 Bft) 97,87 %
31.08.2016 04:10 13,5 C 83 % 1021,1 hPa 0,0 l/m 7,1 km/h (2 Bft) O-NO 59 0 min 0,000 mm 0,0 UV-I 0 W/m 10,7 C 13,1 C 9,7 km/h (2 Bft) 100,00 %
31.08.2016 04:12 13,5 C 83 % 1021,1 hPa 0,0 l/m 8,0 km/h (2 Bft) O-NO 65 0 min 0,000 mm 0,0 UV-I 0 W/m 10,7 C 12,5 C 11,3 km/h (2 Bft) 100,00 %
31.08.2016 04:14 13,5 C 83 % 1021,1 hPa 0,0 l/m 6,5 km/h (2 Bft) O-NO 59 0 min 0,000 mm 0,0 UV-I 0 W/m 10,7 C 13,5 C 11,3 km/h (2 Bft) 100,00 %
31.08.2016 04:16 13,5 C 83 % 1021,0 hPa 0,0 l/m 7,8 km/h (2 Bft) O-NO 65 0 min 0,000 mm 0,0 UV-I 0 W/m 10,7 C 12,6 C 11,3 km/h (2 Bft) 97,87 %
31.08.2016 04:18 13,4 C 83 % 1021,0 hPa 0,0 l/m 8,5 km/h (2 Bft) O-NO 57 0 min 0,000 mm 0,0 UV-I 0 W/m 10,6 C 12,1 C 14,5 km/h (3 Bft) 95,92 %
31.08.2016 04:20 13,4 C 83 % 1021,0 hPa 0,0 l/m 7,1 km/h (2 Bft) NO 51 0 min 0,000 mm 0,0 UV-I 0 W/m 10,6 C 13,0 C 9,7 km/h (2 Bft) 96,00 %
31.08.2016 04:22 13,4 C 83 % 1020,9 hPa 0,0 l/m 5,7 km/h (1 Bft) NO 45 0 min 0,000 mm 0,0 UV-I 0 W/m 10,6 C 13,4 C 8,0 km/h (2 Bft) 96,00 %
31.08.2016 04:24 13,4 C 83 % 1020,9 hPa 0,0 l/m 6,6 km/h (2 Bft) O-NO 71 0 min 0,000 mm 0,0 UV-I 0 W/m 10,6 C 13,3 C 9,7 km/h (2 Bft) 97,37 %
31.08.2016 04:26 13,3 C 83 % 1020,9 hPa 0,0 l/m 6,8 km/h (2 Bft) NO 53 0 min 0,000 mm 0,0 UV-I 0 W/m 10,5 C 13,1 C 12,9 km/h (3 Bft) 100,00 %
31.08.2016 04:28 13,3 C 84 % 1020,9 hPa 0,0 l/m 7,9 km/h (2 Bft) NO 50 0 min 0,000 mm 0,0 UV-I 0 W/m 10,7 C 12,4 C 11,3 km/h (2 Bft) 100,00 %
31.08.2016 04:30 13,3 C 84 % 1020,9 hPa 0,0 l/m 6,9 km/h (2 Bft) O-NO 57 0 min 0,000 mm 0,0 UV-I 0 W/m 10,7 C 13,0 C 9,7 km/h (2 Bft) 97,87 %
31.08.2016 04:32 13,3 C 83 % 1020,9 hPa 0,0 l/m 8,1 km/h (2 Bft) O-NO 66 0 min 0,000 mm 0,0 UV-I 0 W/m 10,5 C 12,3 C 14,5 km/h (3 Bft) 97,87 %
31.08.2016 04:34 13,3 C 83 % 1020,9 hPa 0,0 l/m 7,6 km/h (2 Bft) O-NO 63 0 min 0,000 mm 0,0 UV-I 0 W/m 10,5 C 12,6 C 14,5 km/h (3 Bft) 100,00 %
31.08.2016 04:36 13,3 C 83 % 1021,0 hPa 0,0 l/m 9,7 km/h (2 Bft) NO 54 0 min 0,000 mm 0,0 UV-I 0 W/m 10,5 C 11,4 C 14,5 km/h (3 Bft) 97,92 %
31.08.2016 04:38 13,3 C 83 % 1020,9 hPa 0,0 l/m 6,7 km/h (2 Bft) NO 49 0 min 0,000 mm 0,0 UV-I 0 W/m 10,5 C 13,1 C 11,3 km/h (2 Bft) 100,00 %
31.08.2016 04:40 13,4 C 82 % 1020,9 hPa 0,0 l/m 8,0 km/h (2 Bft) O-NO 73 0 min 0,000 mm 0,0 UV-I 0 W/m 10,4 C 12,4 C 12,9 km/h (3 Bft) 100,00 %
31.08.2016 04:42 13,4 C 82 % 1020,9 hPa 0,0 l/m 6,8 km/h (2 Bft) NO 48 0 min 0,000 mm 0,0 UV-I 0 W/m 10,4 C 13,2 C 11,3 km/h (2 Bft) 97,87 %
31.08.2016 04:44 13,4 C 82 % 1020,9 hPa 0,0 l/m 7,3 km/h (2 Bft) O-NO 59 0 min 0,000 mm 0,0 UV-I 0 W/m 10,4 C 12,8 C 11,3 km/h (2 Bft) 100,00 %
31.08.2016 04:46 13,3 C 82 % 1020,9 hPa 0,0 l/m 6,4 km/h (2 Bft) NO 54 0 min 0,000 mm 0,0 UV-I 0 W/m 10,3 C 13,3 C 9,7 km/h (2 Bft) 100,00 %
31.08.2016 04:48 13,3 C 83 % 1020,9 hPa 0,0 l/m 6,6 km/h (2 Bft) O-NO 66 0 min 0,000 mm 0,0 UV-I 0 W/m 10,5 C 13,2 C 9,7 km/h (2 Bft) 100,00 %
31.08.2016 04:50 13,3 C 83 % 1020,9 hPa 0,0 l/m 7,2 km/h (2 Bft) O-NO 67 0 min 0,000 mm 0,0 UV-I 0 W/m 10,5 C 12,8 C 9,7 km/h (2 Bft) 100,00 %
31.08.2016 04:52 13,3 C 83 % 1020,9 hPa 0,0 l/m 7,9 km/h (2 Bft) O-NO 62 0 min 0,000 mm 0,0 UV-I 0 W/m 10,5 C 12,4 C 14,5 km/h (3 Bft) 100,00 %
31.08.2016 04:54 13,2 C 83 % 1020,9 hPa 0,0 l/m 7,3 km/h (2 Bft) O-NO 69 0 min 0,000 mm 0,0 UV-I 0 W/m 10,4 C 12,6 C 9,7 km/h (2 Bft) 100,00 %
31.08.2016 04:56 13,2 C 83 % 1020,9 hPa 0,0 l/m 7,7 km/h (2 Bft) O-NO 59 0 min 0,000 mm 0,0 UV-I 0 W/m 10,4 C 12,4 C 12,9 km/h (3 Bft) 95,74 %
31.08.2016 04:58 13,2 C 83 % 1020,9 hPa 0,0 l/m 6,6 km/h (2 Bft) O-NO 57 0 min 0,000 mm 0,0 UV-I 0 W/m 10,4 C 13,1 C 11,3 km/h (2 Bft) 97,87 %
31.08.2016 05:00 13,1 C 83 % 1020,9 hPa 0,0 l/m 5,7 km/h (1 Bft) NO 56 0 min 0,025 mm 0,0 UV-I 0 W/m 10,3 C 13,1 C 8,0 km/h (2 Bft) 100,00 %
31.08.2016 05:02 13,1 C 83 % 1021,0 hPa 0,0 l/m 6,9 km/h (2 Bft) O-NO 60 0 min 0,000 mm 0,0 UV-I 0 W/m 10,3 C 12,8 C 12,9 km/h (3 Bft) 95,74 %
31.08.2016 05:04 13,1 C 83 % 1021,0 hPa 0,0 l/m 7,6 km/h (2 Bft) O-NO 57 0 min 0,000 mm 0,0 UV-I 0 W/m 10,3 C 12,3 C 12,9 km/h (3 Bft) 100,00 %
31.08.2016 05:06 13,1 C 83 % 1021,0 hPa 0,0 l/m 8,4 km/h (2 Bft) NO 49 0 min 0,000 mm 0,0 UV-I 0 W/m 10,3 C 11,9 C 11,3 km/h (2 Bft) 97,87 %
31.08.2016 05:08 13,1 C 83 % 1021,0 hPa 0,0 l/m 7,2 km/h (2 Bft) O-NO 62 0 min 0,000 mm 0,0 UV-I 0 W/m 10,3 C 12,6 C 9,7 km/h (2 Bft) 100,00 %
31.08.2016 05:10 13,1 C 83 % 1021,0 hPa 0,0 l/m 7,7 km/h (2 Bft) O-NO 61 0 min 0,000 mm 0,0 UV-I 0 W/m 10,3 C 12,3 C 9,7 km/h (2 Bft) 97,87 %
31.08.2016 05:12 13,0 C 83 % 1021,0 hPa 0,0 l/m 7,4 km/h (2 Bft) NO 36 0 min 0,000 mm 0,0 UV-I 0 W/m 10,2 C 12,4 C 9,7 km/h (2 Bft) 97,87 %
31.08.2016 05:14 12,9 C 83 % 1021,0 hPa 0,0 l/m 5,2 km/h (1 Bft) NO 45 0 min 0,000 mm 0,0 UV-I 0 W/m 10,1 C 12,9 C 8,0 km/h (2 Bft) 95,74 %
31.08.2016 05:16 12,9 C 84 % 1021,0 hPa 0,0 l/m 6,9 km/h (2 Bft) NO 47 0 min 0,000 mm 0,0 UV-I 0 W/m 10,3 C 12,6 C 9,7 km/h (2 Bft) 97,44 %
31.08.2016 05:18 12,8 C 84 % 1021,0 hPa 0,0 l/m 7,8 km/h (2 Bft) O-NO 59 0 min 0,000 mm 0,0 UV-I 0 W/m 10,2 C 11,9 C 11,3 km/h (2 Bft) 97,87 %
31.08.2016 05:20 12,7 C 84 % 1021,0 hPa 0,0 l/m 5,9 km/h (2 Bft) NO 41 0 min 0,000 mm 0,0 UV-I 0 W/m 10,1 C 12,7 C 8,0 km/h (2 Bft) 94,00 %
31.08.2016 05:22 12,7 C 84 % 1021,0 hPa 0,0 l/m 5,2 km/h (1 Bft) N-NO 28 0 min 0,000 mm 0,0 UV-I 0 W/m 10,1 C 12,7 C 9,7 km/h (2 Bft) 97,87 %
31.08.2016 05:24 12,6 C 84 % 1021,0 hPa 0,0 l/m 5,3 km/h (1 Bft) O-NO 71 0 min 0,000 mm 0,0 UV-I 0 W/m 10,0 C 12,6 C 8,0 km/h (2 Bft) 97,87 %
31.08.2016 05:26 12,6 C 84 % 1021,0 hPa 0,0 l/m 6,7 km/h (2 Bft) NO 38 0 min 0,000 mm 0,0 UV-I 0 W/m 10,0 C 12,4 C 12,9 km/h (3 Bft) 97,87 %
31.08.2016 05:28 12,6 C 84 % 1020,9 hPa 0,0 l/m 5,2 km/h (1 Bft) NO 45 0 min 0,000 mm 0,0 UV-I 0 W/m 10,0 C 12,6 C 6,4 km/h (2 Bft) 97,87 %
31.08.2016 05:30 12,6 C 84 % 1020,9 hPa 0,0 l/m 7,0 km/h (2 Bft) NO 42 0 min 0,000 mm 0,0 UV-I 0 W/m 10,0 C 12,2 C 11,3 km/h (2 Bft) 95,74 %
31.08.2016 05:32 12,6 C 84 % 1021,0 hPa 0,0 l/m 7,8 km/h (2 Bft) NO 55 0 min 0,000 mm 0,0 UV-I 0 W/m 10,0 C 11,7 C 12,9 km/h (3 Bft) 98,00 %
31.08.2016 05:34 12,6 C 84 % 1020,9 hPa 0,0 l/m 7,4 km/h (2 Bft) NO 34 0 min 0,000 mm 0,0 UV-I 0 W/m 10,0 C 12,0 C 12,9 km/h (3 Bft) 93,62 %
31.08.2016 05:36 12,6 C 84 % 1021,0 hPa 0,0 l/m 7,7 km/h (2 Bft) NO 53 0 min 0,000 mm 0,0 UV-I 0 W/m 10,0 C 11,8 C 12,9 km/h (3 Bft) 97,87 %
31.08.2016 05:38 12,6 C 84 % 1021,0 hPa 0,0 l/m 7,9 km/h (2 Bft) O-NO 63 0 min 0,000 mm 0,0 UV-I 0 W/m 10,0 C 11,6 C 12,9 km/h (3 Bft) 98,00 %
31.08.2016 05:40 12,6 C 84 % 1021,0 hPa 0,0 l/m 7,1 km/h (2 Bft) O-NO 62 0 min 0,000 mm 0,0 UV-I 0 W/m 10,0 C 12,2 C 9,7 km/h (2 Bft) 94,74 %
31.08.2016 05:42 12,6 C 83 % 1021,0 hPa 0,0 l/m 9,3 km/h (2 Bft) O-NO 63 0 min 0,000 mm 0,0 UV-I 0 W/m 9,8 C 10,8 C 16,1 km/h (3 Bft) 97,87 %
31.08.2016 05:44 12,6 C 83 % 1021,0 hPa 0,0 l/m 7,1 km/h (2 Bft) O-NO 58 0 min 0,000 mm 0,0 UV-I 0 W/m 9,8 C 12,2 C 11,3 km/h (2 Bft) 95,74 %
31.08.2016 05:46 12,6 C 83 % 1021,0 hPa 0,0 l/m 7,6 km/h (2 Bft) NO 49 0 min 0,000 mm 0,0 UV-I 0 W/m 9,8 C 11,8 C 9,7 km/h (2 Bft) 97,87 %
31.08.2016 05:48 12,6 C 83 % 1021,0 hPa 0,0 l/m 9,0 km/h (2 Bft) O-NO 76 0 min 0,000 mm 0,0 UV-I 0 W/m 9,8 C 11,0 C 12,9 km/h (3 Bft) 97,87 %
31.08.2016 05:50 12,6 C 83 % 1021,0 hPa 0,0 l/m 8,5 km/h (2 Bft) NO 42 0 min 0,000 mm 0,0 UV-I 0 W/m 9,8 C 11,3 C 14,5 km/h (3 Bft) 100,00 %
31.08.2016 05:52 12,7 C 82 % 1020,9 hPa 0,0 l/m 8,4 km/h (2 Bft) O-NO 71 0 min 0,000 mm 0,0 UV-I 0 W/m 9,7 C 11,5 C 12,9 km/h (3 Bft) 100,00 %
31.08.2016 05:54 12,7 C 82 % 1021,0 hPa 0,0 l/m 7,6 km/h (2 Bft) NO 52 0 min 0,000 mm 0,0 UV-I 0 W/m 9,7 C 11,9 C 14,5 km/h (3 Bft) 100,00 %
31.08.2016 05:56 12,7 C 82 % 1021,0 hPa 0,0 l/m 8,0 km/h (2 Bft) NO 44 0 min 0,000 mm 0,0 UV-I 0 W/m 9,7 C 11,7 C 14,5 km/h (3 Bft) 100,00 %
31.08.2016 05:58 12,7 C 82 % 1021,0 hPa 0,0 l/m 8,6 km/h (2 Bft) NO 49 0 min 0,000 mm 0,0 UV-I 0 W/m 9,7 C 11,3 C 14,5 km/h (3 Bft) 100,00 %
31.08.2016 06:00 12,7 C 82 % 1021,0 hPa 0,0 l/m 8,5 km/h (2 Bft) O-NO 57 0 min 0,025 mm 0,0 UV-I 0 W/m 9,7 C 11,4 C 14,5 km/h (3 Bft) 97,92 %
31.08.2016 06:02 12,7 C 81 % 1021,0 hPa 0,0 l/m 9,9 km/h (2 Bft) NO 43 0 min 0,000 mm 0,0 UV-I 0 W/m 9,5 C 10,6 C 16,1 km/h (3 Bft) 100,00 %
31.08.2016 06:04 12,7 C 81 % 1021,0 hPa 0,0 l/m 11,4 km/h (2 Bft) O-NO 57 0 min 0,000 mm 0,0 UV-I 0 W/m 9,5 C 9,9 C 16,1 km/h (3 Bft) 100,00 %
31.08.2016 06:06 12,8 C 81 % 1021,0 hPa 0,0 l/m 10,7 km/h (2 Bft) O-NO 61 0 min 0,000 mm 0,0 UV-I 0 W/m 9,6 C 10,3 C 14,5 km/h (3 Bft) 97,87 %
31.08.2016 06:08 12,7 C 81 % 1021,0 hPa 0,0 l/m 9,4 km/h (2 Bft) O-NO 57 0 min 0,000 mm 0,0 UV-I 0 W/m 9,5 C 10,9 C 12,9 km/h (3 Bft) 100,00 %
31.08.2016 06:10 12,8 C 81 % 1021,0 hPa 0,0 l/m 9,9 km/h (2 Bft) O-NO 77 0 min 0,000 mm 0,0 UV-I 0 W/m 9,6 C 10,7 C 17,7 km/h (3 Bft) 100,00 %
31.08.2016 06:12 12,8 C 81 % 1021,0 hPa 0,0 l/m 8,0 km/h (2 Bft) O-NO 74 0 min 0,000 mm 0,0 UV-I 0 W/m 9,6 C 11,8 C 12,9 km/h (3 Bft) 100,00 %
31.08.2016 06:14 12,8 C 81 % 1021,1 hPa 0,0 l/m 10,3 km/h (2 Bft) O-NO 57 0 min 0,000 mm 0,0 UV-I 0 W/m 9,6 C 10,5 C 16,1 km/h (3 Bft) 100,00 %
31.08.2016 06:16 12,8 C 81 % 1021,0 hPa 0,0 l/m 10,0 km/h (2 Bft) NO 38 0 min 0,000 mm 0,0 UV-I 0 W/m 9,6 C 10,7 C 14,5 km/h (3 Bft) 100,00 %
31.08.2016 06:18 12,7 C 81 % 1021,1 hPa 0,0 l/m 6,7 km/h (2 Bft) O 80 0 min 0,000 mm 0,0 UV-I 1 W/m 9,5 C 12,5 C 9,7 km/h (2 Bft) 97,87 %
31.08.2016 06:20 12,7 C 81 % 1021,1 hPa 0,0 l/m 8,5 km/h (2 Bft) O-NO 60 0 min 0,000 mm 0,0 UV-I 5 W/m 9,5 C 11,4 C 12,9 km/h (3 Bft) 100,00 %
31.08.2016 06:22 12,7 C 81 % 1021,1 hPa 0,0 l/m 6,9 km/h (2 Bft) NO 45 0 min 0,000 mm 0,0 UV-I 5 W/m 9,5 C 12,4 C 9,7 km/h (2 Bft) 97,87 %
31.08.2016 06:24 12,7 C 81 % 1021,1 hPa 0,0 l/m 7,7 km/h (2 Bft) O-NO 61 0 min 0,000 mm 0,0 UV-I 6 W/m 9,5 C 11,9 C 12,9 km/h (3 Bft) 100,00 %
31.08.2016 06:26 12,7 C 81 % 1021,1 hPa 0,0 l/m 9,3 km/h (2 Bft) NO 50 0 min 0,000 mm 0,0 UV-I 7 W/m 9,5 C 10,9 C 12,9 km/h (3 Bft) 100,00 %
31.08.2016 06:28 12,7 C 81 % 1021,1 hPa 0,0 l/m 8,2 km/h (2 Bft) O-NO 62 0 min 0,000 mm 0,0 UV-I 8 W/m 9,5 C 11,6 C 14,5 km/h (3 Bft) 100,00 %
31.08.2016 06:30 12,6 C 81 % 1021,0 hPa 0,0 l/m 9,0 km/h (2 Bft) O-NO 63 0 min 0,000 mm 0,0 UV-I 9 W/m 9,4 C 11,0 C 16,1 km/h (3 Bft) 97,87 %
31.08.2016 06:32 12,6 C 81 % 1021,0 hPa 0,0 l/m 7,1 km/h (2 Bft) O-NO 73 0 min 0,000 mm 0,0 UV-I 10 W/m 9,4 C 12,2 C 12,9 km/h (3 Bft) 100,00 %
31.08.2016 06:34 12,6 C 81 % 1020,9 hPa 0,0 l/m 7,1 km/h (2 Bft) O-NO 74 0 min 0,000 mm 0,0 UV-I 11 W/m 9,4 C 12,2 C 9,7 km/h (2 Bft) 100,00 %
31.08.2016 06:36 12,6 C 81 % 1021,0 hPa 0,0 l/m 8,2 km/h (2 Bft) NO 36 0 min 0,000 mm 0,0 UV-I 11 W/m 9,4 C 11,5 C 14,5 km/h (3 Bft) 97,87 %
31.08.2016 06:38 12,5 C 82 % 1021,1 hPa 0,0 l/m 7,0 km/h (2 Bft) O-NO 59 0 min 0,000 mm 0,0 UV-I 12 W/m 9,5 C 12,1 C 11,3 km/h (2 Bft) 100,00 %
31.08.2016 06:40 12,4 C 82 % 1021,0 hPa 0,0 l/m 6,5 km/h (2 Bft) NO 54 0 min 0,000 mm 0,0 UV-I 12 W/m 9,4 C 12,4 C 11,3 km/h (2 Bft) 100,00 %
31.08.2016 06:42 12,4 C 82 % 1021,1 hPa 0,0 l/m 5,7 km/h (1 Bft) N-NO 28 0 min 0,000 mm 0,0 UV-I 14 W/m 9,4 C 12,4 C 11,3 km/h (2 Bft) 100,00 %
31.08.2016 06:44 12,4 C 82 % 1021,1 hPa 0,0 l/m 7,5 km/h (2 Bft) O-NO 71 0 min 0,000 mm 0,0 UV-I 15 W/m 9,4 C 11,7 C 11,3 km/h (2 Bft) 100,00 %
31.08.2016 06:46 12,4 C 82 % 1021,1 hPa 0,0 l/m 6,3 km/h (2 Bft) O-NO 63 0 min 0,000 mm 0,0 UV-I 16 W/m 9,4 C 12,4 C 9,7 km/h (2 Bft) 100,00 %
31.08.2016 06:48 12,4 C 82 % 1021,1 hPa 0,0 l/m 6,2 km/h (2 Bft) O-NO 65 0 min 0,000 mm 0,0 UV-I 16 W/m 9,4 C 12,4 C 9,7 km/h (2 Bft) 97,87 %
31.08.2016 06:50 12,4 C 82 % 1021,1 hPa 0,0 l/m 6,9 km/h (2 Bft) O-NO 58 0 min 0,000 mm 0,0 UV-I 18 W/m 9,4 C 12,1 C 9,7 km/h (2 Bft) 100,00 %
31.08.2016 06:52 12,4 C 82 % 1021,1 hPa 0,0 l/m 7,1 km/h (2 Bft) NO 40 0 min 0,000 mm 0,0 UV-I 18 W/m 9,4 C 11,9 C 11,3 km/h (2 Bft) 100,00 %
31.08.2016 06:54 12,4 C 82 % 1021,1 hPa 0,0 l/m 6,1 km/h (2 Bft) O-NO 57 0 min 0,000 mm 0,0 UV-I 19 W/m 9,4 C 12,4 C 9,7 km/h (2 Bft) 97,87 %
31.08.2016 06:56 12,4 C 82 % 1021,1 hPa 0,0 l/m 6,7 km/h (2 Bft) NO 36 0 min 0,000 mm 0,0 UV-I 19 W/m 9,4 C 12,2 C 11,3 km/h (2 Bft) 97,87 %
31.08.2016 06:58 12,5 C 82 % 1021,1 hPa 0,0 l/m 10,1 km/h (2 Bft) NO 46 0 min 0,000 mm 0,0 UV-I 19 W/m 9,5 C 10,3 C 16,1 km/h (3 Bft) 100,00 %
31.08.2016 07:00 12,5 C 82 % 1021,1 hPa 0,0 l/m 7,3 km/h (2 Bft) NO 49 0 min 0,026 mm 0,0 UV-I 21 W/m 9,5 C 11,9 C 11,3 km/h (2 Bft) 97,87 %
31.08.2016 07:02 12,6 C 82 % 1021,1 hPa 0,0 l/m 9,1 km/h (2 Bft) NO 47 0 min 0,000 mm 0,0 UV-I 21 W/m 9,6 C 10,9 C 16,1 km/h (3 Bft) 96,08 %
31.08.2016 07:04 12,6 C 82 % 1021,1 hPa 0,0 l/m 9,7 km/h (2 Bft) NO 54 0 min 0,000 mm 0,0 UV-I 21 W/m 9,6 C 10,6 C 14,5 km/h (3 Bft) 97,37 %
31.08.2016 07:06 12,6 C 82 % 1021,1 hPa 0,0 l/m 8,9 km/h (2 Bft) NO 44 0 min 0,000 mm 0,0 UV-I 23 W/m 9,6 C 11,1 C 14,5 km/h (3 Bft) 100,00 %
31.08.2016 07:08 12,6 C 81 % 1021,0 hPa 0,0 l/m 10,6 km/h (2 Bft) O-NO 69 0 min 0,000 mm 0,0 UV-I 23 W/m 9,4 C 10,2 C 14,5 km/h (3 Bft) 100,00 %
31.08.2016 07:10 12,7 C 81 % 1021,0 hPa 0,0 l/m 14,2 km/h (3 Bft) O-NO 66 0 min 0,000 mm 0,0 UV-I 23 W/m 9,5 C 8,7 C 19,3 km/h (3 Bft) 97,87 %
31.08.2016 07:12 12,7 C 80 % 1021,0 hPa 0,0 l/m 10,1 km/h (2 Bft) O-NO 65 0 min 0,000 mm 0,0 UV-I 25 W/m 9,3 C 10,5 C 16,1 km/h (3 Bft) 98,00 %
31.08.2016 07:14 12,8 C 80 % 1021,0 hPa 0,0 l/m 12,7 km/h (3 Bft) O-NO 60 0 min 0,000 mm 0,0 UV-I 25 W/m 9,4 C 9,4 C 20,9 km/h (4 Bft) 97,96 %
31.08.2016 07:16 12,8 C 80 % 1021,0 hPa 0,0 l/m 11,7 km/h (2 Bft) O-NO 57 0 min 0,000 mm 0,0 UV-I 25 W/m 9,4 C 9,9 C 17,7 km/h (3 Bft) 97,44 %
31.08.2016 07:18 12,9 C 80 % 1021,0 hPa 0,0 l/m 12,4 km/h (3 Bft) NO 51 0 min 0,000 mm 0,0 UV-I 26 W/m 9,5 C 9,7 C 17,7 km/h (3 Bft) 98,00 %
31.08.2016 07:20 12,9 C 80 % 1021,0 hPa 0,0 l/m 9,9 km/h (2 Bft) NO 44 0 min 0,000 mm 0,0 UV-I 32 W/m 9,5 C 10,8 C 17,7 km/h (3 Bft) 95,74 %
31.08.2016 07:22 12,9 C 80 % 1021,0 hPa 0,0 l/m 12,8 km/h (3 Bft) NO 49 0 min 0,000 mm 0,0 UV-I 66 W/m 9,5 C 9,5 C 20,9 km/h (4 Bft) 97,87 %
31.08.2016 07:24 13,0 C 80 % 1021,0 hPa 0,0 l/m 11,5 km/h (2 Bft) NO 47 0 min 0,000 mm 0,0 UV-I 84 W/m 9,6 C 10,2 C 19,3 km/h (3 Bft) 97,87 %
31.08.2016 07:26 13,1 C 80 % 1021,0 hPa 0,0 l/m 10,8 km/h (2 Bft) NO 52 0 min 0,000 mm 0,0 UV-I 87 W/m 9,7 C 10,6 C 16,1 km/h (3 Bft) 97,87 %
31.08.2016 07:28 13,1 C 80 % 1021,0 hPa 0,0 l/m 11,7 km/h (2 Bft) O-NO 64 0 min 0,000 mm 0,0 UV-I 90 W/m 9,7 C 10,2 C 17,7 km/h (3 Bft) 97,87 %
31.08.2016 07:30 13,2 C 79 % 1021,1 hPa 0,0 l/m 11,0 km/h (2 Bft) NO 46 0 min 0,000 mm 0,0 UV-I 92 W/m 9,6 C 10,6 C 22,5 km/h (4 Bft) 98,00 %
31.08.2016 07:32 13,2 C 79 % 1021,1 hPa 0,0 l/m 10,0 km/h (2 Bft) NO 55 0 min 0,000 mm 0,0 UV-I 95 W/m 9,6 C 11,1 C 14,5 km/h (3 Bft) 97,87 %
31.08.2016 07:34 13,3 C 79 % 1021,1 hPa 0,0 l/m 8,5 km/h (2 Bft) NO 51 0 min 0,000 mm 0,0 UV-I 98 W/m 9,7 C 12,0 C 20,9 km/h (4 Bft) 95,74 %
31.08.2016 07:36 13,3 C 79 % 1021,1 hPa 0,0 l/m 10,7 km/h (2 Bft) NO 53 0 min 0,000 mm 0,0 UV-I 101 W/m 9,7 C 10,9 C 17,7 km/h (3 Bft) 93,62 %
31.08.2016 07:38 13,4 C 79 % 1021,0 hPa 0,0 l/m 8,9 km/h (2 Bft) NO 54 0 min 0,000 mm 0,0 UV-I 106 W/m 9,8 C 11,9 C 16,1 km/h (3 Bft) 97,87 %
31.08.2016 07:40 13,4 C 79 % 1021,0 hPa 0,0 l/m 11,3 km/h (2 Bft) O-NO 57 0 min 0,000 mm 0,0 UV-I 114 W/m 9,8 C 10,7 C 19,3 km/h (3 Bft) 97,87 %
31.08.2016 07:42 13,5 C 78 % 1020,9 hPa 0,0 l/m 8,9 km/h (2 Bft) NO 49 2 min 0,000 mm 0,0 UV-I 122 W/m 9,7 C 12,0 C 14,5 km/h (3 Bft) 97,92 %
31.08.2016 07:44 13,6 C 78 % 1020,9 hPa 0,0 l/m 12,2 km/h (2 Bft) O-NO 69 2 min 0,000 mm 0,0 UV-I 132 W/m 9,8 C 10,6 C 19,3 km/h (3 Bft) 97,30 %
31.08.2016 07:46 13,6 C 78 % 1020,9 hPa 0,0 l/m 11,1 km/h (2 Bft) NO 54 2 min 0,000 mm 0,0 UV-I 142 W/m 9,8 C 11,1 C 19,3 km/h (3 Bft) 97,87 %
31.08.2016 07:48 13,7 C 77 % 1020,9 hPa 0,0 l/m 14,7 km/h (3 Bft) NO 51 2 min 0,000 mm 0,0 UV-I 151 W/m 9,7 C 9,7 C 20,9 km/h (4 Bft) 97,87 %
31.08.2016 07:50 13,8 C 76 % 1020,9 hPa 0,0 l/m 15,5 km/h (3 Bft) NO 52 2 min 0,000 mm 0,0 UV-I 163 W/m 9,6 C 9,6 C 22,5 km/h (4 Bft) 100,00 %
31.08.2016 07:52 13,8 C 76 % 1020,9 hPa 0,0 l/m 12,5 km/h (3 Bft) O-NO 67 2 min 0,000 mm 0,0 UV-I 171 W/m 9,6 C 10,7 C 19,3 km/h (3 Bft) 100,00 %
31.08.2016 07:54 13,9 C 76 % 1020,9 hPa 0,0 l/m 12,6 km/h (3 Bft) NO 48 2 min 0,000 mm 0,0 UV-I 177 W/m 9,7 C 10,8 C 17,7 km/h (3 Bft) 97,87 %
31.08.2016 07:56 13,9 C 76 % 1020,8 hPa 0,0 l/m 9,1 km/h (2 Bft) NO 53 2 min 0,000 mm 0,0 UV-I 182 W/m 9,7 C 12,4 C 19,3 km/h (3 Bft) 100,00 %
31.08.2016 07:58 14,1 C 76 % 1020,8 hPa 0,0 l/m 13,4 km/h (3 Bft) NO 49 2 min 0,000 mm 0,0 UV-I 186 W/m 9,9 C 10,7 C 19,3 km/h (3 Bft) 97,87 %
31.08.2016 08:00 14,1 C 75 % 1020,8 hPa 0,0 l/m 13,3 km/h (3 Bft) NO 46 2 min 0,076 mm 0,0 UV-I 190 W/m 9,7 C 10,7 C 19,3 km/h (3 Bft) 100,00 %
31.08.2016 08:02 14,2 C 75 % 1020,7 hPa 0,0 l/m 11,4 km/h (2 Bft) O 83 2 min 0,000 mm 0,0 UV-I 193 W/m 9,8 C 11,6 C 16,1 km/h (3 Bft) 100,00 %
31.08.2016 08:04 14,3 C 75 % 1020,8 hPa 0,0 l/m 13,0 km/h (3 Bft) NO 55 2 min 0,000 mm 0,1 UV-I 194 W/m 9,9 C 11,1 C 19,3 km/h (3 Bft) 100,00 %
31.08.2016 08:06 14,3 C 74 % 1020,8 hPa 0,0 l/m 13,7 km/h (3 Bft) O-NO 69 2 min 0,000 mm 0,5 UV-I 195 W/m 9,7 C 10,8 C 22,5 km/h (4 Bft) 100,00 %
31.08.2016 08:08 14,4 C 73 % 1020,8 hPa 0,0 l/m 19,5 km/h (3 Bft) O 81 2 min 0,000 mm 0,5 UV-I 194 W/m 9,6 C 9,1 C 25,7 km/h (4 Bft) 100,00 %
31.08.2016 08:10 14,4 C 73 % 1020,8 hPa 0,0 l/m 15,9 km/h (3 Bft) O-NO 70 2 min 0,000 mm 0,5 UV-I 193 W/m 9,6 C 10,2 C 24,1 km/h (4 Bft) 100,00 %
31.08.2016 08:12 14,6 C 72 % 1020,8 hPa 0,0 l/m 21,1 km/h (4 Bft) NO 42 2 min 0,000 mm 0,5 UV-I 195 W/m 9,6 C 9,0 C 27,4 km/h (4 Bft) 100,00 %
31.08.2016 08:14 14,6 C 72 % 1020,8 hPa 0,0 l/m 16,1 km/h (3 Bft) O 84 2 min 0,000 mm 0,5 UV-I 198 W/m 9,6 C 10,3 C 27,4 km/h (4 Bft) 100,00 %
31.08.2016 08:16 14,7 C 72 % 1020,8 hPa 0,0 l/m 16,5 km/h (3 Bft) O-NO 70 2 min 0,000 mm 0,6 UV-I 201 W/m 9,7 C 10,3 C 22,5 km/h (4 Bft) 100,00 %
31.08.2016 08:18 14,7 C 71 % 1020,8 hPa 0,0 l/m 21,8 km/h (4 Bft) O-NO 63 2 min 0,000 mm 0,6 UV-I 203 W/m 9,5 C 8,9 C 29,0 km/h (5 Bft) 100,00 %
31.08.2016 08:20 14,8 C 71 % 1020,8 hPa 0,0 l/m 16,3 km/h (3 Bft) NO 50 2 min 0,000 mm 0,6 UV-I 198 W/m 9,6 C 10,5 C 24,1 km/h (4 Bft) 97,87 %
31.08.2016 08:22 14,9 C 71 % 1020,8 hPa 0,0 l/m 17,4 km/h (3 Bft) O-NO 57 2 min 0,000 mm 0,6 UV-I 192 W/m 9,7 C 10,3 C 24,1 km/h (4 Bft) 100,00 %
31.08.2016 08:24 14,9 C 71 % 1020,8 hPa 0,0 l/m 16,6 km/h (3 Bft) O-NO 57 2 min 0,000 mm 0,7 UV-I 188 W/m 9,7 C 10,6 C 20,9 km/h (4 Bft) 95,74 %
31.08.2016 08:26 15,0 C 71 % 1020,8 hPa 0,0 l/m 17,9 km/h (3 Bft) O 79 0 min 0,000 mm 0,7 UV-I 185 W/m 9,8 C 10,3 C 24,1 km/h (4 Bft) 97,87 %
31.08.2016 08:28 15,1 C 71 % 1020,8 hPa 0,0 l/m 18,0 km/h (3 Bft) O-NO 63 0 min 0,000 mm 0,7 UV-I 185 W/m 9,9 C 10,4 C 24,1 km/h (4 Bft) 96,23 %
31.08.2016 08:30 15,2 C 71 % 1020,7 hPa 0,0 l/m 16,4 km/h (3 Bft) O-NO 58 0 min 0,000 mm 0,7 UV-I 188 W/m 10,0 C 11,0 C 25,7 km/h (4 Bft) 100,00 %
31.08.2016 08:32 15,2 C 70 % 1020,7 hPa 0,0 l/m 16,9 km/h (3 Bft) O-NO 60 2 min 0,000 mm 0,8 UV-I 199 W/m 9,8 C 10,8 C 24,1 km/h (4 Bft) 100,00 %
31.08.2016 08:34 15,3 C 70 % 1020,7 hPa 0,0 l/m 19,6 km/h (3 Bft) NO 34 2 min 0,000 mm 0,8 UV-I 214 W/m 9,9 C 10,2 C 27,4 km/h (4 Bft) 97,87 %
31.08.2016 08:36 15,3 C 69 % 1020,8 hPa 0,0 l/m 18,8 km/h (3 Bft) O-NO 78 2 min 0,000 mm 0,8 UV-I 231 W/m 9,6 C 10,4 C 29,0 km/h (5 Bft) 100,00 %
31.08.2016 08:38 15,3 C 68 % 1020,8 hPa 0,0 l/m 19,0 km/h (3 Bft) O 86 2 min 0,000 mm 0,8 UV-I 249 W/m 9,4 C 10,4 C 25,7 km/h (4 Bft) 100,00 %
31.08.2016 08:40 15,4 C 69 % 1020,8 hPa 0,0 l/m 17,7 km/h (3 Bft) O-NO 61 2 min 0,000 mm 0,9 UV-I 265 W/m 9,7 C 10,9 C 29,0 km/h (5 Bft) 100,00 %
31.08.2016 08:42 15,4 C 68 % 1020,8 hPa 0,0 l/m 18,3 km/h (3 Bft) O-NO 61 2 min 0,000 mm 0,9 UV-I 281 W/m 9,5 C 10,7 C 24,1 km/h (4 Bft) 100,00 %
31.08.2016 08:44 15,5 C 69 % 1020,8 hPa 0,0 l/m 20,7 km/h (4 Bft) O-NO 59 2 min 0,000 mm 0,9 UV-I 293 W/m 9,8 C 10,2 C 33,8 km/h (5 Bft) 100,00 %
31.08.2016 08:46 15,6 C 68 % 1020,9 hPa 0,0 l/m 21,0 km/h (4 Bft) NO 51 2 min 0,000 mm 1,0 UV-I 304 W/m 9,7 C 10,3 C 30,6 km/h (5 Bft) 100,00 %
31.08.2016 08:48 15,6 C 68 % 1020,8 hPa 0,0 l/m 23,0 km/h (4 Bft) O-NO 67 2 min 0,000 mm 1,0 UV-I 315 W/m 9,7 C 9,8 C 33,8 km/h (5 Bft) 100,00 %
31.08.2016 08:50 15,6 C 67 % 1020,8 hPa 0,0 l/m 23,9 km/h (4 Bft) O-NO 69 2 min 0,000 mm 1,0 UV-I 326 W/m 9,5 C 9,6 C 35,4 km/h (5 Bft) 97,87 %
31.08.2016 08:52 15,6 C 68 % 1020,8 hPa 0,0 l/m 19,2 km/h (3 Bft) O 86 2 min 0,000 mm 1,1 UV-I 336 W/m 9,7 C 10,7 C 27,4 km/h (4 Bft) 100,00 %
31.08.2016 08:54 15,7 C 68 % 1020,9 hPa 0,0 l/m 24,1 km/h (4 Bft) O-NO 64 2 min 0,000 mm 1,1 UV-I 346 W/m 9,8 C 9,7 C 30,6 km/h (5 Bft) 98,00 %
31.08.2016 08:56 15,7 C 67 % 1020,9 hPa 0,0 l/m 21,8 km/h (4 Bft) O-NO 71 2 min 0,000 mm 1,1 UV-I 353 W/m 9,6 C 10,2 C 30,6 km/h (5 Bft) 100,00 %
31.08.2016 08:58 15,7 C 68 % 1020,8 hPa 0,0 l/m 17,8 km/h (3 Bft) O-NO 69 2 min 0,000 mm 1,2 UV-I 359 W/m 9,8 C 11,2 C 24,1 km/h (4 Bft) 97,87 %
31.08.2016 09:00 15,8 C 67 % 1020,8 hPa 0,0 l/m 21,0 km/h (4 Bft) O-NO 67 2 min 0,203 mm 1,2 UV-I 365 W/m 9,7 C 10,5 C 29,0 km/h (5 Bft) 100,00 %
31.08.2016 09:02 15,8 C 67 % 1020,8 hPa 0,0 l/m 17,3 km/h (3 Bft) O-NO 59 2 min 0,000 mm 1,2 UV-I 371 W/m 9,7 C 11,5 C 25,7 km/h (4 Bft) 97,87 %
31.08.2016 09:04 15,9 C 67 % 1020,7 hPa 0,0 l/m 22,3 km/h (4 Bft) O-NO 78 2 min 0,000 mm 1,3 UV-I 376 W/m 9,8 C 10,4 C 32,2 km/h (5 Bft) 100,00 %
31.08.2016 09:06 15,9 C 67 % 1020,7 hPa 0,0 l/m 17,0 km/h (3 Bft) O 85 2 min 0,000 mm 1,3 UV-I 380 W/m 9,8 C 11,7 C 27,4 km/h (4 Bft) 100,00 %
31.08.2016 09:08 16,0 C 68 % 1020,7 hPa 0,0 l/m 21,2 km/h (4 Bft) O-NO 78 2 min 0,000 mm 1,3 UV-I 386 W/m 10,1 C 10,8 C 29,0 km/h (5 Bft) 97,87 %
31.08.2016 09:10 16,1 C 66 % 1020,7 hPa 0,0 l/m 19,2 km/h (3 Bft) O 83 2 min 0,000 mm 1,3 UV-I 392 W/m 9,7 C 11,4 C 29,0 km/h (5 Bft) 95,74 %
31.08.2016 09:12 16,1 C 66 % 1020,8 hPa 0,0 l/m 19,2 km/h (3 Bft) O-NO 65 2 min 0,000 mm 1,4 UV-I 398 W/m 9,7 C 11,4 C 24,1 km/h (4 Bft) 93,62 %
31.08.2016 09:14 16,2 C 66 % 1020,8 hPa 0,0 l/m 19,3 km/h (3 Bft) O-NO 76 2 min 0,000 mm 1,4 UV-I 403 W/m 9,8 C 11,5 C 27,4 km/h (4 Bft) 95,74 %
31.08.2016 09:16 16,2 C 67 % 1020,8 hPa 0,0 l/m 16,6 km/h (3 Bft) O-NO 69 2 min 0,000 mm 1,4 UV-I 408 W/m 10,1 C 12,2 C 22,5 km/h (4 Bft) 97,22 %
31.08.2016 09:18 16,3 C 65 % 1020,7 hPa 0,0 l/m 19,9 km/h (4 Bft) NO 51 2 min 0,000 mm 1,5 UV-I 413 W/m 9,7 C 11,4 C 25,7 km/h (4 Bft) 98,00 %
31.08.2016 09:20 16,3 C 66 % 1020,8 hPa 0,0 l/m 17,1 km/h (3 Bft) O-NO 64 2 min 0,000 mm 1,5 UV-I 418 W/m 9,9 C 12,2 C 22,5 km/h (4 Bft) 95,74 %
31.08.2016 09:22 16,4 C 65 % 1020,8 hPa 0,0 l/m 21,1 km/h (4 Bft) O-NO 74 2 min 0,000 mm 1,6 UV-I 424 W/m 9,8 C 11,3 C 29,0 km/h (5 Bft) 93,62 %
31.08.2016 09:24 16,4 C 66 % 1020,8 hPa 0,0 l/m 21,6 km/h (4 Bft) O-NO 59 2 min 0,000 mm 1,6 UV-I 430 W/m 10,0 C 11,2 C 29,0 km/h (5 Bft) 98,11 %
31.08.2016 09:26 16,5 C 65 % 1020,8 hPa 0,0 l/m 19,2 km/h (3 Bft) N-NO 28 2 min 0,000 mm 1,6 UV-I 435 W/m 9,9 C 11,9 C 27,4 km/h (4 Bft) 97,87 %
31.08.2016 09:28 16,6 C 65 % 1020,8 hPa 0,0 l/m 18,7 km/h (3 Bft) NO 52 2 min 0,000 mm 1,7 UV-I 441 W/m 10,0 C 12,1 C 27,4 km/h (4 Bft) 97,87 %
31.08.2016 09:30 16,7 C 65 % 1020,8 hPa 0,0 l/m 17,6 km/h (3 Bft) NO 56 2 min 0,000 mm 1,7 UV-I 446 W/m 10,1 C 12,5 C 25,7 km/h (4 Bft) 97,37 %
31.08.2016 09:32 16,7 C 64 % 1020,9 hPa 0,0 l/m 20,7 km/h (4 Bft) O-NO 63 2 min 0,000 mm 1,8 UV-I 451 W/m 9,9 C 11,8 C 25,7 km/h (4 Bft) 98,00 %
31.08.2016 09:34 16,7 C 65 % 1020,9 hPa 0,0 l/m 19,2 km/h (3 Bft) O-NO 65 2 min 0,000 mm 1,8 UV-I 456 W/m 10,1 C 12,1 C 27,4 km/h (4 Bft) 97,87 %
31.08.2016 09:36 16,8 C 65 % 1020,9 hPa 0,0 l/m 16,1 km/h (3 Bft) O-NO 78 2 min 0,000 mm 1,8 UV-I 462 W/m 10,2 C 13,1 C 22,5 km/h (4 Bft) 95,74 %
31.08.2016 09:38 16,9 C 65 % 1020,8 hPa 0,0 l/m 15,3 km/h (3 Bft) O-NO 69 2 min 0,000 mm 1,9 UV-I 467 W/m 10,3 C 13,4 C 22,5 km/h (4 Bft) 95,74 %
31.08.2016 09:40 17,1 C 64 % 1020,8 hPa 0,0 l/m 17,8 km/h (3 Bft) O-NO 63 2 min 0,000 mm 1,9 UV-I 472 W/m 10,2 C 13,0 C 24,1 km/h (4 Bft) 97,87 %
31.08.2016 09:42 17,2 C 65 % 1020,8 hPa 0,0 l/m 15,3 km/h (3 Bft) O-NO 74 2 min 0,000 mm 2,0 UV-I 477 W/m 10,6 C 13,8 C 29,0 km/h (5 Bft) 100,00 %
31.08.2016 09:44 17,2 C 63 % 1020,8 hPa 0,0 l/m 19,0 km/h (3 Bft) O-NO 61 2 min 0,000 mm 2,0 UV-I 482 W/m 10,1 C 12,8 C 24,1 km/h (4 Bft) 100,00 %
31.08.2016 09:46 17,2 C 63 % 1020,8 hPa 0,0 l/m 18,2 km/h (3 Bft) NO 42 2 min 0,000 mm 2,0 UV-I 486 W/m 10,1 C 13,0 C 25,7 km/h (4 Bft) 97,87 %
31.08.2016 09:48 17,3 C 64 % 1020,8 hPa 0,0 l/m 16,0 km/h (3 Bft) O-NO 60 2 min 0,000 mm 2,1 UV-I 491 W/m 10,4 C 13,7 C 29,0 km/h (5 Bft) 100,00 %
31.08.2016 09:50 17,4 C 63 % 1020,8 hPa 0,0 l/m 18,3 km/h (3 Bft) O-NO 72 2 min 0,000 mm 2,1 UV-I 496 W/m 10,3 C 13,2 C 25,7 km/h (4 Bft) 97,87 %
31.08.2016 09:52 17,4 C 61 % 1020,7 hPa 0,0 l/m 20,1 km/h (4 Bft) NO 45 2 min 0,000 mm 2,2 UV-I 502 W/m 9,8 C 12,8 C 27,4 km/h (4 Bft) 100,00 %
31.08.2016 09:54 17,4 C 62 % 1020,7 hPa 0,0 l/m 21,0 km/h (4 Bft) O-NO 78 2 min 0,000 mm 2,2 UV-I 507 W/m 10,0 C 12,6 C 27,4 km/h (4 Bft) 97,87 %
31.08.2016 09:56 17,4 C 62 % 1020,7 hPa 0,0 l/m 19,2 km/h (3 Bft) O-NO 76 2 min 0,000 mm 2,2 UV-I 513 W/m 10,0 C 13,0 C 24,1 km/h (4 Bft) 100,00 %
31.08.2016 09:58 17,6 C 63 % 1020,7 hPa 0,0 l/m 14,9 km/h (3 Bft) O-NO 77 2 min 0,000 mm 2,3 UV-I 517 W/m 10,5 C 14,4 C 20,9 km/h (4 Bft) 100,00 %
31.08.2016 10:00 17,6 C 62 % 1020,7 hPa 0,0 l/m 15,5 km/h (3 Bft) O 86 2 min 0,330 mm 2,3 UV-I 522 W/m 10,2 C 14,2 C 20,9 km/h (4 Bft) 97,37 %
31.08.2016 10:02 17,7 C 62 % 1020,7 hPa 0,0 l/m 14,5 km/h (3 Bft) O-NO 58 2 min 0,000 mm 2,4 UV-I 527 W/m 10,3 C 14,6 C 20,9 km/h (4 Bft) 100,00 %
31.08.2016 10:04 17,8 C 62 % 1020,7 hPa 0,0 l/m 16,3 km/h (3 Bft) O-NO 68 2 min 0,000 mm 2,4 UV-I 531 W/m 10,4 C 14,2 C 24,1 km/h (4 Bft) 100,00 %
31.08.2016 10:06 17,9 C 60 % 1020,7 hPa 0,0 l/m 16,8 km/h (3 Bft) O-NO 74 2 min 0,000 mm 2,5 UV-I 535 W/m 10,0 C 14,2 C 24,1 km/h (4 Bft) 100,00 %
31.08.2016 10:08 18,0 C 62 % 1020,7 hPa 0,0 l/m 18,0 km/h (3 Bft) NO 53 2 min 0,000 mm 2,5 UV-I 538 W/m 10,6 C 14,1 C 27,4 km/h (4 Bft) 96,00 %
31.08.2016 10:10 18,2 C 60 % 1020,7 hPa 0,0 l/m 17,6 km/h (3 Bft) NO 34 2 min 0,000 mm 2,6 UV-I 544 W/m 10,3 C 14,4 C 25,7 km/h (4 Bft) 97,87 %
31.08.2016 10:12 18,2 C 60 % 1020,7 hPa 0,0 l/m 17,1 km/h (3 Bft) O-NO 63 2 min 0,000 mm 2,6 UV-I 549 W/m 10,3 C 14,5 C 22,5 km/h (4 Bft) 97,87 %
31.08.2016 10:14 18,3 C 61 % 1020,7 hPa 0,0 l/m 13,5 km/h (3 Bft) NO 41 2 min 0,000 mm 2,7 UV-I 554 W/m 10,6 C 15,6 C 17,7 km/h (3 Bft) 100,00 %
31.08.2016 10:16 18,3 C 59 % 1020,7 hPa 0,0 l/m 19,1 km/h (3 Bft) O 83 2 min 0,000 mm 2,7 UV-I 558 W/m 10,1 C 14,2 C 25,7 km/h (4 Bft) 97,87 %
31.08.2016 10:18 18,4 C 60 % 1020,7 hPa 0,0 l/m 16,9 km/h (3 Bft) NO 44 2 min 0,000 mm 2,8 UV-I 563 W/m 10,5 C 14,8 C 22,5 km/h (4 Bft) 100,00 %
31.08.2016 10:20 18,4 C 60 % 1020,7 hPa 0,0 l/m 18,3 km/h (3 Bft) NO 55 2 min 0,000 mm 2,8 UV-I 568 W/m 10,5 C 14,5 C 25,7 km/h (4 Bft) 97,87 %
31.08.2016 10:22 18,5 C 60 % 1020,6 hPa 0,0 l/m 16,1 km/h (3 Bft) O-NO 57 2 min 0,000 mm 2,9 UV-I 572 W/m 10,6 C 15,1 C 24,1 km/h (4 Bft) 100,00 %
31.08.2016 10:24 18,7 C 61 % 1020,6 hPa 0,0 l/m 15,2 km/h (3 Bft) O-NO 57 2 min 0,000 mm 2,9 UV-I 576 W/m 11,0 C 15,6 C 25,7 km/h (4 Bft) 100,00 %
31.08.2016 10:26 18,8 C 58 % 1020,6 hPa 0,0 l/m 14,4 km/h (3 Bft) NO 53 2 min 0,000 mm 3,0 UV-I 580 W/m 10,4 C 16,0 C 22,5 km/h (4 Bft) 100,00 %
31.08.2016 10:28 18,9 C 58 % 1020,7 hPa 0,0 l/m 15,5 km/h (3 Bft) O-NO 67 2 min 0,000 mm 3,0 UV-I 585 W/m 10,5 C 15,8 C 22,5 km/h (4 Bft) 100,00 %
31.08.2016 10:30 18,9 C 56 % 1020,7 hPa 0,0 l/m 21,3 km/h (4 Bft) NO 50 2 min 0,000 mm 3,1 UV-I 590 W/m 9,9 C 14,5 C 30,6 km/h (5 Bft) 100,00 %
31.08.2016 10:32 19,0 C 56 % 1020,7 hPa 0,0 l/m 18,9 km/h (3 Bft) NO 44 2 min 0,000 mm 3,1 UV-I 592 W/m 10,0 C 15,1 C 32,2 km/h (5 Bft) 97,87 %
31.08.2016 10:34 18,9 C 57 % 1020,7 hPa 0,0 l/m 20,0 km/h (4 Bft) O 90 2 min 0,000 mm 3,1 UV-I 597 W/m 10,2 C 14,8 C 29,0 km/h (5 Bft) 97,92 %
31.08.2016 10:36 18,9 C 56 % 1020,6 hPa 0,0 l/m 23,1 km/h (4 Bft) O-NO 60 2 min 0,000 mm 3,2 UV-I 600 W/m 9,9 C 14,2 C 33,8 km/h (5 Bft) 100,00 %
31.08.2016 10:38 18,9 C 57 % 1020,7 hPa 0,0 l/m 21,7 km/h (4 Bft) NO 40 2 min 0,000 mm 3,2 UV-I 604 W/m 10,2 C 14,5 C 30,6 km/h (5 Bft) 97,87 %
31.08.2016 10:40 19,0 C 56 % 1020,7 hPa 0,0 l/m 20,2 km/h (4 Bft) O 80 2 min 0,000 mm 3,2 UV-I 608 W/m 10,0 C 14,9 C 25,7 km/h (4 Bft) 100,00 %
31.08.2016 10:42 19,0 C 58 % 1020,7 hPa 0,0 l/m 18,6 km/h (3 Bft) O-NO 63 2 min 0,000 mm 3,3 UV-I 613 W/m 10,5 C 15,2 C 25,7 km/h (4 Bft) 100,00 %
31.08.2016 10:44 19,2 C 59 % 1020,7 hPa 0,0 l/m 12,9 km/h (3 Bft) NO 38 2 min 0,000 mm 3,3 UV-I 617 W/m 11,0 C 16,8 C 20,9 km/h (4 Bft) 100,00 %
31.08.2016 10:46 19,4 C 57 % 1020,7 hPa 0,0 l/m 19,4 km/h (3 Bft) O 80 2 min 0,000 mm 3,4 UV-I 621 W/m 10,7 C 15,5 C 27,4 km/h (4 Bft) 97,87 %
31.08.2016 10:48 19,4 C 55 % 1020,7 hPa 0,0 l/m 25,4 km/h (4 Bft) O 85 2 min 0,000 mm 3,4 UV-I 624 W/m 10,1 C 14,5 C 32,2 km/h (5 Bft) 100,00 %
31.08.2016 10:50 19,4 C 55 % 1020,7 hPa 0,0 l/m 23,7 km/h (4 Bft) O 94 2 min 0,000 mm 3,5 UV-I 628 W/m 10,1 C 14,8 C 33,8 km/h (5 Bft) 100,00 %
31.08.2016 10:52 19,3 C 55 % 1020,7 hPa 0,0 l/m 25,2 km/h (4 Bft) O 87 2 min 0,000 mm 3,5 UV-I 630 W/m 10,0 C 14,4 C 37,0 km/h (5 Bft) 100,00 %
31.08.2016 10:54 19,3 C 55 % 1020,7 hPa 0,0 l/m 19,1 km/h (3 Bft) O-NO 59 2 min 0,000 mm 3,6 UV-I 635 W/m 10,0 C 15,5 C 25,7 km/h (4 Bft) 97,87 %
31.08.2016 10:56 19,3 C 55 % 1020,7 hPa 0,0 l/m 23,1 km/h (4 Bft) O-NO 67 2 min 0,000 mm 3,6 UV-I 638 W/m 10,0 C 14,7 C 35,4 km/h (5 Bft) 100,00 %
31.08.2016 10:58 19,4 C 56 % 1020,6 hPa 0,0 l/m 18,6 km/h (3 Bft) O-NO 69 2 min 0,000 mm 3,6 UV-I 641 W/m 10,4 C 15,7 C 25,7 km/h (4 Bft) 100,00 %
31.08.2016 11:00 19,6 C 56 % 1020,6 hPa 0,0 l/m 19,7 km/h (3 Bft) O-NO 76 2 min 0,432 mm 3,7 UV-I 645 W/m 10,6 C 15,7 C 30,6 km/h (5 Bft) 97,87 %
31.08.2016 11:02 19,8 C 57 % 1020,6 hPa 0,0 l/m 16,1 km/h (3 Bft) O 92 2 min 0,000 mm 3,7 UV-I 649 W/m 11,0 C 16,7 C 24,1 km/h (4 Bft) 96,00 %
31.08.2016 11:04 19,9 C 54 % 1020,6 hPa 0,0 l/m 20,3 km/h (4 Bft) O-NO 65 2 min 0,000 mm 3,8 UV-I 651 W/m 10,3 C 16,0 C 29,0 km/h (5 Bft) 97,87 %
31.08.2016 11:06 19,9 C 55 % 1020,6 hPa 0,0 l/m 21,0 km/h (4 Bft) O-NO 67 2 min 0,000 mm 3,8 UV-I 655 W/m 10,6 C 15,9 C 29,0 km/h (5 Bft) 97,87 %
31.08.2016 11:08 19,9 C 55 % 1020,6 hPa 0,0 l/m 20,3 km/h (4 Bft) O-NO 75 2 min 0,000 mm 3,9 UV-I 659 W/m 10,6 C 16,0 C 29,0 km/h (5 Bft) 97,87 %
31.08.2016 11:10 19,9 C 55 % 1020,6 hPa 0,0 l/m 18,4 km/h (3 Bft) O-NO 68 2 min 0,000 mm 3,9 UV-I 663 W/m 10,6 C 16,4 C 27,4 km/h (4 Bft) 97,44 %
31.08.2016 11:12 20,0 C 54 % 1020,6 hPa 0,0 l/m 22,4 km/h (4 Bft) NO 45 2 min 0,000 mm 3,9 UV-I 665 W/m 10,4 C 15,8 C 37,0 km/h (5 Bft) 98,08 %
31.08.2016 11:14 20,1 C 54 % 1020,7 hPa 0,0 l/m 20,2 km/h (4 Bft) NO 36 2 min 0,000 mm 4,0 UV-I 668 W/m 10,5 C 16,3 C 29,0 km/h (5 Bft) 97,92 %
31.08.2016 11:16 20,1 C 54 % 1020,6 hPa 0,0 l/m 22,6 km/h (4 Bft) NO 46 2 min 0,000 mm 4,0 UV-I 672 W/m 10,5 C 15,9 C 30,6 km/h (5 Bft) 95,74 %
31.08.2016 11:18 20,1 C 55 % 1020,6 hPa 0,0 l/m 21,3 km/h (4 Bft) O-NO 64 2 min 0,000 mm 4,0 UV-I 675 W/m 10,8 C 16,1 C 27,4 km/h (4 Bft) 97,87 %
31.08.2016 11:20 20,1 C 54 % 1020,5 hPa 0,0 l/m 21,4 km/h (4 Bft) NO 41 2 min 0,000 mm 4,1 UV-I 679 W/m 10,5 C 16,1 C 27,4 km/h (4 Bft) 97,37 %
31.08.2016 11:22 20,1 C 55 % 1020,5 hPa 0,0 l/m 18,8 km/h (3 Bft) O-NO 73 2 min 0,000 mm 4,1 UV-I 681 W/m 10,8 C 16,6 C 25,7 km/h (4 Bft) 96,00 %
31.08.2016 11:24 20,2 C 55 % 1020,6 hPa 0,0 l/m 18,8 km/h (3 Bft) O-NO 73 2 min 0,000 mm 4,2 UV-I 685 W/m 10,9 C 16,7 C 30,6 km/h (5 Bft) 97,87 %
31.08.2016 11:26 20,3 C 54 % 1020,5 hPa 0,0 l/m 20,9 km/h (4 Bft) NO 55 2 min 0,000 mm 4,2 UV-I 687 W/m 10,7 C 16,4 C 27,4 km/h (4 Bft) 97,87 %
31.08.2016 11:28 20,3 C 54 % 1020,6 hPa 0,0 l/m 20,9 km/h (4 Bft) O-NO 58 2 min 0,000 mm 4,2 UV-I 690 W/m 10,7 C 16,4 C 27,4 km/h (4 Bft) 97,87 %
31.08.2016 11:30 20,3 C 55 % 1020,5 hPa 0,0 l/m 19,9 km/h (4 Bft) O 97 2 min 0,000 mm 4,3 UV-I 693 W/m 11,0 C 16,6 C 29,0 km/h (5 Bft) 97,87 %
31.08.2016 11:32 20,4 C 54 % 1020,5 hPa 0,0 l/m 20,1 km/h (4 Bft) O-NO 69 2 min 0,000 mm 4,3 UV-I 696 W/m 10,8 C 16,7 C 30,6 km/h (5 Bft) 100,00 %
31.08.2016 11:34 20,4 C 54 % 1020,5 hPa 0,0 l/m 20,2 km/h (4 Bft) NO 53 2 min 0,000 mm 4,3 UV-I 697 W/m 10,8 C 16,7 C 29,0 km/h (5 Bft) 100,00 %
31.08.2016 11:36 20,6 C 54 % 1020,5 hPa 0,0 l/m 18,9 km/h (3 Bft) O-NO 59 2 min 0,000 mm 4,4 UV-I 700 W/m 11,0 C 17,2 C 27,4 km/h (4 Bft) 100,00 %
31.08.2016 11:38 20,6 C 54 % 1020,5 hPa 0,0 l/m 21,2 km/h (4 Bft) O-NO 61 2 min 0,000 mm 4,4 UV-I 702 W/m 11,0 C 16,8 C 29,0 km/h (5 Bft) 100,00 %
31.08.2016 11:40 20,6 C 53 % 1020,5 hPa 0,0 l/m 20,8 km/h (4 Bft) O-NO 65 2 min 0,000 mm 4,5 UV-I 705 W/m 10,7 C 16,8 C 27,4 km/h (4 Bft) 97,87 %
31.08.2016 11:42 20,7 C 55 % 1020,4 hPa 0,0 l/m 17,2 km/h (3 Bft) O-NO 72 2 min 0,000 mm 4,5 UV-I 709 W/m 11,3 C 17,6 C 27,4 km/h (4 Bft) 100,00 %
31.08.2016 11:44 20,8 C 56 % 1020,4 hPa 0,0 l/m 20,1 km/h (4 Bft) O 95 2 min 0,000 mm 4,5 UV-I 711 W/m 11,7 C 17,2 C 27,4 km/h (4 Bft) 100,00 %
31.08.2016 11:46 20,9 C 55 % 1020,4 hPa 0,0 l/m 13,4 km/h (3 Bft) NO 53 2 min 0,000 mm 4,5 UV-I 713 W/m 11,5 C 18,7 C 22,5 km/h (4 Bft) 100,00 %
31.08.2016 11:48 21,2 C 55 % 1020,4 hPa 0,0 l/m 17,2 km/h (3 Bft) O 84 2 min 0,000 mm 4,6 UV-I 714 W/m 11,8 C 18,3 C 27,4 km/h (4 Bft) 100,00 %
31.08.2016 11:50 21,2 C 53 % 1020,4 hPa 0,0 l/m 17,9 km/h (3 Bft) NO 40 2 min 0,000 mm 4,6 UV-I 718 W/m 11,2 C 18,1 C 27,4 km/h (4 Bft) 100,00 %
31.08.2016 11:52 21,2 C 52 % 1020,3 hPa 0,0 l/m 21,7 km/h (4 Bft) NO 49 2 min 0,000 mm 4,6 UV-I 720 W/m 10,9 C 17,5 C 29,0 km/h (5 Bft) 100,00 %
31.08.2016 11:54 21,1 C 52 % 1020,3 hPa 0,0 l/m 23,9 km/h (4 Bft) O-NO 72 2 min 0,000 mm 4,7 UV-I 723 W/m 10,9 C 17,0 C 30,6 km/h (5 Bft) 100,00 %
31.08.2016 11:56 21,0 C 53 % 1020,2 hPa 0,0 l/m 21,9 km/h (4 Bft) O 95 2 min 0,000 mm 4,7 UV-I 724 W/m 11,0 C 17,2 C 33,8 km/h (5 Bft) 100,00 %
31.08.2016 11:58 21,1 C 55 % 1020,2 hPa 0,0 l/m 19,5 km/h (3 Bft) O-NO 60 2 min 0,000 mm 4,7 UV-I 726 W/m 11,7 C 17,7 C 27,4 km/h (4 Bft) 100,00 %
31.08.2016 12:00 21,2 C 53 % 1020,2 hPa 0,0 l/m 20,4 km/h (4 Bft) NO 51 2 min 0,534 mm 4,8 UV-I 729 W/m 11,2 C 17,7 C 29,0 km/h (5 Bft) 100,00 %
31.08.2016 12:02 21,2 C 53 % 1020,2 hPa 0,0 l/m 19,7 km/h (3 Bft) O-NO 76 2 min 0,000 mm 4,8 UV-I 731 W/m 11,2 C 17,8 C 30,6 km/h (5 Bft) 100,00 %
31.08.2016 12:04 21,2 C 54 % 1020,3 hPa 0,0 l/m 14,6 km/h (3 Bft) O-NO 57 2 min 0,000 mm 4,8 UV-I 733 W/m 11,5 C 18,8 C 29,0 km/h (5 Bft) 100,00 %
31.08.2016 12:06 21,4 C 54 % 1020,2 hPa 0,0 l/m 15,6 km/h (3 Bft) O-NO 66 2 min 0,000 mm 4,8 UV-I 734 W/m 11,7 C 18,8 C 24,1 km/h (4 Bft) 100,00 %
31.08.2016 12:08 21,5 C 53 % 1020,2 hPa 0,0 l/m 20,0 km/h (4 Bft) NO 56 2 min 0,000 mm 4,9 UV-I 737 W/m 11,5 C 18,1 C 27,4 km/h (4 Bft) 100,00 %
31.08.2016 12:10 21,5 C 53 % 1020,1 hPa 0,0 l/m 19,2 km/h (3 Bft) O-NO 62 2 min 0,000 mm 4,9 UV-I 738 W/m 11,5 C 18,3 C 33,8 km/h (5 Bft) 94,74 %
31.08.2016 12:12 21,4 C 52 % 1020,2 hPa 0,0 l/m 20,6 km/h (4 Bft) O-NO 62 2 min 0,000 mm 4,9 UV-I 740 W/m 11,1 C 17,9 C 29,0 km/h (5 Bft) 100,00 %
31.08.2016 12:14 21,4 C 54 % 1020,2 hPa 0,0 l/m 16,3 km/h (3 Bft) O 80 2 min 0,000 mm 4,9 UV-I 741 W/m 11,7 C 18,7 C 27,4 km/h (4 Bft) 100,00 %
31.08.2016 12:16 21,5 C 53 % 1020,3 hPa 0,0 l/m 22,7 km/h (4 Bft) O-SO 109 2 min 0,000 mm 4,9 UV-I 742 W/m 11,5 C 17,7 C 30,6 km/h (5 Bft) 100,00 %
31.08.2016 12:18 21,4 C 54 % 1020,3 hPa 0,0 l/m 21,1 km/h (4 Bft) O-NO 69 2 min 0,000 mm 4,9 UV-I 744 W/m 11,7 C 17,8 C 30,6 km/h (5 Bft) 100,00 %
31.08.2016 12:20 21,5 C 53 % 1020,3 hPa 0,0 l/m 22,5 km/h (4 Bft) NO 38 2 min 0,000 mm 5,0 UV-I 745 W/m 11,5 C 17,8 C 30,6 km/h (5 Bft) 100,00 %
31.08.2016 12:22 21,6 C 53 % 1020,2 hPa 0,0 l/m 21,1 km/h (4 Bft) O-NO 73 2 min 0,000 mm 5,0 UV-I 747 W/m 11,6 C 18,1 C 30,6 km/h (5 Bft) 100,00 %
31.08.2016 12:24 21,6 C 53 % 1020,1 hPa 0,0 l/m 21,5 km/h (4 Bft) O-NO 71 2 min 0,000 mm 5,0 UV-I 749 W/m 11,6 C 18,0 C 29,0 km/h (5 Bft) 100,00 %
31.08.2016 12:26 21,7 C 54 % 1020,1 hPa 0,0 l/m 19,8 km/h (3 Bft) O-NO 71 2 min 0,000 mm 5,0 UV-I 750 W/m 12,0 C 18,4 C 25,7 km/h (4 Bft) 100,00 %
31.08.2016 12:28 21,8 C 52 % 1020,1 hPa 0,0 l/m 23,4 km/h (4 Bft) O-NO 69 2 min 0,000 mm 5,0 UV-I 751 W/m 11,5 C 18,0 C 29,0 km/h (5 Bft) 100,00 %
31.08.2016 12:30 21,8 C 52 % 1020,1 hPa 0,0 l/m 22,3 km/h (4 Bft) O-NO 62 2 min 0,000 mm 5,0 UV-I 752 W/m 11,5 C 18,2 C 29,0 km/h (5 Bft) 100,00 %
31.08.2016 12:32 21,8 C 53 % 1020,1 hPa 0,0 l/m 22,3 km/h (4 Bft) O-NO 74 2 min 0,000 mm 5,1 UV-I 752 W/m 11,8 C 18,2 C 32,2 km/h (5 Bft) 100,00 %
31.08.2016 12:34 21,8 C 52 % 1020,1 hPa 0,0 l/m 21,7 km/h (4 Bft) O-NO 59 2 min 0,000 mm 5,1 UV-I 753 W/m 11,5 C 18,3 C 30,6 km/h (5 Bft) 100,00 %
31.08.2016 12:36 21,8 C 53 % 1020,1 hPa 0,0 l/m 22,1 km/h (4 Bft) O 85 2 min 0,000 mm 5,1 UV-I 754 W/m 11,8 C 18,2 C 32,2 km/h (5 Bft) 100,00 %
31.08.2016 12:38 22,0 C 53 % 1020,1 hPa 0,0 l/m 22,3 km/h (4 Bft) O-NO 71 2 min 0,000 mm 5,1 UV-I 753 W/m 12,0 C 18,5 C 32,2 km/h (5 Bft) 100,00 %
31.08.2016 12:40 22,0 C 52 % 1020,1 hPa 0,0 l/m 17,2 km/h (3 Bft) O-NO 74 2 min 0,000 mm 5,1 UV-I 757 W/m 11,7 C 19,3 C 27,4 km/h (4 Bft) 100,00 %
31.08.2016 12:42 22,1 C 52 % 1020,1 hPa 0,0 l/m 21,1 km/h (4 Bft) O-NO 69 2 min 0,000 mm 5,1 UV-I 758 W/m 11,8 C 18,8 C 29,0 km/h (5 Bft) 100,00 %
31.08.2016 12:44 22,1 C 52 % 1020,0 hPa 0,0 l/m 19,1 km/h (3 Bft) NO 43 2 min 0,000 mm 5,1 UV-I 758 W/m 11,8 C 19,1 C 30,6 km/h (5 Bft) 97,87 %
31.08.2016 12:46 22,2 C 53 % 1020,0 hPa 0,0 l/m 18,5 km/h (3 Bft) O-NO 68 2 min 0,000 mm 5,1 UV-I 758 W/m 12,2 C 19,3 C 27,4 km/h (4 Bft) 97,87 %
31.08.2016 12:48 22,2 C 52 % 1020,0 hPa 0,0 l/m 22,4 km/h (4 Bft) O-NO 66 2 min 0,000 mm 5,1 UV-I 759 W/m 11,9 C 18,7 C 32,2 km/h (5 Bft) 100,00 %
31.08.2016 12:50 22,3 C 53 % 1020,0 hPa 0,0 l/m 16,2 km/h (3 Bft) O-SO 113 2 min 0,000 mm 5,1 UV-I 760 W/m 12,2 C 19,8 C 22,5 km/h (4 Bft) 96,00 %
31.08.2016 12:52 22,4 C 52 % 1020,0 hPa 0,0 l/m 12,4 km/h (3 Bft) NO 39 2 min 0,000 mm 5,1 UV-I 759 W/m 12,1 C 20,7 C 20,9 km/h (4 Bft) 98,00 %
31.08.2016 12:54 22,5 C 54 % 1020,0 hPa 0,0 l/m 18,4 km/h (3 Bft) N-NO 31 2 min 0,000 mm 5,1 UV-I 760 W/m 12,7 C 19,7 C 22,5 km/h (4 Bft) 97,87 %
31.08.2016 12:56 22,6 C 54 % 1020,0 hPa 0,0 l/m 18,2 km/h (3 Bft) O-NO 74 2 min 0,000 mm 5,1 UV-I 759 W/m 12,8 C 19,8 C 30,6 km/h (5 Bft) 95,74 %
31.08.2016 12:58 22,7 C 50 % 1020,0 hPa 0,0 l/m 18,7 km/h (3 Bft) NO 56 2 min 0,000 mm 5,1 UV-I 761 W/m 11,7 C 19,9 C 25,7 km/h (4 Bft) 95,74 %
31.08.2016 13:00 22,7 C 53 % 1020,0 hPa 0,0 l/m 17,9 km/h (3 Bft) NO 44 2 min 0,584 mm 5,1 UV-I 762 W/m 12,6 C 20,0 C 24,1 km/h (4 Bft) 95,74 %
31.08.2016 13:02 22,7 C 51 % 1020,0 hPa 0,0 l/m 17,5 km/h (3 Bft) O-NO 61 2 min 0,000 mm 5,1 UV-I 763 W/m 12,0 C 20,1 C 24,1 km/h (4 Bft) 94,44 %
31.08.2016 13:04 22,6 C 50 % 1020,0 hPa 0,0 l/m 21,2 km/h (4 Bft) O-NO 60 2 min 0,000 mm 5,1 UV-I 763 W/m 11,6 C 19,4 C 27,4 km/h (4 Bft) 95,83 %
31.08.2016 13:06 22,7 C 53 % 1020,0 hPa 0,0 l/m 17,7 km/h (3 Bft) O-NO 67 2 min 0,000 mm 5,1 UV-I 762 W/m 12,6 C 20,0 C 29,0 km/h (5 Bft) 97,87 %
31.08.2016 13:08 22,7 C 50 % 1020,0 hPa 0,0 l/m 18,9 km/h (3 Bft) O-NO 67 2 min 0,000 mm 5,1 UV-I 761 W/m 11,7 C 19,9 C 29,0 km/h (5 Bft) 97,14 %
31.08.2016 13:10 22,7 C 52 % 1019,9 hPa 0,0 l/m 13,6 km/h (3 Bft) NO 49 2 min 0,000 mm 5,2 UV-I 763 W/m 12,3 C 20,8 C 20,9 km/h (4 Bft) 95,16 %
31.08.2016 13:12 22,8 C 51 % 1019,9 hPa 0,0 l/m 17,0 km/h (3 Bft) O-NO 71 2 min 0,000 mm 5,2 UV-I 763 W/m 12,1 C 20,3 C 22,5 km/h (4 Bft) 97,87 %
31.08.2016 13:14 22,9 C 50 % 1019,9 hPa 0,0 l/m 18,4 km/h (3 Bft) O-NO 66 2 min 0,000 mm 5,2 UV-I 763 W/m 11,9 C 20,2 C 25,7 km/h (4 Bft) 97,87 %
31.08.2016 13:16 22,8 C 51 % 1019,9 hPa 0,0 l/m 17,3 km/h (3 Bft) NO 38 2 min 0,000 mm 5,2 UV-I 765 W/m 12,1 C 20,2 C 24,1 km/h (4 Bft) 95,74 %
31.08.2016 13:18 22,9 C 51 % 1019,9 hPa 0,0 l/m 18,0 km/h (3 Bft) O-NO 67 2 min 0,000 mm 5,2 UV-I 764 W/m 12,2 C 20,3 C 24,1 km/h (4 Bft) 93,62 %
31.08.2016 13:20 23,0 C 51 % 1019,9 hPa 0,0 l/m 16,6 km/h (3 Bft) O-NO 67 2 min 0,000 mm 5,2 UV-I 763 W/m 12,3 C 20,6 C 22,5 km/h (4 Bft) 97,87 %
31.08.2016 13:22 23,1 C 50 % 1019,9 hPa 0,0 l/m 17,3 km/h (3 Bft) O-NO 57 2 min 0,000 mm 5,2 UV-I 764 W/m 12,1 C 20,6 C 27,4 km/h (4 Bft) 100,00 %
31.08.2016 13:24 23,0 C 52 % 1019,9 hPa 0,0 l/m 18,1 km/h (3 Bft) O-NO 62 2 min 0,000 mm 5,1 UV-I 762 W/m 12,6 C 20,4 C 25,7 km/h (4 Bft) 100,00 %
31.08.2016 13:26 23,0 C 50 % 1020,0 hPa 0,0 l/m 14,7 km/h (3 Bft) O-NO 66 2 min 0,000 mm 5,1 UV-I 761 W/m 12,0 C 20,9 C 22,5 km/h (4 Bft) 100,00 %
31.08.2016 13:28 23,1 C 52 % 1019,9 hPa 0,0 l/m 16,4 km/h (3 Bft) NO 52 2 min 0,000 mm 5,1 UV-I 759 W/m 12,7 C 20,8 C 22,5 km/h (4 Bft) 97,87 %
31.08.2016 13:30 23,2 C 51 % 1019,9 hPa 0,0 l/m 14,7 km/h (3 Bft) O-NO 74 2 min 0,000 mm 5,1 UV-I 759 W/m 12,5 C 21,2 C 19,3 km/h (3 Bft) 100,00 %
31.08.2016 13:32 23,2 C 52 % 1019,9 hPa 0,0 l/m 19,2 km/h (3 Bft) O-NO 64 2 min 0,000 mm 5,1 UV-I 759 W/m 12,8 C 20,5 C 25,7 km/h (4 Bft) 97,87 %
31.08.2016 13:34 23,1 C 49 % 1019,9 hPa 0,0 l/m 19,5 km/h (3 Bft) NO 46 2 min 0,000 mm 5,1 UV-I 759 W/m 11,8 C 20,3 C 29,0 km/h (5 Bft) 100,00 %
31.08.2016 13:36 23,1 C 50 % 1019,9 hPa 0,0 l/m 15,3 km/h (3 Bft) NO 42 2 min 0,000 mm 5,1 UV-I 758 W/m 12,1 C 21,0 C 19,3 km/h (3 Bft) 98,00 %
31.08.2016 13:38 23,1 C 49 % 1019,9 hPa 0,0 l/m 19,1 km/h (3 Bft) NO 36 2 min 0,000 mm 5,1 UV-I 758 W/m 11,8 C 20,3 C 25,7 km/h (4 Bft) 97,37 %
31.08.2016 13:40 23,1 C 52 % 1019,8 hPa 0,0 l/m 14,8 km/h (3 Bft) N-NO 23 2 min 0,000 mm 5,0 UV-I 758 W/m 12,7 C 21,0 C 20,9 km/h (4 Bft) 97,87 %
31.08.2016 13:42 23,3 C 51 % 1019,8 hPa 0,0 l/m 14,1 km/h (3 Bft) O-NO 57 2 min 0,000 mm 5,0 UV-I 757 W/m 12,6 C 21,4 C 22,5 km/h (4 Bft) 95,74 %
31.08.2016 13:44 23,4 C 51 % 1019,8 hPa 0,0 l/m 15,4 km/h (3 Bft) NO 41 2 min 0,000 mm 5,0 UV-I 756 W/m 12,7 C 21,3 C 29,0 km/h (5 Bft) 100,00 %
31.08.2016 13:46 23,6 C 52 % 1019,8 hPa 0,0 l/m 19,7 km/h (3 Bft) NO 55 2 min 0,000 mm 5,0 UV-I 754 W/m 13,2 C 20,9 C 25,7 km/h (4 Bft) 100,00 %
31.08.2016 13:48 23,6 C 50 % 1019,8 hPa 0,0 l/m 18,2 km/h (3 Bft) NO 43 2 min 0,000 mm 5,0 UV-I 753 W/m 12,6 C 21,1 C 25,7 km/h (4 Bft) 93,62 %
31.08.2016 13:50 23,6 C 51 % 1019,7 hPa 0,0 l/m 21,1 km/h (4 Bft) NO 52 2 min 0,000 mm 5,0 UV-I 752 W/m 12,9 C 20,7 C 27,4 km/h (4 Bft) 97,87 %
31.08.2016 13:52 23,6 C 49 % 1019,8 hPa 0,0 l/m 15,1 km/h (3 Bft) NO 34 2 min 0,000 mm 5,0 UV-I 751 W/m 12,2 C 21,6 C 24,1 km/h (4 Bft) 98,00 %
31.08.2016 13:54 23,7 C 52 % 1019,8 hPa 0,0 l/m 17,4 km/h (3 Bft) NO 39 2 min 0,000 mm 4,9 UV-I 750 W/m 13,2 C 21,4 C 22,5 km/h (4 Bft) 100,00 %
31.08.2016 13:56 23,7 C 48 % 1019,8 hPa 0,0 l/m 19,0 km/h (3 Bft) NO 50 2 min 0,000 mm 4,9 UV-I 748 W/m 12,0 C 21,1 C 25,7 km/h (4 Bft) 97,87 %
31.08.2016 13:58 23,6 C 49 % 1019,7 hPa 0,0 l/m 18,6 km/h (3 Bft) O-NO 64 2 min 0,000 mm 4,9 UV-I 749 W/m 12,2 C 21,0 C 24,1 km/h (4 Bft) 100,00 %
31.08.2016 14:00 23,5 C 49 % 1019,6 hPa 0,0 l/m 14,6 km/h (3 Bft) NO 53 2 min 0,584 mm 4,9 UV-I 747 W/m 12,2 C 21,6 C 20,9 km/h (4 Bft) 100,00 %
31.08.2016 14:02 23,6 C 50 % 1019,6 hPa 0,0 l/m 14,4 km/h (3 Bft) N-NO 26 2 min 0,000 mm 4,9 UV-I 745 W/m 12,6 C 21,7 C 20,9 km/h (4 Bft) 97,87 %
31.08.2016 14:04 23,7 C 49 % 1019,6 hPa 0,0 l/m 18,0 km/h (3 Bft) NO 38 2 min 0,000 mm 4,8 UV-I 743 W/m 12,3 C 21,3 C 25,7 km/h (4 Bft) 97,87 %
31.08.2016 14:06 23,7 C 50 % 1019,6 hPa 0,0 l/m 16,5 km/h (3 Bft) O 82 2 min 0,000 mm 4,8 UV-I 742 W/m 12,6 C 21,5 C 24,1 km/h (4 Bft) 100,00 %
31.08.2016 14:08 23,8 C 49 % 1019,6 hPa 0,0 l/m 17,7 km/h (3 Bft) NO 40 2 min 0,000 mm 4,8 UV-I 740 W/m 12,4 C 21,4 C 22,5 km/h (4 Bft) 100,00 %
31.08.2016 14:10 23,7 C 49 % 1019,5 hPa 0,0 l/m 14,3 km/h (3 Bft) O-NO 57 2 min 0,000 mm 4,8 UV-I 738 W/m 12,3 C 21,9 C 20,9 km/h (4 Bft) 100,00 %
31.08.2016 14:12 23,8 C 50 % 1019,5 hPa 0,0 l/m 17,3 km/h (3 Bft) N-NO 25 2 min 0,000 mm 4,7 UV-I 737 W/m 12,7 C 21,5 C 25,7 km/h (4 Bft) 97,87 %
31.08.2016 14:14 23,8 C 49 % 1019,5 hPa 0,0 l/m 18,8 km/h (3 Bft) O-NO 73 2 min 0,000 mm 4,7 UV-I 736 W/m 12,4 C 21,3 C 29,0 km/h (5 Bft) 100,00 %
31.08.2016 14:16 23,8 C 47 % 1019,5 hPa 0,0 l/m 18,9 km/h (3 Bft) NO 55 2 min 0,000 mm 4,7 UV-I 734 W/m 11,8 C 21,3 C 27,4 km/h (4 Bft) 100,00 %
31.08.2016 14:18 23,8 C 47 % 1019,5 hPa 0,0 l/m 18,2 km/h (3 Bft) O-NO 78 2 min 0,000 mm 4,6 UV-I 732 W/m 11,8 C 21,4 C 25,7 km/h (4 Bft) 100,00 %
31.08.2016 14:20 23,8 C 47 % 1019,5 hPa 0,0 l/m 20,8 km/h (4 Bft) O 81 2 min 0,000 mm 4,6 UV-I 730 W/m 11,8 C 21,0 C 27,4 km/h (4 Bft) 100,00 %
31.08.2016 14:22 23,8 C 48 % 1019,5 hPa 0,0 l/m 16,1 km/h (3 Bft) O 89 2 min 0,000 mm 4,6 UV-I 728 W/m 12,1 C 21,7 C 24,1 km/h (4 Bft) 98,39 %
31.08.2016 14:24 23,8 C 49 % 1019,4 hPa 0,0 l/m 16,3 km/h (3 Bft) O-NO 69 2 min 0,000 mm 4,5 UV-I 726 W/m 12,4 C 21,6 C 25,7 km/h (4 Bft) 100,00 %
31.08.2016 14:26 23,9 C 48 % 1019,4 hPa 0,0 l/m 18,0 km/h (3 Bft) O-NO 72 2 min 0,000 mm 4,5 UV-I 725 W/m 12,2 C 21,5 C 24,1 km/h (4 Bft) 97,87 %
31.08.2016 14:28 23,8 C 48 % 1019,4 hPa 0,0 l/m 17,4 km/h (3 Bft) O-NO 70 2 min 0,000 mm 4,5 UV-I 722 W/m 12,1 C 21,5 C 27,4 km/h (4 Bft) 100,00 %
31.08.2016 14:30 23,9 C 47 % 1019,4 hPa 0,0 l/m 16,8 km/h (3 Bft) NO 43 2 min 0,000 mm 4,5 UV-I 721 W/m 11,9 C 21,7 C 25,7 km/h (4 Bft) 97,87 %
31.08.2016 14:32 23,9 C 47 % 1019,3 hPa 0,0 l/m 20,9 km/h (4 Bft) O-NO 70 2 min 0,000 mm 4,4 UV-I 719 W/m 11,9 C 21,1 C 25,7 km/h (4 Bft) 100,00 %
31.08.2016 14:34 23,9 C 48 % 1019,3 hPa 0,0 l/m 18,2 km/h (3 Bft) O 81 2 min 0,000 mm 4,4 UV-I 716 W/m 12,2 C 21,5 C 25,7 km/h (4 Bft) 97,87 %
31.08.2016 14:36 23,9 C 47 % 1019,3 hPa 0,0 l/m 13,5 km/h (3 Bft) O-NO 67 2 min 0,000 mm 4,3 UV-I 714 W/m 11,9 C 22,2 C 17,7 km/h (3 Bft) 95,74 %
31.08.2016 14:38 24,0 C 48 % 1019,3 hPa 0,0 l/m 19,5 km/h (3 Bft) NO 46 2 min 0,000 mm 4,3 UV-I 711 W/m 12,3 C 21,4 C 24,1 km/h (4 Bft) 100,00 %
31.08.2016 14:40 23,9 C 47 % 1019,3 hPa 0,0 l/m 16,5 km/h (3 Bft) NO 44 2 min 0,000 mm 4,3 UV-I 709 W/m 11,9 C 21,7 C 22,5 km/h (4 Bft) 100,00 %
31.08.2016 14:42 23,9 C 49 % 1019,2 hPa 0,0 l/m 12,2 km/h (2 Bft) NO 50 2 min 0,000 mm 4,2 UV-I 706 W/m 12,5 C 22,5 C 19,3 km/h (3 Bft) 97,87 %
31.08.2016 14:44 24,1 C 48 % 1019,2 hPa 0,0 l/m 17,7 km/h (3 Bft) O-NO 58 2 min 0,000 mm 4,2 UV-I 702 W/m 12,4 C 21,8 C 24,1 km/h (4 Bft) 97,87 %
31.08.2016 14:46 24,1 C 46 % 1019,2 hPa 0,0 l/m 18,8 km/h (3 Bft) NO 51 2 min 0,000 mm 4,2 UV-I 700 W/m 11,7 C 21,7 C 24,1 km/h (4 Bft) 96,00 %
31.08.2016 14:48 24,1 C 48 % 1019,2 hPa 0,0 l/m 14,1 km/h (3 Bft) O-NO 69 2 min 0,000 mm 4,1 UV-I 697 W/m 12,4 C 22,4 C 19,3 km/h (3 Bft) 95,74 %
31.08.2016 14:50 24,1 C 49 % 1019,1 hPa 0,0 l/m 15,5 km/h (3 Bft) NO 47 2 min 0,000 mm 4,1 UV-I 694 W/m 12,7 C 22,1 C 22,5 km/h (4 Bft) 97,87 %
31.08.2016 14:52 24,2 C 49 % 1019,1 hPa 0,0 l/m 15,9 km/h (3 Bft) NO 51 2 min 0,000 mm 4,1 UV-I 692 W/m 12,8 C 22,2 C 25,7 km/h (4 Bft) 97,87 %
31.08.2016 14:54 24,3 C 48 % 1019,1 hPa 0,0 l/m 14,3 km/h (3 Bft) NO 35 2 min 0,000 mm 4,0 UV-I 689 W/m 12,6 C 22,6 C 25,7 km/h (4 Bft) 97,87 %
31.08.2016 14:56 24,4 C 50 % 1019,1 hPa 0,0 l/m 12,6 km/h (3 Bft) O 83 2 min 0,000 mm 4,0 UV-I 686 W/m 13,3 C 23,0 C 19,3 km/h (3 Bft) 93,62 %
31.08.2016 14:58 24,5 C 46 % 1019,1 hPa 0,0 l/m 16,8 km/h (3 Bft) O-NO 65 2 min 0,000 mm 4,0 UV-I 682 W/m 12,1 C 22,4 C 20,9 km/h (4 Bft) 97,87 %
31.08.2016 15:00 24,4 C 48 % 1019,1 hPa 0,0 l/m 14,1 km/h (3 Bft) O-NO 59 2 min 0,559 mm 3,9 UV-I 680 W/m 12,7 C 22,7 C 22,5 km/h (4 Bft) 95,74 %
31.08.2016 15:02 24,4 C 47 % 1019,1 hPa 0,0 l/m 14,3 km/h (3 Bft) O-NO 60 2 min 0,000 mm 3,9 UV-I 677 W/m 12,3 C 22,7 C 24,1 km/h (4 Bft) 95,74 %
31.08.2016 15:04 24,4 C 47 % 1019,1 hPa 0,0 l/m 13,1 km/h (3 Bft) NO 55 2 min 0,000 mm 3,8 UV-I 674 W/m 12,3 C 22,9 C 17,7 km/h (3 Bft) 93,62 %
31.08.2016 15:06 24,4 C 48 % 1018,9 hPa 0,0 l/m 11,6 km/h (2 Bft) NO 55 2 min 0,000 mm 3,8 UV-I 670 W/m 12,7 C 23,2 C 19,3 km/h (3 Bft) 97,44 %
31.08.2016 15:08 24,5 C 47 % 1018,9 hPa 0,0 l/m 17,2 km/h (3 Bft) NO 35 2 min 0,000 mm 3,8 UV-I 666 W/m 12,4 C 22,4 C 22,5 km/h (4 Bft) 93,62 %
31.08.2016 15:10 24,5 C 47 % 1018,9 hPa 0,0 l/m 12,6 km/h (3 Bft) NO 36 2 min 0,000 mm 3,7 UV-I 664 W/m 12,4 C 23,1 C 19,3 km/h (3 Bft) 97,87 %
31.08.2016 15:12 24,6 C 47 % 1018,8 hPa 0,0 l/m 14,8 km/h (3 Bft) NO 45 2 min 0,000 mm 3,7 UV-I 661 W/m 12,5 C 22,9 C 20,9 km/h (4 Bft) 97,96 %
31.08.2016 15:14 24,7 C 47 % 1018,9 hPa 0,0 l/m 15,6 km/h (3 Bft) O-NO 61 2 min 0,000 mm 3,6 UV-I 657 W/m 12,6 C 22,9 C 20,9 km/h (4 Bft) 97,87 %
31.08.2016 15:16 24,6 C 47 % 1018,8 hPa 0,0 l/m 17,1 km/h (3 Bft) NO 34 2 min 0,000 mm 3,6 UV-I 653 W/m 12,5 C 22,5 C 20,9 km/h (4 Bft) 95,74 %
31.08.2016 15:18 24,6 C 50 % 1018,8 hPa 0,0 l/m 12,0 km/h (2 Bft) NO 44 2 min 0,000 mm 3,5 UV-I 650 W/m 13,5 C 23,3 C 19,3 km/h (3 Bft) 98,11 %
31.08.2016 15:20 24,9 C 48 % 1018,9 hPa 0,0 l/m 10,5 km/h (2 Bft) NO 42 2 min 0,000 mm 3,5 UV-I 647 W/m 13,1 C 24,0 C 17,7 km/h (3 Bft) 100,00 %
31.08.2016 15:22 24,9 C 46 % 1018,8 hPa 0,0 l/m 12,9 km/h (3 Bft) O-NO 66 2 min 0,000 mm 3,5 UV-I 644 W/m 12,5 C 23,5 C 20,9 km/h (4 Bft) 100,00 %
31.08.2016 15:24 24,9 C 45 % 1018,9 hPa 0,0 l/m 17,1 km/h (3 Bft) O-NO 63 2 min 0,000 mm 3,4 UV-I 639 W/m 12,1 C 22,9 C 24,1 km/h (4 Bft) 100,00 %
31.08.2016 15:26 24,7 C 45 % 1018,8 hPa 0,0 l/m 11,0 km/h (2 Bft) O 79 2 min 0,000 mm 3,4 UV-I 636 W/m 12,0 C 23,6 C 20,9 km/h (4 Bft) 100,00 %
31.08.2016 15:28 24,7 C 46 % 1018,7 hPa 0,0 l/m 13,4 km/h (3 Bft) O-NO 65 2 min 0,000 mm 3,3 UV-I 631 W/m 12,3 C 23,2 C 19,3 km/h (3 Bft) 100,00 %
31.08.2016 15:30 24,7 C 47 % 1018,7 hPa 0,0 l/m 8,5 km/h (2 Bft) NO 42 2 min 0,000 mm 3,3 UV-I 628 W/m 12,6 C 24,2 C 14,5 km/h (3 Bft) 97,96 %
31.08.2016 15:32 24,8 C 47 % 1018,7 hPa 0,0 l/m 15,1 km/h (3 Bft) NO 42 2 min 0,000 mm 3,3 UV-I 624 W/m 12,7 C 23,1 C 22,5 km/h (4 Bft) 100,00 %
31.08.2016 15:34 24,8 C 46 % 1018,7 hPa 0,0 l/m 16,1 km/h (3 Bft) O-NO 59 2 min 0,000 mm 3,2 UV-I 620 W/m 12,4 C 22,9 C 22,5 km/h (4 Bft) 95,74 %
31.08.2016 15:36 24,8 C 46 % 1018,7 hPa 0,0 l/m 15,1 km/h (3 Bft) NO 55 2 min 0,000 mm 3,1 UV-I 617 W/m 12,4 C 23,1 C 22,5 km/h (4 Bft) 100,00 %
31.08.2016 15:38 24,7 C 46 % 1018,7 hPa 0,0 l/m 11,0 km/h (2 Bft) O 88 2 min 0,000 mm 3,1 UV-I 613 W/m 12,3 C 23,6 C 19,3 km/h (3 Bft) 100,00 %
31.08.2016 15:40 24,7 C 46 % 1018,7 hPa 0,0 l/m 15,5 km/h (3 Bft) O-NO 77 2 min 0,000 mm 3,1 UV-I 607 W/m 12,3 C 22,9 C 22,5 km/h (4 Bft) 100,00 %
31.08.2016 15:42 24,7 C 47 % 1018,7 hPa 0,0 l/m 16,8 km/h (3 Bft) O 84 2 min 0,000 mm 3,0 UV-I 603 W/m 12,6 C 22,7 C 24,1 km/h (4 Bft) 100,00 %
31.08.2016 15:44 24,7 C 46 % 1018,7 hPa 0,0 l/m 16,3 km/h (3 Bft) O 81 2 min 0,000 mm 3,0 UV-I 600 W/m 12,3 C 22,8 C 22,5 km/h (4 Bft) 97,87 %
31.08.2016 15:46 24,7 C 47 % 1018,7 hPa 0,0 l/m 11,9 km/h (2 Bft) O-NO 71 2 min 0,000 mm 2,9 UV-I 596 W/m 12,6 C 23,5 C 19,3 km/h (3 Bft) 97,87 %
31.08.2016 15:48 24,8 C 48 % 1018,6 hPa 0,0 l/m 15,8 km/h (3 Bft) NO 55 2 min 0,000 mm 2,9 UV-I 591 W/m 13,0 C 22,9 C 20,9 km/h (4 Bft) 100,00 %
31.08.2016 15:50 24,8 C 47 % 1018,6 hPa 0,0 l/m 10,4 km/h (2 Bft) N-NO 30 2 min 0,000 mm 2,9 UV-I 588 W/m 12,7 C 23,9 C 16,1 km/h (3 Bft) 95,74 %
31.08.2016 15:52 25,1 C 48 % 1018,6 hPa 0,0 l/m 13,8 km/h (3 Bft) O 96 2 min 0,000 mm 2,8 UV-I 584 W/m 13,3 C 23,6 C 20,9 km/h (4 Bft) 97,87 %
31.08.2016 15:54 25,0 C 46 % 1018,6 hPa 0,0 l/m 17,7 km/h (3 Bft) O-NO 60 2 min 0,000 mm 2,8 UV-I 580 W/m 12,6 C 22,9 C 24,1 km/h (4 Bft) 95,74 %
31.08.2016 15:56 24,9 C 47 % 1018,6 hPa 0,0 l/m 15,5 km/h (3 Bft) O-NO 59 2 min 0,000 mm 2,7 UV-I 576 W/m 12,8 C 23,1 C 20,9 km/h (4 Bft) 100,00 %
31.08.2016 15:58 24,9 C 48 % 1018,5 hPa 0,0 l/m 15,6 km/h (3 Bft) O 83 2 min 0,000 mm 2,7 UV-I 570 W/m 13,1 C 23,1 C 24,1 km/h (4 Bft) 100,00 %
31.08.2016 16:00 24,9 C 46 % 1018,5 hPa 0,0 l/m 11,8 km/h (2 Bft) NO 44 2 min 0,000 mm 2,6 UV-I 567 W/m 12,5 C 23,7 C 17,7 km/h (3 Bft) 100,00 %
31.08.2016 16:02 24,9 C 46 % 1018,5 hPa 0,0 l/m 12,4 km/h (3 Bft) NO 49 2 min 0,508 mm 2,6 UV-I 563 W/m 12,5 C 23,6 C 16,1 km/h (3 Bft) 97,37 %
31.08.2016 16:04 24,9 C 47 % 1018,5 hPa 0,0 l/m 15,8 km/h (3 Bft) NO 49 2 min 0,000 mm 2,6 UV-I 559 W/m 12,8 C 23,1 C 24,1 km/h (4 Bft) 100,00 %
31.08.2016 16:06 24,8 C 45 % 1018,5 hPa 0,0 l/m 15,6 km/h (3 Bft) NO 55 2 min 0,000 mm 2,5 UV-I 552 W/m 12,0 C 23,0 C 24,1 km/h (4 Bft) 100,00 %
31.08.2016 16:08 24,8 C 48 % 1018,5 hPa 0,0 l/m 16,5 km/h (3 Bft) O-NO 78 2 min 0,000 mm 2,5 UV-I 548 W/m 13,0 C 22,8 C 24,1 km/h (4 Bft) 100,00 %
31.08.2016 16:10 24,8 C 46 % 1018,5 hPa 0,0 l/m 18,0 km/h (3 Bft) NO 45 2 min 0,000 mm 2,4 UV-I 543 W/m 12,4 C 22,7 C 24,1 km/h (4 Bft) 100,00 %
31.08.2016 16:12 24,8 C 46 % 1018,5 hPa 0,0 l/m 15,1 km/h (3 Bft) NO 55 2 min 0,000 mm 2,4 UV-I 540 W/m 12,4 C 23,1 C 24,1 km/h (4 Bft) 100,00 %
31.08.2016 16:14 24,8 C 45 % 1018,5 hPa 0,0 l/m 13,4 km/h (3 Bft) O 90 2 min 0,000 mm 2,3 UV-I 534 W/m 12,0 C 23,3 C 20,9 km/h (4 Bft) 97,87 %
31.08.2016 16:16 24,8 C 45 % 1018,5 hPa 0,0 l/m 14,0 km/h (3 Bft) O-NO 60 2 min 0,000 mm 2,3 UV-I 529 W/m 12,0 C 23,2 C 20,9 km/h (4 Bft) 100,00 %
31.08.2016 16:18 24,8 C 47 % 1018,5 hPa 0,0 l/m 17,0 km/h (3 Bft) O-NO 61 2 min 0,000 mm 2,2 UV-I 524 W/m 12,7 C 22,8 C 22,5 km/h (4 Bft) 100,00 %
31.08.2016 16:20 24,8 C 45 % 1018,5 hPa 0,0 l/m 16,6 km/h (3 Bft) O-NO 70 2 min 0,000 mm 2,2 UV-I 519 W/m 12,0 C 22,8 C 22,5 km/h (4 Bft) 97,87 %
31.08.2016 16:22 24,7 C 45 % 1018,5 hPa 0,0 l/m 14,7 km/h (3 Bft) O 92 2 min 0,000 mm 2,2 UV-I 513 W/m 12,0 C 23,0 C 19,3 km/h (3 Bft) 97,87 %
31.08.2016 16:24 24,7 C 46 % 1018,5 hPa 0,0 l/m 16,1 km/h (3 Bft) O-NO 57 2 min 0,000 mm 2,1 UV-I 510 W/m 12,3 C 22,8 C 22,5 km/h (4 Bft) 100,00 %
31.08.2016 16:26 24,7 C 47 % 1018,5 hPa 0,0 l/m 13,0 km/h (3 Bft) N-NO 27 2 min 0,000 mm 2,1 UV-I 503 W/m 12,6 C 23,3 C 19,3 km/h (3 Bft) 100,00 %
31.08.2016 16:28 24,8 C 46 % 1018,6 hPa 0,0 l/m 14,6 km/h (3 Bft) O-NO 72 2 min 0,000 mm 2,0 UV-I 500 W/m 12,4 C 23,1 C 22,5 km/h (4 Bft) 100,00 %
31.08.2016 16:30 24,8 C 45 % 1018,5 hPa 0,0 l/m 15,8 km/h (3 Bft) O-NO 73 2 min 0,000 mm 2,0 UV-I 496 W/m 12,0 C 22,9 C 22,5 km/h (4 Bft) 98,00 %
31.08.2016 16:32 24,7 C 46 % 1018,5 hPa 0,0 l/m 14,2 km/h (3 Bft) NO 49 2 min 0,000 mm 2,0 UV-I 489 W/m 12,3 C 23,1 C 22,5 km/h (4 Bft) 97,87 %
31.08.2016 16:34 24,7 C 46 % 1018,5 hPa 0,0 l/m 14,9 km/h (3 Bft) NO 49 2 min 0,000 mm 1,9 UV-I 485 W/m 12,3 C 23,0 C 20,9 km/h (4 Bft) 100,00 %
31.08.2016 16:36 24,7 C 46 % 1018,5 hPa 0,0 l/m 14,6 km/h (3 Bft) NO 48 2 min 0,000 mm 1,9 UV-I 480 W/m 12,3 C 23,0 C 20,9 km/h (4 Bft) 100,00 %
31.08.2016 16:38 24,7 C 46 % 1018,5 hPa 0,0 l/m 12,0 km/h (2 Bft) NO 55 2 min 0,000 mm 1,8 UV-I 474 W/m 12,3 C 23,4 C 16,1 km/h (3 Bft) 100,00 %
31.08.2016 16:40 24,8 C 46 % 1018,4 hPa 0,0 l/m 14,9 km/h (3 Bft) NO 42 2 min 0,000 mm 1,8 UV-I 470 W/m 12,4 C 23,1 C 22,5 km/h (4 Bft) 93,62 %
31.08.2016 16:42 24,7 C 45 % 1018,4 hPa 0,0 l/m 13,7 km/h (3 Bft) O-NO 71 2 min 0,000 mm 1,7 UV-I 464 W/m 12,0 C 23,1 C 20,9 km/h (4 Bft) 97,87 %
31.08.2016 16:44 24,7 C 46 % 1018,5 hPa 0,0 l/m 13,2 km/h (3 Bft) O-NO 66 2 min 0,000 mm 1,7 UV-I 459 W/m 12,3 C 23,2 C 20,9 km/h (4 Bft) 95,74 %
31.08.2016 16:46 24,7 C 45 % 1018,4 hPa 0,0 l/m 16,6 km/h (3 Bft) O-NO 62 2 min 0,000 mm 1,7 UV-I 452 W/m 12,0 C 22,7 C 22,5 km/h (4 Bft) 97,87 %
31.08.2016 16:48 24,7 C 47 % 1018,4 hPa 0,0 l/m 12,9 km/h (3 Bft) O-NO 61 2 min 0,000 mm 1,6 UV-I 447 W/m 12,6 C 23,3 C 20,9 km/h (4 Bft) 95,74 %
31.08.2016 16:50 24,7 C 46 % 1018,4 hPa 0,0 l/m 16,2 km/h (3 Bft) O-NO 59 2 min 0,000 mm 1,6 UV-I 442 W/m 12,3 C 22,8 C 24,1 km/h (4 Bft) 97,87 %
31.08.2016 16:52 24,7 C 47 % 1018,4 hPa 0,0 l/m 15,9 km/h (3 Bft) NO 37 2 min 0,000 mm 1,5 UV-I 438 W/m 12,6 C 22,8 C 20,9 km/h (4 Bft) 95,74 %
31.08.2016 16:54 24,8 C 47 % 1018,4 hPa 0,0 l/m 15,1 km/h (3 Bft) O-NO 65 2 min 0,000 mm 1,5 UV-I 434 W/m 12,7 C 23,1 C 20,9 km/h (4 Bft) 93,62 %
31.08.2016 16:56 24,8 C 47 % 1018,4 hPa 0,0 l/m 11,8 km/h (2 Bft) NO 53 2 min 0,000 mm 1,5 UV-I 422 W/m 12,7 C 23,6 C 19,3 km/h (3 Bft) 97,87 %
31.08.2016 16:58 24,8 C 47 % 1018,4 hPa 0,0 l/m 13,6 km/h (3 Bft) NO 46 2 min 0,000 mm 1,4 UV-I 420 W/m 12,7 C 23,3 C 20,9 km/h (4 Bft) 97,87 %
31.08.2016 17:00 24,8 C 47 % 1018,4 hPa 0,0 l/m 13,9 km/h (3 Bft) NO 54 2 min 0,000 mm 1,4 UV-I 416 W/m 12,7 C 23,2 C 20,9 km/h (4 Bft) 95,74 %
31.08.2016 17:02 24,9 C 47 % 1018,3 hPa 0,0 l/m 14,5 km/h (3 Bft) O-NO 57 2 min 0,432 mm 1,4 UV-I 410 W/m 12,8 C 23,3 C 19,3 km/h (3 Bft) 98,00 %
31.08.2016 17:04 24,8 C 49 % 1018,4 hPa 0,0 l/m 14,9 km/h (3 Bft) NO 49 2 min 0,000 mm 1,3 UV-I 404 W/m 13,3 C 23,1 C 20,9 km/h (4 Bft) 97,92 %
31.08.2016 17:06 24,8 C 47 % 1018,4 hPa 0,0 l/m 13,5 km/h (3 Bft) O-NO 59 2 min 0,000 mm 1,3 UV-I 398 W/m 12,7 C 23,3 C 19,3 km/h (3 Bft) 97,87 %
31.08.2016 17:08 24,8 C 47 % 1018,4 hPa 0,0 l/m 15,9 km/h (3 Bft) O-NO 71 2 min 0,000 mm 1,3 UV-I 392 W/m 12,7 C 22,9 C 22,5 km/h (4 Bft) 93,62 %
31.08.2016 17:10 24,7 C 47 % 1018,5 hPa 0,0 l/m 14,2 km/h (3 Bft) O-NO 69 2 min 0,000 mm 1,2 UV-I 388 W/m 12,6 C 23,1 C 19,3 km/h (3 Bft) 97,87 %
31.08.2016 17:12 24,7 C 47 % 1018,4 hPa 0,0 l/m 11,8 km/h (2 Bft) NO 54 2 min 0,000 mm 1,2 UV-I 382 W/m 12,6 C 23,5 C 16,1 km/h (3 Bft) 97,87 %
31.08.2016 17:14 24,7 C 46 % 1018,4 hPa 0,0 l/m 13,9 km/h (3 Bft) O-NO 63 2 min 0,000 mm 1,2 UV-I 376 W/m 12,3 C 23,1 C 20,9 km/h (4 Bft) 97,37 %
31.08.2016 17:16 24,7 C 47 % 1018,4 hPa 0,0 l/m 15,2 km/h (3 Bft) O-NO 61 2 min 0,000 mm 1,1 UV-I 370 W/m 12,6 C 22,9 C 19,3 km/h (3 Bft) 100,00 %
31.08.2016 17:18 24,6 C 47 % 1018,4 hPa 0,0 l/m 15,8 km/h (3 Bft) NO 49 2 min 0,000 mm 1,1 UV-I 365 W/m 12,5 C 22,7 C 22,5 km/h (4 Bft) 100,00 %
31.08.2016 17:20 24,6 C 49 % 1018,3 hPa 0,0 l/m 11,5 km/h (2 Bft) O-NO 61 2 min 0,000 mm 1,1 UV-I 358 W/m 13,2 C 23,4 C 16,1 km/h (3 Bft) 100,00 %
31.08.2016 17:22 24,6 C 49 % 1018,3 hPa 0,0 l/m 12,8 km/h (3 Bft) N-NO 25 2 min 0,000 mm 1,0 UV-I 352 W/m 13,2 C 23,2 C 19,3 km/h (3 Bft) 100,00 %
31.08.2016 17:24 24,7 C 48 % 1018,3 hPa 0,0 l/m 12,8 km/h (3 Bft) N-NO 28 2 min 0,000 mm 1,0 UV-I 347 W/m 12,9 C 23,3 C 20,9 km/h (4 Bft) 100,00 %
31.08.2016 17:26 24,5 C 48 % 1018,3 hPa 0,0 l/m 10,4 km/h (2 Bft) O-NO 65 2 min 0,000 mm 1,0 UV-I 340 W/m 12,8 C 23,5 C 19,3 km/h (3 Bft) 97,87 %
31.08.2016 17:28 24,5 C 49 % 1018,3 hPa 0,0 l/m 14,4 km/h (3 Bft) O-SO 109 2 min 0,000 mm 0,9 UV-I 334 W/m 13,1 C 22,8 C 19,3 km/h (3 Bft) 100,00 %
31.08.2016 17:30 24,5 C 49 % 1018,4 hPa 0,0 l/m 14,5 km/h (3 Bft) O 85 2 min 0,000 mm 0,9 UV-I 329 W/m 13,1 C 22,8 C 22,5 km/h (4 Bft) 97,87 %
31.08.2016 17:32 24,4 C 49 % 1018,3 hPa 0,0 l/m 12,7 km/h (3 Bft) O 85 2 min 0,000 mm 0,9 UV-I 322 W/m 13,0 C 23,0 C 22,5 km/h (4 Bft) 100,00 %
31.08.2016 17:34 24,4 C 49 % 1018,3 hPa 0,0 l/m 13,7 km/h (3 Bft) O-SO 109 2 min 0,000 mm 0,9 UV-I 315 W/m 13,0 C 22,8 C 19,3 km/h (3 Bft) 100,00 %
31.08.2016 17:36 24,4 C 49 % 1018,3 hPa 0,0 l/m 13,8 km/h (3 Bft) NO 48 2 min 0,000 mm 0,8 UV-I 309 W/m 13,0 C 22,8 C 19,3 km/h (3 Bft) 98,00 %
31.08.2016 17:38 24,4 C 49 % 1018,2 hPa 0,0 l/m 13,4 km/h (3 Bft) NO 46 2 min 0,000 mm 0,8 UV-I 302 W/m 13,0 C 22,8 C 19,3 km/h (3 Bft) 95,74 %
31.08.2016 17:40 24,4 C 50 % 1018,2 hPa 0,0 l/m 14,3 km/h (3 Bft) O 100 2 min 0,000 mm 0,8 UV-I 297 W/m 13,3 C 22,7 C 17,7 km/h (3 Bft) 100,00 %
31.08.2016 17:42 24,4 C 51 % 1018,2 hPa 0,0 l/m 14,1 km/h (3 Bft) O 81 2 min 0,000 mm 0,7 UV-I 291 W/m 13,6 C 22,7 C 22,5 km/h (4 Bft) 100,00 %
31.08.2016 17:44 24,3 C 50 % 1018,2 hPa 0,0 l/m 11,5 km/h (2 Bft) O-NO 72 2 min 0,000 mm 0,7 UV-I 285 W/m 13,2 C 23,1 C 16,1 km/h (3 Bft) 100,00 %
31.08.2016 17:46 24,3 C 50 % 1018,1 hPa 0,0 l/m 10,0 km/h (2 Bft) O-NO 69 2 min 0,000 mm 0,7 UV-I 279 W/m 13,2 C 23,4 C 14,5 km/h (3 Bft) 100,00 %
31.08.2016 17:48 24,3 C 51 % 1018,1 hPa 0,0 l/m 14,3 km/h (3 Bft) O-NO 67 2 min 0,000 mm 0,7 UV-I 273 W/m 13,5 C 22,6 C 20,9 km/h (4 Bft) 100,00 %
31.08.2016 17:50 24,3 C 50 % 1018,1 hPa 0,0 l/m 17,6 km/h (3 Bft) O-NO 61 2 min 0,000 mm 0,6 UV-I 267 W/m 13,2 C 22,1 C 22,5 km/h (4 Bft) 100,00 %
31.08.2016 17:52 24,2 C 49 % 1018,0 hPa 0,0 l/m 16,9 km/h (3 Bft) NO 49 2 min 0,000 mm 0,6 UV-I 262 W/m 12,8 C 22,0 C 22,5 km/h (4 Bft) 95,74 %
31.08.2016 17:54 24,1 C 51 % 1018,1 hPa 0,0 l/m 17,6 km/h (3 Bft) O 81 2 min 0,000 mm 0,6 UV-I 256 W/m 13,3 C 21,8 C 24,1 km/h (4 Bft) 100,00 %
31.08.2016 17:56 24,1 C 50 % 1018,0 hPa 0,0 l/m 15,5 km/h (3 Bft) O-NO 70 2 min 0,000 mm 0,6 UV-I 250 W/m 13,0 C 22,1 C 20,9 km/h (4 Bft) 100,00 %
31.08.2016 17:58 24,0 C 50 % 1018,0 hPa 0,0 l/m 17,1 km/h (3 Bft) O-NO 63 2 min 0,000 mm 0,5 UV-I 244 W/m 12,9 C 21,8 C 24,1 km/h (4 Bft) 100,00 %
31.08.2016 18:00 24,0 C 51 % 1018,0 hPa 0,0 l/m 14,3 km/h (3 Bft) O 92 2 min 0,000 mm 0,5 UV-I 238 W/m 13,2 C 22,2 C 22,5 km/h (4 Bft) 100,00 %
31.08.2016 18:02 23,9 C 51 % 1018,0 hPa 0,0 l/m 15,5 km/h (3 Bft) O 89 2 min 0,304 mm 0,5 UV-I 232 W/m 13,1 C 21,9 C 24,1 km/h (4 Bft) 98,00 %
31.08.2016 18:04 23,9 C 51 % 1018,0 hPa 0,0 l/m 14,2 km/h (3 Bft) O-NO 63 2 min 0,000 mm 0,5 UV-I 226 W/m 13,1 C 22,1 C 22,5 km/h (4 Bft) 100,00 %
31.08.2016 18:06 23,9 C 51 % 1018,0 hPa 0,0 l/m 13,1 km/h (3 Bft) O-NO 65 2 min 0,000 mm 0,5 UV-I 218 W/m 13,1 C 22,3 C 19,3 km/h (3 Bft) 100,00 %
31.08.2016 18:08 23,8 C 52 % 1018,0 hPa 0,0 l/m 13,9 km/h (3 Bft) O-NO 66 2 min 0,000 mm 0,0 UV-I 211 W/m 13,3 C 22,0 C 20,9 km/h (4 Bft) 100,00 %
31.08.2016 18:10 23,8 C 52 % 1018,0 hPa 0,0 l/m 14,1 km/h (3 Bft) O-NO 62 2 min 0,000 mm 0,0 UV-I 206 W/m 13,3 C 22,0 C 20,9 km/h (4 Bft) 100,00 %
31.08.2016 18:12 23,8 C 53 % 1018,0 hPa 0,0 l/m 13,3 km/h (3 Bft) O-NO 68 2 min 0,000 mm 0,0 UV-I 198 W/m 13,6 C 22,2 C 20,9 km/h (4 Bft) 100,00 %
31.08.2016 18:14 23,8 C 52 % 1018,0 hPa 0,0 l/m 16,6 km/h (3 Bft) NO 55 2 min 0,000 mm 0,0 UV-I 192 W/m 13,3 C 21,6 C 20,9 km/h (4 Bft) 100,00 %
31.08.2016 18:16 23,7 C 53 % 1018,0 hPa 0,0 l/m 12,9 km/h (3 Bft) O 84 2 min 0,000 mm 0,0 UV-I 187 W/m 13,5 C 22,1 C 17,7 km/h (3 Bft) 100,00 %
31.08.2016 18:18 23,7 C 52 % 1018,0 hPa 0,0 l/m 12,4 km/h (3 Bft) O 80 2 min 0,000 mm 0,0 UV-I 179 W/m 13,2 C 22,2 C 17,7 km/h (3 Bft) 100,00 %
31.08.2016 18:20 23,7 C 53 % 1018,0 hPa 0,0 l/m 13,7 km/h (3 Bft) NO 49 2 min 0,000 mm 0,0 UV-I 174 W/m 13,5 C 22,0 C 19,3 km/h (3 Bft) 100,00 %
31.08.2016 18:22 23,6 C 53 % 1018,0 hPa 0,0 l/m 14,4 km/h (3 Bft) O 86 2 min 0,000 mm 0,0 UV-I 167 W/m 13,4 C 21,7 C 20,9 km/h (4 Bft) 97,92 %
31.08.2016 18:24 23,6 C 52 % 1018,0 hPa 0,0 l/m 13,8 km/h (3 Bft) O 92 2 min 0,000 mm 0,0 UV-I 159 W/m 13,2 C 21,8 C 20,9 km/h (4 Bft) 93,62 %
31.08.2016 18:26 23,6 C 53 % 1018,0 hPa 0,0 l/m 15,5 km/h (3 Bft) NO 51 2 min 0,000 mm 0,0 UV-I 153 W/m 13,4 C 21,5 C 19,3 km/h (3 Bft) 100,00 %
31.08.2016 18:28 23,6 C 53 % 1018,0 hPa 0,0 l/m 11,8 km/h (2 Bft) O-NO 76 2 min 0,000 mm 0,0 UV-I 147 W/m 13,4 C 22,2 C 16,1 km/h (3 Bft) 97,87 %
31.08.2016 18:30 23,5 C 54 % 1017,9 hPa 0,0 l/m 11,9 km/h (2 Bft) O-NO 69 2 min 0,000 mm 0,0 UV-I 140 W/m 13,6 C 22,1 C 17,7 km/h (3 Bft) 97,37 %
31.08.2016 18:32 23,4 C 54 % 1017,9 hPa 0,0 l/m 13,5 km/h (3 Bft) NO 36 2 min 0,000 mm 0,0 UV-I 134 W/m 13,6 C 21,6 C 19,3 km/h (3 Bft) 100,00 %
31.08.2016 18:34 23,4 C 54 % 1017,9 hPa 0,0 l/m 13,6 km/h (3 Bft) NO 48 2 min 0,000 mm 0,0 UV-I 128 W/m 13,6 C 21,6 C 17,7 km/h (3 Bft) 100,00 %
31.08.2016 18:36 23,4 C 54 % 1017,8 hPa 0,0 l/m 12,6 km/h (3 Bft) O-NO 67 2 min 0,000 mm 0,0 UV-I 121 W/m 13,6 C 21,8 C 19,3 km/h (3 Bft) 97,87 %
31.08.2016 18:38 23,3 C 53 % 1017,8 hPa 0,0 l/m 12,0 km/h (2 Bft) O-NO 60 2 min 0,000 mm 0,0 UV-I 116 W/m 13,2 C 21,8 C 19,3 km/h (3 Bft) 97,87 %
31.08.2016 18:40 23,3 C 53 % 1017,8 hPa 0,0 l/m 13,1 km/h (3 Bft) O-NO 65 2 min 0,000 mm 0,0 UV-I 110 W/m 13,2 C 21,6 C 17,7 km/h (3 Bft) 98,00 %
31.08.2016 18:42 23,2 C 54 % 1017,8 hPa 0,0 l/m 12,6 km/h (3 Bft) NO 54 2 min 0,000 mm 0,0 UV-I 104 W/m 13,4 C 21,6 C 17,7 km/h (3 Bft) 97,87 %
31.08.2016 18:44 23,2 C 56 % 1017,8 hPa 0,0 l/m 11,1 km/h (2 Bft) O-NO 76 2 min 0,000 mm 0,0 UV-I 99 W/m 13,9 C 21,9 C 14,5 km/h (3 Bft) 98,00 %
31.08.2016 18:46 23,1 C 55 % 1017,9 hPa 0,0 l/m 11,9 km/h (2 Bft) O-NO 77 2 min 0,000 mm 0,0 UV-I 92 W/m 13,6 C 21,6 C 16,1 km/h (3 Bft) 97,87 %
31.08.2016 18:48 23,0 C 55 % 1017,8 hPa 0,0 l/m 17,9 km/h (3 Bft) O 80 2 min 0,000 mm 0,0 UV-I 87 W/m 13,5 C 20,4 C 24,1 km/h (4 Bft) 97,87 %
31.08.2016 18:50 23,0 C 56 % 1017,8 hPa 0,0 l/m 13,6 km/h (3 Bft) O-NO 65 2 min 0,000 mm 0,0 UV-I 83 W/m 13,7 C 21,2 C 19,3 km/h (3 Bft) 95,74 %
31.08.2016 18:52 22,9 C 55 % 1017,8 hPa 0,0 l/m 12,3 km/h (3 Bft) O 82 0 min 0,000 mm 0,0 UV-I 77 W/m 13,4 C 21,3 C 17,7 km/h (3 Bft) 97,87 %
31.08.2016 18:54 22,8 C 56 % 1017,8 hPa 0,0 l/m 13,7 km/h (3 Bft) O 84 0 min 0,000 mm 0,0 UV-I 72 W/m 13,6 C 20,9 C 20,9 km/h (4 Bft) 97,87 %
31.08.2016 18:56 22,7 C 56 % 1017,8 hPa 0,0 l/m 14,9 km/h (3 Bft) O 79 0 min 0,000 mm 0,0 UV-I 67 W/m 13,5 C 20,5 C 20,9 km/h (4 Bft) 97,87 %
31.08.2016 18:58 22,6 C 55 % 1017,8 hPa 0,0 l/m 16,1 km/h (3 Bft) O 83 0 min 0,000 mm 0,0 UV-I 63 W/m 13,1 C 20,2 C 20,9 km/h (4 Bft) 97,22 %
31.08.2016 19:00 22,6 C 55 % 1017,8 hPa 0,0 l/m 15,6 km/h (3 Bft) O-NO 65 0 min 0,000 mm 0,0 UV-I 58 W/m 13,1 C 20,3 C 22,5 km/h (4 Bft) 97,87 %
31.08.2016 19:02 22,5 C 56 % 1017,8 hPa 0,0 l/m 12,2 km/h (2 Bft) O 90 0 min 0,178 mm 0,0 UV-I 54 W/m 13,3 C 20,9 C 17,7 km/h (3 Bft) 97,87 %
31.08.2016 19:04 22,4 C 56 % 1017,8 hPa 0,0 l/m 15,5 km/h (3 Bft) O 84 0 min 0,000 mm 0,0 UV-I 50 W/m 13,2 C 20,1 C 22,5 km/h (4 Bft) 95,74 %
31.08.2016 19:06 22,3 C 56 % 1017,8 hPa 0,0 l/m 13,2 km/h (3 Bft) O-NO 67 0 min 0,000 mm 0,0 UV-I 44 W/m 13,1 C 20,4 C 17,7 km/h (3 Bft) 97,87 %
31.08.2016 19:08 22,3 C 56 % 1017,8 hPa 0,0 l/m 13,6 km/h (3 Bft) O-NO 63 0 min 0,000 mm 0,0 UV-I 39 W/m 13,1 C 20,3 C 20,9 km/h (4 Bft) 95,74 %
31.08.2016 19:10 22,2 C 57 % 1017,8 hPa 0,0 l/m 14,8 km/h (3 Bft) O-NO 72 0 min 0,000 mm 0,0 UV-I 29 W/m 13,3 C 20,0 C 24,1 km/h (4 Bft) 97,87 %
31.08.2016 19:12 22,1 C 56 % 1017,8 hPa 0,0 l/m 13,9 km/h (3 Bft) O-SO 105 0 min 0,000 mm 0,0 UV-I 20 W/m 12,9 C 20,0 C 17,7 km/h (3 Bft) 97,87 %
31.08.2016 19:14 22,0 C 57 % 1017,7 hPa 0,0 l/m 12,2 km/h (2 Bft) NO 55 0 min 0,000 mm 0,0 UV-I 19 W/m 13,1 C 20,3 C 17,7 km/h (3 Bft) 96,00 %
31.08.2016 19:16 21,9 C 57 % 1017,7 hPa 0,0 l/m 11,5 km/h (2 Bft) O-NO 71 0 min 0,000 mm 0,0 UV-I 18 W/m 13,0 C 20,3 C 17,7 km/h (3 Bft) 100,00 %
31.08.2016 19:18 21,9 C 57 % 1017,7 hPa 0,0 l/m 11,6 km/h (2 Bft) O-NO 74 0 min 0,000 mm 0,0 UV-I 18 W/m 13,0 C 20,3 C 19,3 km/h (3 Bft) 100,00 %
31.08.2016 19:20 21,8 C 58 % 1017,7 hPa 0,0 l/m 12,9 km/h (3 Bft) O 80 0 min 0,000 mm 0,0 UV-I 16 W/m 13,2 C 19,9 C 16,1 km/h (3 Bft) 100,00 %
31.08.2016 19:22 21,8 C 58 % 1017,8 hPa 0,0 l/m 11,1 km/h (2 Bft) O 84 0 min 0,000 mm 0,0 UV-I 16 W/m 13,2 C 20,3 C 17,7 km/h (3 Bft) 100,00 %
31.08.2016 19:24 21,7 C 58 % 1017,7 hPa 0,0 l/m 8,1 km/h (2 Bft) O-NO 58 0 min 0,000 mm 0,0 UV-I 16 W/m 13,1 C 21,1 C 12,9 km/h (3 Bft) 97,96 %
31.08.2016 19:26 21,7 C 58 % 1017,8 hPa 0,0 l/m 9,8 km/h (2 Bft) O-NO 65 0 min 0,000 mm 0,0 UV-I 15 W/m 13,1 C 20,6 C 16,1 km/h (3 Bft) 98,00 %
31.08.2016 19:28 21,6 C 59 % 1017,8 hPa 0,0 l/m 10,8 km/h (2 Bft) O-NO 71 0 min 0,000 mm 0,0 UV-I 14 W/m 13,2 C 20,2 C 16,1 km/h (3 Bft) 97,37 %
31.08.2016 19:30 21,5 C 59 % 1017,7 hPa 0,0 l/m 9,4 km/h (2 Bft) O 86 0 min 0,000 mm 0,0 UV-I 13 W/m 13,1 C 20,5 C 16,1 km/h (3 Bft) 100,00 %
31.08.2016 19:32 21,4 C 59 % 1017,9 hPa 0,0 l/m 10,2 km/h (2 Bft) O-NO 67 0 min 0,000 mm 0,0 UV-I 12 W/m 13,0 C 20,1 C 17,7 km/h (3 Bft) 100,00 %
31.08.2016 19:34 21,3 C 59 % 1017,8 hPa 0,0 l/m 9,6 km/h (2 Bft) O 84 0 min 0,000 mm 0,0 UV-I 11 W/m 13,0 C 20,2 C 16,1 km/h (3 Bft) 97,96 %
31.08.2016 19:36 21,3 C 58 % 1017,9 hPa 0,0 l/m 14,3 km/h (3 Bft) O-NO 77 2 min 0,000 mm 0,0 UV-I 11 W/m 12,7 C 19,0 C 17,7 km/h (3 Bft) 100,00 %
31.08.2016 19:38 21,3 C 59 % 1017,8 hPa 0,0 l/m 9,5 km/h (2 Bft) O-NO 60 0 min 0,000 mm 0,0 UV-I 10 W/m 13,0 C 20,2 C 16,1 km/h (3 Bft) 100,00 %
31.08.2016 19:40 21,2 C 59 % 1017,8 hPa 0,0 l/m 9,5 km/h (2 Bft) O-NO 67 0 min 0,000 mm 0,0 UV-I 9 W/m 12,9 C 20,1 C 14,5 km/h (3 Bft) 100,00 %
31.08.2016 19:42 21,1 C 60 % 1017,9 hPa 0,0 l/m 6,8 km/h (2 Bft) O-NO 76 0 min 0,000 mm 0,0 UV-I 7 W/m 13,0 C 21,0 C 11,3 km/h (2 Bft) 100,00 %
31.08.2016 19:44 20,9 C 59 % 1017,8 hPa 0,0 l/m 8,9 km/h (2 Bft) O 94 0 min 0,000 mm 0,0 UV-I 7 W/m 12,6 C 20,0 C 14,5 km/h (3 Bft) 100,00 %
31.08.2016 19:46 20,9 C 60 % 1017,9 hPa 0,0 l/m 7,7 km/h (2 Bft) O-SO 105 0 min 0,000 mm 0,0 UV-I 6 W/m 12,8 C 20,4 C 12,9 km/h (3 Bft) 100,00 %
31.08.2016 19:48 20,8 C 60 % 1017,9 hPa 0,0 l/m 10,9 km/h (2 Bft) O-SO 104 0 min 0,000 mm 0,0 UV-I 5 W/m 12,7 C 19,3 C 17,7 km/h (3 Bft) 100,00 %
31.08.2016 19:50 20,8 C 60 % 1018,0 hPa 0,0 l/m 10,1 km/h (2 Bft) O-NO 67 0 min 0,000 mm 0,0 UV-I 5 W/m 12,7 C 19,5 C 16,1 km/h (3 Bft) 100,00 %
31.08.2016 19:52 20,8 C 60 % 1018,0 hPa 0,0 l/m 7,8 km/h (2 Bft) O 83 0 min 0,000 mm 0,0 UV-I 2 W/m 12,7 C 20,3 C 14,5 km/h (3 Bft) 97,14 %
31.08.2016 19:54 20,7 C 60 % 1018,0 hPa 0,0 l/m 9,6 km/h (2 Bft) O-NO 61 0 min 0,000 mm 0,0 UV-I 0 W/m 12,7 C 19,5 C 17,7 km/h (3 Bft) 97,87 %
31.08.2016 19:56 20,7 C 60 % 1018,0 hPa 0,0 l/m 10,3 km/h (2 Bft) O 92 0 min 0,000 mm 0,0 UV-I 0 W/m 12,7 C 19,3 C 16,1 km/h (3 Bft) 100,00 %
31.08.2016 19:58 20,6 C 61 % 1018,0 hPa 0,0 l/m 10,5 km/h (2 Bft) O-NO 72 0 min 0,000 mm 0,0 UV-I 0 W/m 12,8 C 19,1 C 16,1 km/h (3 Bft) 100,00 %
31.08.2016 20:00 20,6 C 61 % 1018,1 hPa 0,0 l/m 11,0 km/h (2 Bft) O 88 0 min 0,000 mm 0,0 UV-I 0 W/m 12,8 C 19,0 C 17,7 km/h (3 Bft) 100,00 %
31.08.2016 20:02 20,4 C 61 % 1018,1 hPa 0,0 l/m 10,0 km/h (2 Bft) O 86 0 min 0,076 mm 0,0 UV-I 0 W/m 12,6 C 19,1 C 14,5 km/h (3 Bft) 100,00 %
31.08.2016 20:04 20,4 C 61 % 1018,1 hPa 0,0 l/m 7,2 km/h (2 Bft) O-NO 69 0 min 0,000 mm 0,0 UV-I 0 W/m 12,6 C 20,1 C 11,3 km/h (2 Bft) 100,00 %
31.08.2016 20:06 20,3 C 62 % 1018,1 hPa 0,0 l/m 9,9 km/h (2 Bft) O 92 0 min 0,000 mm 0,0 UV-I 0 W/m 12,8 C 19,0 C 14,5 km/h (3 Bft) 100,00 %
31.08.2016 20:08 20,2 C 62 % 1018,1 hPa 0,0 l/m 6,9 km/h (2 Bft) O 88 0 min 0,000 mm 0,0 UV-I 0 W/m 12,7 C 20,0 C 14,5 km/h (3 Bft) 97,87 %
31.08.2016 20:10 20,2 C 62 % 1018,2 hPa 0,0 l/m 9,4 km/h (2 Bft) O-NO 57 0 min 0,000 mm 0,0 UV-I 0 W/m 12,7 C 19,1 C 14,5 km/h (3 Bft) 100,00 %
31.08.2016 20:12 20,2 C 62 % 1018,2 hPa 0,0 l/m 8,8 km/h (2 Bft) O-NO 69 0 min 0,000 mm 0,0 UV-I 0 W/m 12,7 C 19,3 C 14,5 km/h (3 Bft) 100,00 %
31.08.2016 20:14 20,2 C 62 % 1018,2 hPa 0,0 l/m 5,7 km/h (1 Bft) O-NO 67 0 min 0,000 mm 0,0 UV-I 0 W/m 12,7 C 20,2 C 8,0 km/h (2 Bft) 100,00 %
31.08.2016 20:16 20,1 C 62 % 1018,2 hPa 0,0 l/m 5,6 km/h (1 Bft) O-NO 63 0 min 0,000 mm 0,0 UV-I 0 W/m 12,6 C 20,1 C 8,0 km/h (2 Bft) 97,87 %
31.08.2016 20:18 20,0 C 63 % 1018,2 hPa 0,0 l/m 6,2 km/h (2 Bft) O-NO 64 0 min 0,000 mm 0,0 UV-I 0 W/m 12,7 C 20,0 C 8,0 km/h (2 Bft) 100,00 %
31.08.2016 20:20 19,9 C 63 % 1018,2 hPa 0,0 l/m 6,0 km/h (2 Bft) O-NO 66 0 min 0,000 mm 0,0 UV-I 0 W/m 12,6 C 19,9 C 8,0 km/h (2 Bft) 95,74 %
31.08.2016 20:22 19,7 C 64 % 1018,2 hPa 0,0 l/m 4,1 km/h (1 Bft) O-NO 78 0 min 0,000 mm 0,0 UV-I 0 W/m 12,7 C 19,7 C 6,4 km/h (2 Bft) 100,00 %
31.08.2016 20:24 19,5 C 65 % 1018,3 hPa 0,0 l/m 4,0 km/h (1 Bft) O-NO 61 0 min 0,000 mm 0,0 UV-I 0 W/m 12,7 C 19,5 C 6,4 km/h (2 Bft) 100,00 %
31.08.2016 20:26 19,3 C 66 % 1018,2 hPa 0,0 l/m 3,6 km/h (1 Bft) O-NO 60 0 min 0,000 mm 0,0 UV-I 0 W/m 12,8 C 19,3 C 4,8 km/h (1 Bft) 94,29 %
31.08.2016 20:28 19,2 C 66 % 1018,2 hPa 0,0 l/m 3,4 km/h (1 Bft) O-NO 60 0 min 0,000 mm 0,0 UV-I 0 W/m 12,7 C 19,2 C 4,8 km/h (1 Bft) 100,00 %
31.08.2016 20:30 19,1 C 67 % 1018,3 hPa 0,0 l/m 3,3 km/h (1 Bft) O-NO 60 0 min 0,000 mm 0,0 UV-I 0 W/m 12,8 C 19,1 C 4,8 km/h (1 Bft) 100,00 %
31.08.2016 20:32 19,0 C 67 % 1018,3 hPa 0,0 l/m 2,5 km/h (1 Bft) O-NO 60 0 min 0,000 mm 0,0 UV-I 0 W/m 12,7 C 19,0 C 4,8 km/h (1 Bft) 100,00 %
31.08.2016 20:34 18,9 C 67 % 1018,3 hPa 0,0 l/m 2,8 km/h (1 Bft) O-NO 60 0 min 0,000 mm 0,0 UV-I 0 W/m 12,6 C 18,9 C 6,4 km/h (2 Bft) 100,00 %
31.08.2016 20:36 18,8 C 68 % 1018,3 hPa 0,0 l/m 2,1 km/h (1 Bft) O-NO 60 0 min 0,000 mm 0,0 UV-I 0 W/m 12,8 C 18,8 C 4,8 km/h (1 Bft) 95,74 %
31.08.2016 20:38 18,7 C 68 % 1018,4 hPa 0,0 l/m 2,2 km/h (1 Bft) O-NO 60 0 min 0,000 mm 0,0 UV-I 0 W/m 12,7 C 18,7 C 3,2 km/h (1 Bft) 97,87 %
31.08.2016 20:40 18,7 C 68 % 1018,4 hPa 0,0 l/m 2,5 km/h (1 Bft) O-NO 60 0 min 0,000 mm 0,0 UV-I 0 W/m 12,7 C 18,7 C 3,2 km/h (1 Bft) 97,87 %
31.08.2016 20:42 18,7 C 68 % 1018,4 hPa 0,0 l/m 2,9 km/h (1 Bft) O-NO 67 0 min 0,000 mm 0,0 UV-I 0 W/m 12,7 C 18,7 C 4,8 km/h (1 Bft) 97,87 %
31.08.2016 20:44 18,7 C 69 % 1018,4 hPa 0,0 l/m 3,2 km/h (1 Bft) O-NO 67 0 min 0,000 mm 0,0 UV-I 0 W/m 12,9 C 18,7 C 4,8 km/h (1 Bft) 97,87 %
31.08.2016 20:46 18,6 C 69 % 1018,4 hPa 0,0 l/m 3,4 km/h (1 Bft) O-NO 67 0 min 0,000 mm 0,0 UV-I 0 W/m 12,8 C 18,6 C 4,8 km/h (1 Bft) 95,74 %
31.08.2016 20:48 18,6 C 69 % 1018,4 hPa 0,0 l/m 4,0 km/h (1 Bft) O-NO 67 0 min 0,000 mm 0,0 UV-I 0 W/m 12,8 C 18,6 C 6,4 km/h (2 Bft) 95,74 %
31.08.2016 20:50 18,6 C 69 % 1018,5 hPa 0,0 l/m 3,8 km/h (1 Bft) O-NO 67 0 min 0,000 mm 0,0 UV-I 0 W/m 12,8 C 18,6 C 4,8 km/h (1 Bft) 95,74 %
31.08.2016 20:52 18,6 C 69 % 1018,5 hPa 0,0 l/m 3,9 km/h (1 Bft) O-NO 67 0 min 0,000 mm 0,0 UV-I 0 W/m 12,8 C 18,6 C 4,8 km/h (1 Bft) 95,74 %
31.08.2016 20:54 18,6 C 69 % 1018,5 hPa 0,0 l/m 3,2 km/h (1 Bft) O-NO 67 0 min 0,000 mm 0,0 UV-I 0 W/m 12,8 C 18,6 C 4,8 km/h (1 Bft) 95,74 %
31.08.2016 20:56 18,7 C 69 % 1018,5 hPa 0,0 l/m 2,8 km/h (1 Bft) O-NO 66 0 min 0,000 mm 0,0 UV-I 0 W/m 12,9 C 18,7 C 4,8 km/h (1 Bft) 97,92 %
31.08.2016 20:58 18,6 C 68 % 1018,5 hPa 0,0 l/m 3,5 km/h (1 Bft) O-NO 64 0 min 0,000 mm 0,0 UV-I 0 W/m 12,6 C 18,6 C 6,4 km/h (2 Bft) 97,87 %
31.08.2016 21:00 18,6 C 69 % 1018,6 hPa 0,0 l/m 3,5 km/h (1 Bft) O-NO 65 0 min 0,000 mm 0,0 UV-I 0 W/m 12,8 C 18,6 C 4,8 km/h (1 Bft) 95,74 %
31.08.2016 21:02 18,6 C 69 % 1018,6 hPa 0,0 l/m 3,6 km/h (1 Bft) O-NO 66 0 min 0,026 mm 0,0 UV-I 0 W/m 12,8 C 18,6 C 6,4 km/h (2 Bft) 96,00 %
31.08.2016 21:04 18,6 C 69 % 1018,6 hPa 0,0 l/m 3,5 km/h (1 Bft) O-NO 74 0 min 0,000 mm 0,0 UV-I 0 W/m 12,8 C 18,6 C 4,8 km/h (1 Bft) 93,62 %
31.08.2016 21:06 18,5 C 69 % 1018,6 hPa 0,0 l/m 4,8 km/h (1 Bft) O-NO 68 0 min 0,000 mm 0,0 UV-I 0 W/m 12,7 C 18,5 C 8,0 km/h (2 Bft) 97,37 %
31.08.2016 21:08 18,5 C 69 % 1018,6 hPa 0,0 l/m 4,7 km/h (1 Bft) O-NO 76 0 min 0,000 mm 0,0 UV-I 0 W/m 12,7 C 18,5 C 6,4 km/h (2 Bft) 97,87 %
31.08.2016 21:10 18,5 C 69 % 1018,5 hPa 0,0 l/m 4,8 km/h (1 Bft) O-NO 71 0 min 0,000 mm 0,0 UV-I 0 W/m 12,7 C 18,5 C 6,4 km/h (2 Bft) 100,00 %
31.08.2016 21:12 18,5 C 69 % 1018,6 hPa 0,0 l/m 4,4 km/h (1 Bft) O-NO 76 0 min 0,000 mm 0,0 UV-I 0 W/m 12,7 C 18,5 C 6,4 km/h (2 Bft) 97,87 %
31.08.2016 21:14 18,4 C 69 % 1018,6 hPa 0,0 l/m 4,8 km/h (1 Bft) O-NO 72 0 min 0,000 mm 0,0 UV-I 0 W/m 12,6 C 18,4 C 8,0 km/h (2 Bft) 100,00 %
31.08.2016 21:16 18,4 C 69 % 1018,6 hPa 0,0 l/m 5,1 km/h (1 Bft) O-NO 72 0 min 0,000 mm 0,0 UV-I 0 W/m 12,6 C 18,4 C 6,4 km/h (2 Bft) 100,00 %
31.08.2016 21:18 18,4 C 69 % 1018,6 hPa 0,0 l/m 5,6 km/h (1 Bft) O 80 0 min 0,000 mm 0,0 UV-I 0 W/m 12,6 C 18,4 C 6,4 km/h (2 Bft) 100,00 %
31.08.2016 21:20 18,4 C 69 % 1018,6 hPa 0,0 l/m 5,2 km/h (1 Bft) O-NO 75 0 min 0,000 mm 0,0 UV-I 0 W/m 12,6 C 18,4 C 8,0 km/h (2 Bft) 100,00 %
31.08.2016 21:22 18,4 C 68 % 1018,6 hPa 0,0 l/m 6,1 km/h (2 Bft) O-NO 78 0 min 0,000 mm 0,0 UV-I 0 W/m 12,4 C 18,4 C 11,3 km/h (2 Bft) 97,87 %
31.08.2016 21:24 18,4 C 68 % 1018,6 hPa 0,0 l/m 5,8 km/h (2 Bft) O-NO 71 0 min 0,000 mm 0,0 UV-I 0 W/m 12,4 C 18,4 C 8,0 km/h (2 Bft) 95,74 %
31.08.2016 21:26 18,4 C 68 % 1018,6 hPa 0,0 l/m 6,1 km/h (2 Bft) O-NO 76 0 min 0,000 mm 0,0 UV-I 0 W/m 12,4 C 18,4 C 8,0 km/h (2 Bft) 100,00 %
31.08.2016 21:28 18,4 C 68 % 1018,6 hPa 0,0 l/m 5,3 km/h (1 Bft) O-NO 74 0 min 0,000 mm 0,0 UV-I 0 W/m 12,4 C 18,4 C 8,0 km/h (2 Bft) 100,00 %
31.08.2016 21:30 18,4 C 68 % 1018,6 hPa 0,0 l/m 5,6 km/h (1 Bft) O-NO 76 0 min 0,000 mm 0,0 UV-I 0 W/m 12,4 C 18,4 C 8,0 km/h (2 Bft) 100,00 %
31.08.2016 21:32 18,4 C 68 % 1018,6 hPa 0,0 l/m 6,1 km/h (2 Bft) O 83 0 min 0,000 mm 0,0 UV-I 0 W/m 12,4 C 18,4 C 8,0 km/h (2 Bft) 100,00 %
31.08.2016 21:34 18,3 C 68 % 1018,6 hPa 0,0 l/m 6,3 km/h (2 Bft) O 84 0 min 0,000 mm 0,0 UV-I 0 W/m 12,3 C 18,3 C 11,3 km/h (2 Bft) 97,92 %
31.08.2016 21:36 18,3 C 68 % 1018,5 hPa 0,0 l/m 6,9 km/h (2 Bft) O-NO 72 0 min 0,000 mm 0,0 UV-I 0 W/m 12,3 C 18,1 C 9,7 km/h (2 Bft) 100,00 %
31.08.2016 21:38 18,3 C 68 % 1018,5 hPa 0,0 l/m 7,2 km/h (2 Bft) O-NO 70 0 min 0,000 mm 0,0 UV-I 0 W/m 12,3 C 17,9 C 11,3 km/h (2 Bft) 100,00 %
31.08.2016 21:40 18,3 C 68 % 1018,6 hPa 0,0 l/m 7,4 km/h (2 Bft) O-NO 76 0 min 0,000 mm 0,0 UV-I 0 W/m 12,3 C 17,8 C 12,9 km/h (3 Bft) 100,00 %
31.08.2016 21:42 18,3 C 68 % 1018,5 hPa 0,0 l/m 6,6 km/h (2 Bft) O-NO 70 0 min 0,000 mm 0,0 UV-I 0 W/m 12,3 C 18,2 C 8,0 km/h (2 Bft) 97,96 %
31.08.2016 21:44 18,3 C 68 % 1018,5 hPa 0,0 l/m 6,4 km/h (2 Bft) O-NO 78 0 min 0,000 mm 0,0 UV-I 0 W/m 12,3 C 18,3 C 11,3 km/h (2 Bft) 100,00 %
31.08.2016 21:46 18,3 C 68 % 1018,6 hPa 0,0 l/m 5,5 km/h (1 Bft) O 80 0 min 0,000 mm 0,0 UV-I 0 W/m 12,3 C 18,3 C 8,0 km/h (2 Bft) 100,00 %
31.08.2016 21:48 18,3 C 68 % 1018,6 hPa 0,0 l/m 5,3 km/h (1 Bft) O-NO 73 0 min 0,000 mm 0,0 UV-I 0 W/m 12,3 C 18,3 C 8,0 km/h (2 Bft) 97,87 %
31.08.2016 21:50 18,3 C 68 % 1018,6 hPa 0,0 l/m 5,5 km/h (1 Bft) O-NO 78 0 min 0,000 mm 0,0 UV-I 0 W/m 12,3 C 18,3 C 8,0 km/h (2 Bft) 97,87 %
31.08.2016 21:52 18,3 C 68 % 1018,6 hPa 0,0 l/m 4,7 km/h (1 Bft) O-NO 71 0 min 0,000 mm 0,0 UV-I 0 W/m 12,3 C 18,3 C 6,4 km/h (2 Bft) 97,92 %
31.08.2016 21:54 18,2 C 68 % 1018,6 hPa 0,0 l/m 3,7 km/h (1 Bft) O-NO 71 0 min 0,000 mm 0,0 UV-I 0 W/m 12,2 C 18,2 C 6,4 km/h (2 Bft) 97,87 %
31.08.2016 21:56 18,1 C 69 % 1018,6 hPa 0,0 l/m 3,6 km/h (1 Bft) O-NO 70 0 min 0,000 mm 0,0 UV-I 0 W/m 12,3 C 18,1 C 4,8 km/h (1 Bft) 100,00 %
31.08.2016 21:58 17,9 C 69 % 1018,7 hPa 0,0 l/m 3,7 km/h (1 Bft) O-NO 71 0 min 0,000 mm 0,0 UV-I 0 W/m 12,1 C 17,9 C 4,8 km/h (1 Bft) 100,00 %
31.08.2016 22:00 17,9 C 70 % 1018,6 hPa 0,0 l/m 4,2 km/h (1 Bft) O-NO 64 0 min 0,000 mm 0,0 UV-I 0 W/m 12,3 C 17,9 C 6,4 km/h (2 Bft) 97,87 %
31.08.2016 22:02 17,8 C 70 % 1018,6 hPa 0,0 l/m 4,4 km/h (1 Bft) O-NO 57 0 min 0,025 mm 0,0 UV-I 0 W/m 12,3 C 17,8 C 6,4 km/h (2 Bft) 100,00 %
31.08.2016 22:04 17,8 C 70 % 1018,6 hPa 0,0 l/m 4,0 km/h (1 Bft) NO 55 0 min 0,000 mm 0,0 UV-I 0 W/m 12,3 C 17,8 C 6,4 km/h (2 Bft) 100,00 %
31.08.2016 22:06 17,8 C 70 % 1018,6 hPa 0,0 l/m 3,6 km/h (1 Bft) NO 55 0 min 0,000 mm 0,0 UV-I 0 W/m 12,3 C 17,8 C 4,8 km/h (1 Bft) 100,00 %
31.08.2016 22:08 17,7 C 70 % 1018,6 hPa 0,0 l/m 3,6 km/h (1 Bft) NO 53 0 min 0,000 mm 0,0 UV-I 0 W/m 12,2 C 17,7 C 4,8 km/h (1 Bft) 100,00 %
31.08.2016 22:10 17,6 C 70 % 1018,6 hPa 0,0 l/m 3,8 km/h (1 Bft) NO 53 0 min 0,000 mm 0,0 UV-I 0 W/m 12,1 C 17,6 C 4,8 km/h (1 Bft) 97,87 %
31.08.2016 22:12 17,6 C 70 % 1018,6 hPa 0,0 l/m 2,8 km/h (1 Bft) NO 52 0 min 0,000 mm 0,0 UV-I 0 W/m 12,1 C 17,6 C 6,4 km/h (2 Bft) 100,00 %
31.08.2016 22:14 17,6 C 71 % 1018,6 hPa 0,0 l/m 3,0 km/h (1 Bft) NO 52 0 min 0,000 mm 0,0 UV-I 0 W/m 12,3 C 17,6 C 4,8 km/h (1 Bft) 100,00 %
31.08.2016 22:16 17,6 C 71 % 1018,7 hPa 0,0 l/m 2,7 km/h (1 Bft) NO 52 0 min 0,000 mm 0,0 UV-I 0 W/m 12,3 C 17,6 C 4,8 km/h (1 Bft) 100,00 %
31.08.2016 22:18 17,5 C 71 % 1018,7 hPa 0,0 l/m 2,7 km/h (1 Bft) O-NO 57 0 min 0,000 mm 0,0 UV-I 0 W/m 12,2 C 17,5 C 4,8 km/h (1 Bft) 100,00 %
31.08.2016 22:20 17,5 C 71 % 1018,7 hPa 0,0 l/m 3,0 km/h (1 Bft) O-NO 57 0 min 0,000 mm 0,0 UV-I 0 W/m 12,2 C 17,5 C 4,8 km/h (1 Bft) 100,00 %
31.08.2016 22:22 17,5 C 71 % 1018,8 hPa 0,0 l/m 3,0 km/h (1 Bft) O-NO 57 0 min 0,000 mm 0,0 UV-I 0 W/m 12,2 C 17,5 C 3,2 km/h (1 Bft) 100,00 %
31.08.2016 22:24 17,5 C 71 % 1018,8 hPa 0,0 l/m 2,3 km/h (1 Bft) O-NO 57 0 min 0,000 mm 0,0 UV-I 0 W/m 12,2 C 17,5 C 3,2 km/h (1 Bft) 94,74 %
31.08.2016 22:26 17,4 C 71 % 1018,8 hPa 0,0 l/m 2,4 km/h (1 Bft) O-NO 57 0 min 0,000 mm 0,0 UV-I 0 W/m 12,1 C 17,4 C 3,2 km/h (1 Bft) 100,00 %
31.08.2016 22:28 17,4 C 71 % 1018,8 hPa 0,0 l/m 3,0 km/h (1 Bft) O-NO 57 0 min 0,000 mm 0,0 UV-I 0 W/m 12,1 C 17,4 C 4,8 km/h (1 Bft) 100,00 %
31.08.2016 22:30 17,4 C 71 % 1018,8 hPa 0,0 l/m 1,8 km/h (1 Bft) O-NO 57 0 min 0,000 mm 0,0 UV-I 0 W/m 12,1 C 17,4 C 3,2 km/h (1 Bft) 97,87 %
31.08.2016 22:32 17,4 C 71 % 1018,8 hPa 0,0 l/m 1,1 km/h (1 Bft) O-NO 57 0 min 0,000 mm 0,0 UV-I 0 W/m 12,1 C 17,4 C 3,2 km/h (1 Bft) 100,00 %
31.08.2016 22:34 17,3 C 71 % 1018,8 hPa 0,0 l/m 0,0 km/h (0 Bft) O-NO 57 0 min 0,000 mm 0,0 UV-I 0 W/m 12,0 C 17,3 C 0,0 km/h (0 Bft) 100,00 %
31.08.2016 22:36 17,2 C 72 % 1018,8 hPa 0,0 l/m 0,0 km/h (0 Bft) O-NO 57 0 min 0,000 mm 0,0 UV-I 0 W/m 12,1 C 17,2 C 0,0 km/h (0 Bft) 97,87 %
31.08.2016 22:38 17,1 C 72 % 1018,8 hPa 0,0 l/m 0,0 km/h (0 Bft) O-NO 57 0 min 0,000 mm 0,0 UV-I 0 W/m 12,0 C 17,1 C 0,0 km/h (0 Bft) 95,74 %
31.08.2016 22:40 17,1 C 73 % 1018,8 hPa 0,0 l/m 0,0 km/h (0 Bft) O-NO 57 0 min 0,000 mm 0,0 UV-I 0 W/m 12,2 C 17,1 C 0,0 km/h (0 Bft) 97,87 %
31.08.2016 22:42 17,0 C 73 % 1018,8 hPa 0,0 l/m 0,0 km/h (0 Bft) O-NO 57 0 min 0,000 mm 0,0 UV-I 0 W/m 12,1 C 17,0 C 0,0 km/h (0 Bft) 97,87 %
31.08.2016 22:44 17,0 C 73 % 1018,8 hPa 0,0 l/m 0,0 km/h (0 Bft) O-NO 57 0 min 0,000 mm 0,0 UV-I 0 W/m 12,1 C 17,0 C 0,0 km/h (0 Bft) 98,00 %
31.08.2016 22:46 16,9 C 72 % 1018,9 hPa 0,0 l/m 0,0 km/h (0 Bft) O-NO 57 0 min 0,000 mm 0,0 UV-I 0 W/m 11,8 C 16,9 C 0,0 km/h (0 Bft) 97,87 %
31.08.2016 22:48 16,9 C 73 % 1018,8 hPa 0,0 l/m 0,0 km/h (0 Bft) O-NO 57 0 min 0,000 mm 0,0 UV-I 0 W/m 12,0 C 16,9 C 0,0 km/h (0 Bft) 95,74 %
31.08.2016 22:50 16,7 C 75 % 1018,9 hPa 0,0 l/m 0,0 km/h (0 Bft) O-NO 57 0 min 0,000 mm 0,0 UV-I 0 W/m 12,2 C 16,7 C 0,0 km/h (0 Bft) 95,74 %
31.08.2016 22:52 16,6 C 75 % 1019,0 hPa 0,0 l/m 0,0 km/h (0 Bft) O-NO 57 0 min 0,000 mm 0,0 UV-I 0 W/m 12,1 C 16,6 C 0,0 km/h (0 Bft) 96,00 %
31.08.2016 22:54 16,3 C 76 % 1019,0 hPa 0,0 l/m 0,0 km/h (0 Bft) O-NO 57 0 min 0,000 mm 0,0 UV-I 0 W/m 12,1 C 16,3 C 0,0 km/h (0 Bft) 100,00 %
31.08.2016 22:56 16,2 C 77 % 1019,0 hPa 0,0 l/m 0,0 km/h (0 Bft) O-NO 57 0 min 0,000 mm 0,0 UV-I 0 W/m 12,2 C 16,2 C 0,0 km/h (0 Bft) 95,74 %
31.08.2016 22:58 16,1 C 78 % 1019,1 hPa 0,0 l/m 0,0 km/h (0 Bft) O-NO 57 0 min 0,000 mm 0,0 UV-I 0 W/m 12,3 C 16,1 C 0,0 km/h (0 Bft) 93,62 %
31.08.2016 23:00 15,9 C 78 % 1019,1 hPa 0,0 l/m 0,0 km/h (0 Bft) O-NO 57 0 min 0,000 mm 0,0 UV-I 0 W/m 12,1 C 15,9 C 0,0 km/h (0 Bft) 95,92 %
31.08.2016 23:02 15,8 C 78 % 1019,1 hPa 0,0 l/m 0,0 km/h (0 Bft) O-NO 57 0 min 0,000 mm 0,0 UV-I 0 W/m 12,0 C 15,8 C 0,0 km/h (0 Bft) 96,00 %
31.08.2016 23:04 15,8 C 79 % 1019,1 hPa 0,0 l/m 0,0 km/h (0 Bft) O-NO 57 0 min 0,000 mm 0,0 UV-I 0 W/m 12,2 C 15,8 C 0,0 km/h (0 Bft) 95,74 %
31.08.2016 23:06 15,7 C 79 % 1019,1 hPa 0,0 l/m 0,0 km/h (0 Bft) O-NO 57 0 min 0,000 mm 0,0 UV-I 0 W/m 12,1 C 15,7 C 0,0 km/h (0 Bft) 100,00 %
31.08.2016 23:08 15,6 C 80 % 1019,1 hPa 0,0 l/m 0,0 km/h (0 Bft) O-NO 57 0 min 0,000 mm 0,0 UV-I 0 W/m 12,2 C 15,6 C 0,0 km/h (0 Bft) 97,87 %
31.08.2016 23:10 15,6 C 80 % 1019,1 hPa 0,0 l/m 0,0 km/h (0 Bft) O-NO 57 0 min 0,000 mm 0,0 UV-I 0 W/m 12,2 C 15,6 C 0,0 km/h (0 Bft) 97,87 %
31.08.2016 23:12 15,5 C 80 % 1019,1 hPa 0,0 l/m 0,0 km/h (0 Bft) O-NO 57 0 min 0,000 mm 0,0 UV-I 0 W/m 12,1 C 15,5 C 0,0 km/h (0 Bft) 100,00 %
31.08.2016 23:16 15,4 C 81 % 1019,1 hPa 0,0 l/m 0,0 km/h (0 Bft) O-NO 57 0 min 0,000 mm 0,0 UV-I 0 W/m 12,2 C 15,4 C 0,0 km/h (0 Bft) 95,65 %
31.08.2016 23:18 15,3 C 82 % 1019,1 hPa 0,0 l/m 0,0 km/h (0 Bft) O-NO 57 0 min 0,000 mm 0,0 UV-I 0 W/m 12,2 C 15,3 C 0,0 km/h (0 Bft) 100,00 %
31.08.2016 23:20 15,3 C 82 % 1019,1 hPa 0,0 l/m 0,0 km/h (0 Bft) O-NO 57 0 min 0,000 mm 0,0 UV-I 0 W/m 12,2 C 15,3 C 0,0 km/h (0 Bft) 97,87 %
31.08.2016 23:22 15,3 C 82 % 1019,1 hPa 0,0 l/m 0,0 km/h (0 Bft) O-NO 57 0 min 0,000 mm 0,0 UV-I 0 W/m 12,2 C 15,3 C 0,0 km/h (0 Bft) 98,00 %
31.08.2016 23:24 15,2 C 82 % 1019,1 hPa 0,0 l/m 0,0 km/h (0 Bft) O-NO 57 0 min 0,000 mm 0,0 UV-I 0 W/m 12,1 C 15,2 C 0,0 km/h (0 Bft) 100,00 %
31.08.2016 23:26 15,1 C 82 % 1019,1 hPa 0,0 l/m 0,3 km/h (0 Bft) O-NO 57 0 min 0,000 mm 0,0 UV-I 0 W/m 12,0 C 15,1 C 1,6 km/h (1 Bft) 97,87 %
31.08.2016 23:28 15,1 C 82 % 1019,1 hPa 0,0 l/m 0,0 km/h (0 Bft) O-NO 57 0 min 0,000 mm 0,0 UV-I 0 W/m 12,0 C 15,1 C 1,6 km/h (1 Bft) 100,00 %
31.08.2016 23:30 14,9 C 83 % 1019,1 hPa 0,0 l/m 0,0 km/h (0 Bft) O-NO 57 0 min 0,000 mm 0,0 UV-I 0 W/m 12,0 C 14,9 C 0,0 km/h (0 Bft) 97,87 %
31.08.2016 23:32 14,9 C 83 % 1019,1 hPa 0,0 l/m 0,0 km/h (0 Bft) O-NO 57 0 min 0,000 mm 0,0 UV-I 0 W/m 12,0 C 14,9 C 0,0 km/h (0 Bft) 95,74 %
31.08.2016 23:34 15,1 C 84 % 1019,1 hPa 0,0 l/m 0,0 km/h (0 Bft) O-NO 57 0 min 0,000 mm 0,0 UV-I 0 W/m 12,4 C 15,1 C 0,0 km/h (0 Bft) 100,00 %
31.08.2016 23:36 15,1 C 83 % 1019,1 hPa 0,0 l/m 0,4 km/h (0 Bft) O-NO 57 0 min 0,000 mm 0,0 UV-I 0 W/m 12,2 C 15,1 C 1,6 km/h (1 Bft) 95,74 %
31.08.2016 23:38 15,1 C 83 % 1019,2 hPa 0,0 l/m 0,1 km/h (0 Bft) O-NO 57 0 min 0,000 mm 0,0 UV-I 0 W/m 12,2 C 15,1 C 1,6 km/h (1 Bft) 100,00 %
31.08.2016 23:40 14,9 C 83 % 1019,1 hPa 0,0 l/m 0,1 km/h (0 Bft) O-NO 57 0 min 0,000 mm 0,0 UV-I 0 W/m 12,0 C 14,9 C 1,6 km/h (1 Bft) 100,00 %
31.08.2016 23:42 14,8 C 83 % 1019,1 hPa 0,0 l/m 0,0 km/h (0 Bft) O-NO 57 0 min 0,000 mm 0,0 UV-I 0 W/m 11,9 C 14,8 C 0,0 km/h (0 Bft) 97,87 %
31.08.2016 23:44 14,8 C 84 % 1019,1 hPa 0,0 l/m 0,0 km/h (0 Bft) O-NO 57 0 min 0,000 mm 0,0 UV-I 0 W/m 12,1 C 14,8 C 0,0 km/h (0 Bft) 100,00 %
31.08.2016 23:46 14,7 C 84 % 1019,1 hPa 0,0 l/m 0,0 km/h (0 Bft) O-NO 57 0 min 0,000 mm 0,0 UV-I 0 W/m 12,0 C 14,7 C 0,0 km/h (0 Bft) 100,00 %
31.08.2016 23:48 14,7 C 84 % 1019,1 hPa 0,0 l/m 0,0 km/h (0 Bft) O-NO 57 0 min 0,000 mm 0,0 UV-I 0 W/m 12,0 C 14,7 C 0,0 km/h (0 Bft) 100,00 %
31.08.2016 23:50 14,7 C 84 % 1019,1 hPa 0,0 l/m 0,0 km/h (0 Bft) O-NO 57 0 min 0,000 mm 0,0 UV-I 0 W/m 12,0 C 14,7 C 0,0 km/h (0 Bft) 100,00 %
31.08.2016 23:52 14,5 C 84 % 1019,1 hPa 0,0 l/m 0,5 km/h (0 Bft) O-NO 57 0 min 0,000 mm 0,0 UV-I 0 W/m 11,8 C 14,5 C 3,2 km/h (1 Bft) 97,87 %
31.08.2016 23:54 14,4 C 85 % 1019,1 hPa 0,0 l/m 0,1 km/h (0 Bft) O-NO 57 0 min 0,000 mm 0,0 UV-I 0 W/m 11,9 C 14,4 C 1,6 km/h (1 Bft) 100,00 %
31.08.2016 23:56 14,4 C 85 % 1019,1 hPa 0,0 l/m 0,0 km/h (0 Bft) O-NO 57 0 min 0,000 mm 0,0 UV-I 0 W/m 11,9 C 14,4 C 0,0 km/h (0 Bft) 100,00 %
31.08.2016 23:58 14,4 C 85 % 1019,2 hPa 0,0 l/m 1,4 km/h (1 Bft) O 82 0 min 0,000 mm 0,0 UV-I 0 W/m 11,9 C 14,4 C 3,2 km/h (1 Bft) 100,00 %
_ Min-Zeit 06:40 15:24 19:14 - 22:34 - - - - - - 07:12 07:10 22:34 05:34
Minimum _ 12,4 C 45 % 1017,7 hPa - 0,0 km/h (0 Bft) - - - - - - 9,3 C 8,7 C 0,0 km/h (0 Bft) 93,62 %
_ Max-Zeit 15:52 23:54 00:22 00:00 10:48 - - 07:42 13:00 13:10 13:16 18:44 15:30 10:52 00:00
Maximum _ 25,1 C 85 % 1022,0 hPa 0,0 l/m 25,4 km/h
O (4 Bft)
- - 2 min 0,584 mm 5,2 UV-I 765 W/m 13,9 C 24,2 C 37,0 km/h
O (5 Bft)
100,00 %
Durchschnitt _ 18,4 C 66 % 1019,9 hPa #0,0 l/m 11,3 km/h (2 Bft) O-NO - #11:06 h #5,029 mm 3,0 UV-I 433 W/m 11,6 C 16,7 C 16,7 km/h (3 Bft) 98,54 %